GFSSW_sfc_temp_000.txt.gz
Temp
63 64 64 64 65 65 65 66 66 66 65 66 66 66 66 66 64 56 52 59 63 72 73 68 67 65 64 59 61 56 47 43 47 48 52 57 58 62 64 62 63 63 61 65 64
63 64 64 64 64 64 65 65 65 65 65 65 65 65 65 64 54 52 62 69 71 72 65 61 60 63 57 56 57 53 45 48 55 54 54 58 56 60 60 60 61 62 65 63 61
63 63 64 64 64 64 64 64 64 65 64 64 64 64 64 61 52 51 68 69 71 71 66 63 63 61 55 55 54 52 48 53 58 59 58 57 58 60 58 57 62 64 66 64 59
63 63 63 63 63 63 64 63 64 64 64 64 63 63 62 57 40 60 70 71 71 69 67 62 59 56 52 52 56 49 56 56 59 60 58 56 59 58 59 62 67 66 65 63 62
63 63 63 63 63 63 63 63 63 63 63 64 63 62 56 49 49 63 68 67 68 65 62 60 56 55 51 53 54 50 54 58 60 60 58 58 56 57 59 65 65 65 65 64 62
63 63 62 62 62 62 62 62 63 63 63 64 63 61 51 42 60 64 63 62 62 61 61 61 58 59 56 55 55 56 57 58 58 60 58 57 58 56 59 61 63 63 62 62 62
63 62 62 62 62 62 62 63 63 62 62 62 62 57 50 49 60 61 63 62 62 62 59 61 62 63 61 56 58 56 51 55 56 57 58 57 56 55 62 57 61 59 57 59 60
63 62 61 61 61 61 62 62 62 62 61 62 62 52 45 60 63 61 60 61 61 63 62 63 64 63 61 61 57 51 48 43 52 54 57 56 50 58 60 56 58 57 53 55 56
62 62 61 60 60 60 60 61 61 61 62 61 54 50 45 63 55 58 60 55 57 60 62 66 61 59 60 53 50 51 45 42 48 55 53 51 47 57 56 58 56 50 51 53 54
62 61 61 60 60 59 59 60 60 59 57 58 56 45 48 48 55 58 59 59 56 55 56 56 55 52 49 45 41 44 45 41 43 50 49 48 49 58 55 54 51 51 49 51 53
61 61 60 59 59 59 57 53 46 44 49 45 46 46 51 55 59 55 59 57 55 51 47 53 48 45 47 53 48 47 43 43 46 51 47 47 47 54 55 54 50 50 51 50 53
61 60 59 58 58 58 55 48 50 52 41 49 51 49 55 55 48 53 61 50 49 42 51 49 45 53 52 51 51 49 48 42 48 50 47 48 48 53 52 54 51 51 50 51 52
60 60 58 57 58 56 51 52 56 57 43 44 49 49 51 54 47 48 56 52 46 44 47 47 50 57 54 48 49 47 46 42 44 48 48 45 44 46 49 49 51 51 51 51 52
60 59 57 57 53 53 50 55 56 56 35 38 42 47 52 51 45 57 60 55 48 44 49 48 53 53 52 47 49 42 49 51 47 43 37 44 35 42 46 47 48 48 49 50 50
59 59 58 57 53 50 54 55 55 50 22 41 44 56 52 46 48 49 60 56 44 45 50 46 48 47 49 51 51 46 53 51 49 41 35 37 36 41 42 44 47 47 48 49 49
58 59 58 54 54 54 56 55 51 34 24 36 45 43 43 46 48 51 52 55 55 49 48 47 53 52 50 53 54 54 50 48 44 39 32 38 40 38 42 45 44 46 48 49 49
58 58 56 57 51 56 55 49 33 28 40 36 38 44 44 41 45 47 45 43 43 38 40 44 47 52 55 49 52 51 47 36 34 31 31 35 34 42 46 49 52 51 49 49 49
57 57 56 57 57 56 51 40 30 36 36 45 42 43 39 44 44 45 44 42 47 43 44 38 37 46 52 49 45 46 44 34 29 29 32 36 34 44 46 47 50 54 51 49 48
57 54 53 55 57 54 44 33 34 41 44 43 43 38 38 44 44 44 43 43 48 49 42 40 39 46 53 51 52 42 42 44 37 31 31 35 41 48 47 46 45 49 49 48 48
51 47 49 57 57 51 40 36 41 50 48 46 37 42 37 40 41 41 42 49 49 53 50 43 36 47 47 54 51 47 50 39 36 30 28 32 34 40 45 43 44 45 47 47 48
49 43 53 57 55 47 37 38 47 53 51 47 42 40 43 39 42 40 41 47 53 49 49 45 41 41 47 44 44 43 40 39 40 35 31 28 36 43 45 46 46 46 48 47 48
44 41 54 56 45 46 41 47 51 51 51 50 51 49 45 42 43 42 42 46 54 51 46 47 40 37 42 43 46 43 43 42 36 32 31 31 36 46 45 45 48 48 49 49 49
42 48 55 52 42 42 47 48 51 49 49 49 46 50 51 44 41 45 45 50 51 51 48 48 39 33 38 40 41 40 41 41 39 37 31 32 37 48 44 46 48 50 51 50 48
44 43 47 49 47 45 44 45 45 49 48 52 49 50 50 45 46 41 42 48 51 51 52 53 42 39 35 37 42 37 40 40 41 34 33 35 39 43 43 47 48 48 48 49 46
42 46 48 40 43 45 48 46 44 44 49 52 47 50 46 41 41 40 44 46 50 51 49 51 42 40 40 42 43 42 43 41 40 42 39 41 40 43 44 46 46 46 46 46 45
42 42 45 41 46 47 45 44 44 46 48 48 45 47 48 45 44 41 45 44 44 46 46 48 40 41 37 41 41 39 41 41 40 40 38 40 40 44 44 44 44 42 45 46 45
42 46 49 45 44 45 45 46 47 49 49 49 49 48 46 47 47 48 47 47 48 49 45 45 42 40 35 38 37 36 41 39 40 41 43 38 43 45 44 47 45 46 46 47 45

GFSSW_sfc_temp_003.txt.gz
Temp
63 63 64 64 64 64 65 65 66 66 66 65 65 66 66 66 65 60 52 61 64 71 72 68 68 68 69 65 65 62 53 49 52 52 59 64 62 67 70 68 70 72 73 75 72
63 64 64 64 64 64 64 65 65 65 66 66 66 65 65 64 58 55 63 68 70 71 65 61 61 65 61 62 62 59 51 52 59 59 60 63 62 65 65 65 67 71 74 74 71
63 63 63 64 64 64 64 64 64 65 65 65 65 64 64 62 53 54 68 69 70 71 67 65 62 62 58 60 59 57 53 57 60 62 63 61 61 65 64 62 67 70 73 72 71
63 63 63 63 63 63 63 63 63 63 64 64 64 63 63 58 42 60 70 71 71 69 64 62 59 56 55 54 59 55 58 60 62 64 63 61 63 62 63 68 71 71 69 68 71
63 63 63 63 63 63 63 63 63 64 64 64 64 62 57 49 51 64 69 67 66 66 60 58 57 56 54 57 57 55 59 60 62 62 61 61 60 62 63 69 71 68 68 68 69
63 63 63 63 62 62 62 63 63 63 63 63 63 61 53 43 61 66 63 62 63 62 59 60 59 61 57 57 58 59 60 62 61 62 61 60 62 62 68 68 69 67 66 65 65
63 63 63 62 62 62 62 63 63 63 62 62 62 57 51 49 61 61 62 60 62 63 57 62 62 63 61 57 60 59 56 58 59 61 61 60 57 57 68 66 66 65 62 61 61
63 63 62 62 61 61 62 62 63 62 62 61 61 54 46 61 63 60 61 59 62 63 62 64 64 61 61 63 59 56 55 49 58 60 60 61 53 62 63 63 64 63 60 59 59
63 62 62 62 61 61 60 61 62 61 61 61 53 50 45 62 54 59 60 55 59 59 61 65 61 58 59 53 50 51 44 47 51 59 58 57 54 61 64 64 63 62 59 59 60
62 62 62 62 61 60 60 59 60 59 58 58 55 45 49 49 55 57 58 59 54 56 55 56 54 51 53 49 41 43 47 49 48 56 54 53 53 59 61 61 63 61 58 58 58
61 61 61 61 59 58 57 54 47 46 50 45 45 46 51 56 59 55 57 56 55 52 45 51 48 45 50 53 53 50 51 50 51 55 53 52 51 58 60 59 58 56 56 57 58
61 61 61 60 58 58 56 47 50 52 41 49 50 50 54 55 48 53 59 49 47 43 49 48 44 53 53 52 52 49 48 47 51 54 53 52 52 58 57 58 59 56 56 57 57
60 60 59 58 57 56 52 52 57 56 42 45 49 48 49 53 47 49 54 51 47 45 45 45 49 57 53 49 49 48 47 46 48 51 52 49 50 52 56 56 54 55 56 57 57
59 60 59 57 53 53 50 54 54 53 34 38 41 47 51 51 44 55 57 53 48 44 47 47 53 53 51 48 50 44 51 52 49 47 42 51 41 48 54 53 52 53 55 55 55
59 59 59 56 52 50 52 54 53 48 23 41 42 56 51 47 48 47 58 54 45 46 48 44 48 49 47 50 52 47 53 51 50 47 43 44 43 48 49 49 50 52 53 54 55
58 58 58 54 53 54 54 54 50 32 23 36 44 41 42 45 47 50 50 54 55 49 50 47 54 54 53 53 54 52 49 47 46 44 37 43 45 45 48 51 50 52 52 53 54
58 58 55 56 51 55 54 48 32 27 38 35 37 41 41 39 42 45 43 42 40 36 38 44 47 50 52 49 51 51 46 35 32 34 36 41 40 47 51 53 55 55 53 53 54
57 57 56 56 56 55 51 39 28 37 34 44 41 41 38 41 41 43 41 37 45 43 40 37 36 46 50 48 45 46 46 38 32 33 37 39 38 49 53 54 54 56 55 53 53
57 54 52 55 56 54 42 31 34 38 40 40 40 35 38 42 42 41 40 40 44 44 41 38 39 47 51 52 52 42 41 48 39 37 36 40 45 53 53 51 50 52 52 52 52
51 49 50 57 56 49 37 35 38 43 47 44 35 39 33 38 35 40 40 48 45 48 48 44 37 46 50 53 51 48 51 40 40 34 32 36 38 44 50 51 48 49 52 51 51
49 41 53 57 54 45 35 36 42 49 50 44 41 37 41 37 37 39 39 47 50 49 47 45 42 40 48 46 43 44 40 42 43 39 35 33 41 48 50 51 50 49 52 52 51
43 41 54 55 42 43 39 42 47 49 51 47 46 46 41 41 38 41 40 45 54 53 45 47 41 36 40 45 49 49 46 46 39 35 35 36 40 51 49 49 50 50 51 52 52
40 47 54 52 40 40 45 45 48 48 49 47 45 48 46 42 39 44 46 51 53 53 46 49 40 34 40 44 44 43 45 44 42 40 34 36 41 51 49 50 50 51 52 53 51
42 42 47 48 47 44 44 44 45 51 50 51 47 51 46 43 44 41 44 49 52 55 54 53 42 39 36 39 42 38 40 41 44 37 36 37 43 48 49 50 50 52 53 53 50
40 40 45 40 43 43 45 45 44 44 48 50 47 46 48 40 40 40 44 47 51 51 51 52 42 41 40 43 44 43 43 41 41 46 43 44 42 48 50 50 51 53 52 49 46
39 39 40 43 43 42 43 43 44 43 45 46 46 47 49 45 43 39 44 45 46 47 46 48 41 41 38 42 43 41 42 44 43 41 42 42 43 50 49 49 50 50 49 48 46
42 42 43 45 44 44 44 43 43 45 46 47 49 49 47 47 47 49 49 49 50 47 44 45 42 40 38 40 41 37 41 40 43 42 47 41 50 47 46 48 48 48 49 49 48

GFSSW_sfc_temp_006.txt.gz
Temp
64 64 64 64 64 65 65 65 66 66 66 65 65 66 66 66 65 66 60 69 71 72 72 73 74 75 75 72 73 73 63 59 62 63 67 73 70 77 79 76 80 82 82 84 83
63 64 64 64 64 64 64 64 65 65 65 66 66 66 65 65 65 59 69 69 70 71 71 68 69 72 69 69 71 68 62 63 70 72 70 71 72 73 73 76 78 80 85 86 85
64 64 64 64 64 64 64 64 64 64 65 65 65 65 65 66 57 59 71 70 70 72 72 71 69 69 65 70 69 68 62 70 70 72 72 70 71 74 71 70 77 77 82 84 84
64 64 63 64 64 63 63 64 64 64 64 64 64 64 63 65 44 65 70 70 71 72 70 67 61 60 60 61 70 62 68 71 71 71 70 69 73 71 73 74 81 82 82 80 82
64 64 63 63 63 63 63 63 63 64 64 64 64 63 61 51 56 71 68 69 72 69 64 63 58 62 59 64 67 63 69 70 72 71 70 71 69 71 72 79 83 82 79 80 81
64 63 63 63 63 62 63 63 63 63 63 63 63 62 58 46 69 72 72 70 68 68 62 65 63 69 66 66 64 68 68 69 72 70 71 67 70 69 75 82 80 79 79 78 75
63 63 63 63 63 63 62 63 63 63 63 63 63 63 54 54 69 70 67 67 69 68 63 67 68 63 68 63 70 69 62 67 69 69 69 70 65 68 78 78 75 77 75 72 71
63 63 63 62 62 62 62 62 62 62 63 62 63 60 50 66 71 67 69 65 69 70 67 70 67 58 58 70 66 61 63 56 68 69 70 68 59 73 75 74 73 73 73 71 70
63 63 63 62 62 61 61 61 60 62 62 62 59 56 49 65 59 66 68 62 63 67 68 68 62 54 61 53 53 59 53 55 61 69 68 65 62 72 74 73 74 75 73 71 71
62 62 62 62 62 61 60 60 60 60 60 60 59 49 55 52 61 63 66 65 60 61 58 56 52 49 52 50 44 49 53 58 58 65 64 63 63 70 75 72 73 74 72 71 71
62 61 61 61 61 59 57 55 47 46 50 47 50 51 54 61 63 59 64 60 59 54 45 54 43 42 52 53 59 61 59 56 62 65 61 62 64 67 73 72 72 72 71 71 69
61 60 60 61 61 59 55 49 51 54 42 51 52 54 57 60 51 57 63 53 50 42 48 48 40 53 53 57 57 60 56 55 64 62 61 62 62 68 72 71 72 71 70 70 68
60 60 60 60 59 55 53 52 55 54 41 45 49 50 53 56 51 52 57 55 48 42 43 43 47 55 51 54 54 57 54 57 57 59 60 59 60 65 66 66 65 70 72 70 69
60 59 60 58 52 55 51 52 53 54 33 38 42 47 52 54 47 60 61 56 50 41 44 48 54 50 51 51 57 52 61 59 55 51 50 59 51 62 68 64 63 66 67 68 67
59 59 59 58 55 51 52 53 52 49 25 44 43 58 54 49 53 52 61 56 47 44 43 42 46 44 47 52 60 55 60 58 55 52 53 55 52 61 60 60 61 65 66 67 67
58 58 58 57 57 55 54 53 50 33 25 37 43 42 43 48 51 53 51 58 54 47 48 50 51 49 57 58 60 59 57 55 55 52 45 55 53 58 62 63 64 65 66 65 66
58 58 57 61 54 56 54 47 33 28 39 35 36 40 42 42 46 46 45 43 37 36 35 40 40 50 60 49 52 58 52 37 37 38 44 52 50 60 64 63 66 64 65 66 66
57 57 57 58 61 55 50 39 29 36 35 41 41 40 37 45 45 44 44 41 44 43 41 34 35 46 57 54 45 50 54 48 38 41 47 48 48 60 64 65 66 70 68 66 65
56 55 53 56 59 54 42 32 35 38 40 37 42 36 39 44 45 42 45 43 44 44 39 35 35 49 54 55 55 44 43 58 48 48 48 53 57 63 62 61 62 65 65 64 64
53 51 52 58 57 49 37 35 38 44 42 47 39 44 39 42 38 41 44 50 46 50 53 47 36 47 49 54 50 52 58 43 50 40 39 48 50 57 61 61 60 62 63 64 64
53 45 55 57 53 43 34 36 41 48 48 47 45 43 45 43 39 43 45 50 52 53 54 53 51 40 51 45 45 50 44 49 53 50 47 46 52 63 62 62 62 63 65 64 62
51 43 53 54 41 41 37 40 45 46 50 52 53 50 48 47 40 38 46 49 58 56 48 54 55 40 43 52 58 57 53 53 47 43 49 49 53 63 62 62 62 64 65 65 64
50 48 53 52 38 38 44 43 45 46 49 51 50 53 53 48 39 43 48 56 57 54 53 57 52 42 41 47 50 49 54 56 57 53 48 47 52 61 62 61 61 63 63 64 63
50 43 47 48 48 44 42 42 43 52 53 55 53 55 50 47 51 46 49 54 56 56 54 56 53 52 45 49 54 48 51 55 54 48 50 51 56 59 60 60 60 63 65 64 62
49 48 50 41 42 43 44 45 42 44 51 51 51 52 52 45 45 47 51 50 55 55 55 55 49 53 52 53 55 53 51 51 51 54 50 56 54 62 65 63 64 65 65 64 61
49 48 50 51 49 46 43 43 42 45 46 44 44 52 54 50 50 47 49 51 49 53 54 57 49 50 48 49 53 50 53 53 54 55 56 57 56 65 65 65 62 64 62 61 60
52 51 51 51 49 46 43 45 44 46 46 47 51 52 51 53 60 59 59 59 58 53 52 52 51 49 45 48 49 44 51 52 54 57 57 52 60 61 57 59 61 61 60 59 59

GFSSW_sfc_temp_009.txt.gz
Temp
64 64 64 64 64 65 65 65 65 66 65 65 66 66 66 66 65 67 62 73 73 72 72 76 77 77 78 74 78 78 64 59 64 66 70 78 74 81 83 79 82 86 85 88 89
64 64 64 64 64 64 64 64 64 65 65 66 66 66 66 65 67 61 72 72 72 71 72 71 70 75 71 71 73 69 62 64 73 75 73 77 75 77 75 77 79 83 89 89 90
64 64 64 64 64 64 64 64 64 64 65 65 65 65 65 67 59 62 73 73 72 71 73 74 72 69 67 71 71 69 62 72 74 76 76 74 74 79 74 71 79 79 84 87 87
64 64 64 64 64 64 63 64 64 64 64 64 64 65 64 67 49 68 70 70 72 74 71 70 68 60 62 62 71 65 71 72 74 76 73 70 76 74 75 76 83 83 85 85 84
64 64 64 64 64 63 63 63 63 63 64 64 64 63 63 54 58 73 69 71 75 71 66 66 64 63 58 65 65 64 70 74 75 75 74 74 71 71 73 81 85 86 85 84 84
64 64 64 63 63 63 63 63 63 63 63 63 63 63 60 48 74 76 74 73 71 71 65 67 66 69 65 63 64 69 70 71 74 73 74 70 71 73 76 82 83 83 83 83 82
64 63 63 63 63 63 63 63 63 63 63 63 63 64 57 57 73 75 73 71 73 71 67 69 71 67 67 59 69 68 62 68 70 72 71 74 66 68 78 82 79 80 82 79 78
63 63 63 63 63 62 63 63 62 62 63 62 63 62 49 71 74 70 71 69 72 72 70 72 71 66 60 64 60 61 60 52 66 70 72 70 58 73 82 78 77 78 79 77 75
63 63 63 62 62 62 62 61 61 61 62 62 61 58 50 67 62 70 71 65 69 69 70 71 66 58 58 48 48 54 50 53 60 72 70 67 62 74 80 77 76 79 79 77 76
62 62 62 62 62 61 61 60 61 60 61 62 62 51 58 55 64 66 70 67 63 63 61 60 55 49 50 46 39 49 49 56 55 67 68 65 64 72 77 77 76 78 80 77 76
62 61 61 61 61 61 58 54 50 46 50 47 51 54 58 65 67 61 67 62 62 58 47 54 44 41 49 54 52 57 54 57 62 68 67 64 64 70 75 76 76 77 77 76 74
61 61 61 61 61 61 57 49 53 55 43 52 56 56 61 62 53 58 66 54 52 46 51 46 39 52 57 54 52 54 55 58 63 66 64 64 64 70 74 74 77 77 77 75 72
61 60 60 60 60 59 54 53 56 56 42 44 50 51 55 56 52 55 60 56 52 46 47 42 46 55 55 47 49 53 51 56 56 63 64 62 59 64 71 75 74 76 78 76 73
60 60 60 59 55 60 53 58 55 54 33 39 42 46 50 50 43 59 63 57 51 46 48 45 50 48 52 46 48 47 57 61 58 56 50 63 51 65 70 67 68 72 75 73 73
60 59 59 59 61 53 52 54 53 49 26 46 42 56 52 43 53 53 64 57 47 47 41 39 44 44 47 48 51 50 61 61 58 57 53 52 52 62 70 66 67 71 72 72 72
59 59 58 58 59 60 55 54 50 33 27 38 43 40 42 43 49 55 55 60 57 48 43 45 53 50 50 53 52 57 57 55 57 54 44 55 55 59 64 67 70 70 71 70 70
58 58 57 64 56 58 53 48 32 29 41 35 36 40 40 39 44 48 46 43 38 32 33 39 38 45 51 43 47 52 47 39 38 40 44 60 56 61 66 69 72 68 69 70 70
58 57 57 61 61 56 50 38 29 40 37 40 39 38 35 40 44 47 43 40 45 41 35 34 32 40 47 46 43 46 48 46 37 40 47 55 49 60 69 71 73 72 71 70 68
57 54 53 56 59 54 43 31 35 40 40 38 39 35 35 38 47 45 44 43 47 43 35 35 36 47 47 54 54 45 46 58 52 56 52 52 59 65 67 66 68 70 69 67 67
53 49 51 62 59 49 38 35 38 45 41 41 39 44 38 40 43 43 42 48 48 49 45 39 34 41 46 52 49 51 61 48 54 42 42 51 55 57 61 64 65 67 67 67 68
51 45 60 59 54 43 33 36 41 47 45 42 46 45 47 45 45 43 45 52 53 52 46 42 37 36 43 45 43 44 48 53 58 54 48 47 53 68 65 66 65 67 69 68 67
50 42 54 55 40 41 36 38 44 44 46 49 54 52 51 50 46 45 46 51 59 54 40 47 40 34 42 53 58 54 51 56 51 46 53 52 53 68 67 67 68 68 69 70 68
47 51 52 51 37 37 43 40 43 42 45 50 51 55 56 51 44 47 49 58 58 55 48 54 45 35 38 47 50 46 55 58 58 58 52 49 53 68 68 66 67 68 69 69 67
50 42 44 46 48 43 39 40 40 48 49 53 53 57 53 51 54 47 49 56 58 57 54 57 52 49 46 50 51 45 50 56 55 50 52 54 57 61 64 64 65 67 68 68 67
49 46 50 39 41 43 44 44 40 41 49 53 50 54 51 47 49 48 51 54 57 57 57 55 50 55 57 58 56 54 52 52 52 55 52 57 57 64 67 67 68 68 68 66 65
47 51 51 48 48 46 43 41 40 43 49 46 45 54 56 52 52 48 53 54 51 55 54 55 48 54 51 54 57 54 56 56 55 57 57 59 59 70 72 72 69 69 67 65 65
51 57 54 53 53 48 47 44 44 46 47 54 50 52 54 57 62 63 63 61 60 55 52 50 49 50 46 52 52 46 55 56 57 59 59 54 62 70 63 65 67 67 67 66 66

GFSSW_sfc_temp_012.txt.gz
Temp
64 64 65 65 65 65 65 65 65 65 65 63 65 66 66 66 65 64 59 70 72 72 72 72 74 73 74 69 72 72 55 53 57 60 64 73 68 75 77 71 75 77 75 77 81
64 64 64 64 64 64 64 65 65 65 65 65 66 66 66 65 64 60 70 74 73 72 68 68 67 71 64 66 67 63 54 57 67 68 67 72 70 70 70 70 71 74 80 81 80
64 64 64 64 64 64 64 64 64 64 64 65 65 65 65 65 57 60 74 74 74 72 69 70 69 67 60 66 65 63 55 65 69 72 73 70 69 73 68 64 70 70 74 76 75
64 64 64 64 64 64 64 64 64 64 64 64 64 64 64 64 46 66 71 71 73 73 68 66 64 59 57 57 67 59 66 67 68 72 71 66 70 68 69 68 75 76 77 76 76
64 64 64 64 64 64 63 63 63 64 64 64 64 64 62 54 57 70 70 71 71 69 63 63 60 59 54 61 63 60 65 69 71 71 71 72 66 66 67 73 76 77 77 75 75
64 64 64 64 63 63 63 63 63 64 63 63 64 63 57 47 72 74 71 71 71 69 64 63 62 65 60 59 58 64 65 65 69 70 70 67 66 67 69 73 74 76 74 74 73
64 64 63 63 63 63 63 63 63 63 63 63 63 62 55 54 73 74 73 70 71 69 64 66 65 60 63 57 65 64 56 63 64 68 68 69 61 62 71 73 72 73 72 70 71
64 63 63 63 63 63 63 63 63 62 62 63 63 61 49 69 71 70 71 68 70 71 68 69 68 62 58 61 57 54 56 46 61 66 67 64 53 66 72 71 70 70 65 68 69
64 63 63 63 62 62 62 62 62 62 61 62 59 56 49 68 61 68 69 63 67 68 68 70 64 56 56 49 44 49 43 46 52 65 64 62 55 66 71 70 67 65 68 68 67
63 62 62 62 62 61 61 60 60 59 60 63 61 50 56 55 63 65 68 67 62 62 59 58 54 47 48 44 35 41 43 49 49 59 62 60 59 64 69 68 66 66 67 66 67
62 62 61 61 61 61 59 57 50 47 51 48 51 53 58 64 67 62 66 62 60 56 45 53 43 39 44 47 48 50 49 48 55 62 59 59 60 63 67 67 65 65 65 65 64
62 61 61 61 61 60 59 50 53 52 43 51 54 55 61 62 53 58 65 53 50 43 48 45 38 48 52 51 48 48 45 46 56 61 60 60 58 65 65 67 68 66 66 64 62
61 60 60 60 60 58 55 54 59 57 42 45 50 51 55 58 51 54 59 54 48 43 44 39 44 51 50 48 46 46 45 46 48 58 57 56 53 57 64 68 67 69 68 66 63
61 60 60 59 54 58 53 61 59 55 35 38 42 48 53 50 43 59 62 55 49 43 45 44 50 48 46 45 48 42 53 51 49 46 43 55 38 53 60 62 64 62 62 64 63
60 60 59 59 57 54 54 55 54 50 25 42 42 55 52 44 48 49 59 52 45 45 46 39 43 44 43 43 50 44 53 49 50 46 43 49 44 50 60 58 58 59 62 63 63
59 59 59 56 56 56 56 55 51 33 25 38 42 41 41 43 44 49 50 54 54 46 47 43 51 48 46 49 48 53 47 46 48 47 38 44 46 46 54 58 59 61 62 63 63
59 58 57 60 52 57 55 48 32 28 43 36 37 41 41 39 39 41 41 41 38 32 33 38 39 46 45 42 48 48 42 35 33 35 35 51 46 49 56 62 64 63 61 62 61
58 58 56 58 56 55 52 39 28 41 38 41 39 39 36 39 39 39 38 37 44 40 35 31 30 39 43 41 42 43 41 33 30 32 39 53 42 49 61 63 64 65 63 62 60
57 55 52 54 56 54 44 30 35 41 41 38 38 34 34 38 39 37 39 38 43 45 32 33 32 43 48 48 48 41 34 43 40 49 42 42 48 53 59 58 60 61 62 60 60
51 50 50 56 54 49 39 34 40 45 42 40 35 39 35 36 35 38 39 46 45 49 47 36 32 43 44 49 48 45 50 38 41 37 32 40 44 45 51 53 57 59 59 59 60
49 45 53 55 52 43 34 36 42 47 44 39 39 41 43 40 40 41 42 48 50 49 43 38 34 36 42 42 41 41 41 45 47 46 38 35 41 56 55 57 56 58 61 60 60
48 41 54 54 41 41 36 41 43 43 46 43 43 41 46 47 42 41 41 46 55 50 39 40 37 33 36 45 51 49 45 50 44 40 42 42 40 58 57 59 59 59 63 62 61
45 46 52 51 36 37 41 41 41 41 44 42 44 51 53 49 42 46 46 55 51 47 42 40 35 32 33 41 45 44 47 51 49 48 41 39 40 58 56 56 58 58 60 61 60
46 41 45 45 46 42 39 39 38 45 43 46 49 52 50 48 51 45 47 53 54 51 51 49 43 35 34 41 44 41 47 50 47 40 42 43 43 51 54 55 57 57 58 59 59
46 44 46 37 39 41 43 41 39 38 45 48 48 49 49 44 47 47 48 52 54 54 50 43 40 42 48 49 49 48 47 48 47 48 41 46 49 53 55 54 56 57 59 58 58
43 44 47 46 46 43 41 40 40 40 43 44 44 50 49 47 49 45 49 49 48 52 50 51 41 46 47 51 51 47 50 50 50 50 49 52 49 60 60 59 56 55 57 58 58
49 52 49 48 47 42 43 43 43 44 44 47 49 48 48 53 58 59 57 57 56 51 48 46 44 43 38 47 47 41 48 50 50 52 52 48 55 57 56 59 57 57 58 57 57

GFSSW_sfc_temp_015.txt.gz
Temp
64 64 64 65 64 64 65 65 65 65 65 65 63 65 66 66 65 62 56 64 68 73 72 68 68 67 67 62 64 62 48 47 50 53 58 66 65 70 73 67 68 71 69 74 76
64 64 64 64 64 64 64 64 64 64 64 65 65 65 64 65 62 57 67 72 74 73 65 62 60 63 56 58 59 54 47 51 59 61 60 66 66 67 65 64 64 67 74 74 73
64 64 64 64 64 64 64 64 64 64 64 64 65 65 65 64 56 55 72 73 74 73 66 64 63 61 54 57 56 55 51 57 62 66 66 65 64 68 62 60 65 67 68 70 73
65 64 64 64 64 64 64 64 63 64 64 64 64 64 64 60 43 61 71 72 74 72 65 62 58 52 51 49 58 51 60 61 63 66 65 62 66 62 64 64 69 70 71 70 71
65 64 64 64 64 63 63 63 63 64 64 63 63 64 59 51 51 66 71 71 68 66 61 58 54 52 48 52 54 53 58 63 66 66 66 66 63 63 63 68 71 72 72 70 70
64 64 64 64 63 63 63 63 63 63 63 63 63 62 54 43 65 68 67 67 68 64 59 59 56 58 53 52 53 56 58 61 65 65 65 64 62 61 64 68 68 70 69 69 68
65 64 63 63 63 63 63 63 63 63 63 63 63 60 52 50 66 66 68 65 66 65 62 63 61 57 56 51 58 58 51 57 58 62 62 65 59 59 66 67 66 67 67 67 66
64 63 63 63 63 63 63 63 62 62 62 62 63 56 46 65 65 65 65 64 65 65 64 65 66 59 55 56 52 48 52 43 54 58 62 62 51 61 66 64 64 64 63 64 67
64 63 63 62 62 62 62 62 62 61 62 62 55 51 45 66 58 63 63 61 62 63 63 68 60 54 52 46 42 42 39 41 47 58 59 60 54 61 65 64 61 62 62 62 63
63 63 62 62 62 61 61 61 60 59 60 61 60 48 53 52 60 62 63 63 58 57 56 54 49 42 41 42 34 38 40 43 42 52 56 53 55 59 63 64 61 61 61 59 61
63 62 61 61 61 61 57 52 48 46 51 46 48 50 58 60 64 59 62 58 58 51 43 48 39 37 40 44 44 43 41 42 47 55 53 53 54 58 63 62 58 58 58 58 59
62 61 61 61 61 60 55 49 48 50 43 51 52 53 59 62 52 56 62 51 49 41 43 40 37 44 47 46 44 42 39 39 46 53 52 52 53 59 62 63 61 61 58 57 57
62 60 60 60 60 55 51 53 54 56 41 47 50 49 52 56 50 52 57 52 45 40 40 36 42 49 46 44 41 41 38 39 42 49 52 49 48 53 60 64 63 63 61 61 60
61 60 60 59 53 52 49 57 55 55 35 40 42 48 52 52 45 58 60 53 47 39 42 39 47 45 43 41 43 36 47 46 45 43 38 48 38 48 56 57 60 59 56 58 58
61 60 59 59 52 49 52 54 55 50 23 41 43 55 52 45 47 48 59 53 43 43 42 37 41 40 39 42 46 40 49 47 46 42 42 44 40 44 54 55 58 56 56 58 59
60 59 58 56 54 54 54 54 49 34 22 37 43 41 41 44 46 49 50 53 50 42 43 41 48 45 44 48 48 47 44 43 43 42 33 40 40 40 48 54 59 56 57 58 58
59 58 57 59 48 55 54 47 32 27 42 35 37 41 41 40 41 42 40 39 36 31 32 37 38 43 46 40 44 42 36 30 29 30 31 44 36 42 53 58 62 57 57 58 58
58 58 57 58 55 54 50 39 25 37 36 42 41 41 36 41 40 40 37 34 40 36 32 28 23 37 43 41 38 37 37 31 24 28 36 45 36 47 57 59 61 60 59 58 56
57 55 52 53 55 54 43 30 29 38 42 38 38 34 35 38 38 37 36 35 39 38 29 28 29 44 45 46 45 38 33 43 35 38 33 39 45 53 53 54 56 56 57 55 54
53 50 49 55 55 49 38 33 36 45 43 41 34 37 33 36 34 35 34 40 40 45 45 37 29 42 43 45 45 42 47 33 33 30 29 36 39 43 46 50 54 54 54 55 54
50 45 51 55 52 43 33 36 41 47 45 39 37 36 36 34 34 33 36 43 45 45 46 41 34 34 35 37 36 38 38 41 39 37 34 31 38 49 51 54 53 54 55 55 54
48 41 51 52 41 40 36 41 46 43 46 43 41 40 38 40 35 35 36 44 50 47 41 40 36 31 35 43 48 46 42 43 34 33 38 37 38 50 53 54 55 55 56 57 56
45 45 51 51 35 36 41 42 44 42 42 41 40 43 45 44 36 40 42 51 47 45 39 40 34 29 32 39 44 42 45 47 45 40 39 35 38 52 51 52 54 54 56 56 55
46 40 45 46 45 40 39 39 39 44 42 44 44 46 43 41 45 42 43 49 50 48 47 42 37 34 32 37 44 40 43 44 40 36 39 39 42 46 49 52 51 53 56 55 56
45 42 45 37 39 42 43 41 39 37 42 44 42 42 42 39 43 41 46 48 49 49 45 40 34 36 37 40 44 45 43 40 37 45 42 44 46 48 50 51 51 53 55 55 55
42 43 46 42 44 40 41 40 40 40 41 42 40 47 45 41 43 41 45 45 45 45 40 42 35 39 40 46 46 43 44 47 48 49 49 47 45 51 50 51 50 51 55 55 55
48 50 49 45 43 40 40 41 42 45 44 45 45 45 43 46 50 48 53 52 53 47 44 43 41 39 37 45 44 39 45 46 47 48 49 43 50 51 50 53 52 50 56 54 53

GFSSW_sfc_temp_018.txt.gz
Temp
64 64 64 65 64 64 64 64 64 64 65 65 64 65 65 65 65 62 54 63 65 73 71 66 66 64 63 58 61 59 45 43 48 50 56 62 61 68 71 65 66 68 67 71 72
64 64 64 64 64 64 64 64 64 64 64 64 65 65 64 64 62 57 65 71 73 74 63 60 57 60 54 55 57 52 46 48 55 58 57 61 62 64 63 62 61 64 70 71 71
65 64 64 64 64 64 64 63 63 63 64 64 64 64 64 64 56 55 70 72 73 72 65 62 60 58 51 53 52 52 48 55 58 62 62 60 59 65 62 58 63 63 64 67 67
65 65 64 65 64 64 63 63 63 63 63 63 63 64 63 59 42 60 71 73 73 69 64 60 55 50 48 48 54 47 55 58 59 62 60 57 62 60 61 63 68 68 68 67 69
65 65 64 64 64 63 63 63 63 63 63 63 63 63 58 48 50 65 71 71 67 65 59 56 51 50 46 49 51 48 52 58 61 61 62 63 59 60 61 67 68 68 69 68 68
65 64 64 64 64 63 63 63 63 63 63 63 63 62 53 42 62 65 65 64 65 62 57 57 54 55 50 49 48 52 54 55 59 60 61 59 60 59 63 66 65 67 67 66 67
65 64 63 63 63 63 63 63 63 63 63 63 63 60 50 48 63 62 64 62 64 63 58 59 58 53 53 49 54 53 47 51 54 56 56 61 55 56 63 64 64 63 66 64 65
65 64 63 63 63 63 63 63 62 62 62 62 63 55 44 62 63 61 62 60 63 64 62 63 64 56 55 56 50 45 44 39 51 55 57 57 47 59 63 60 60 62 62 61 65
64 64 63 62 62 62 62 62 61 61 62 62 54 49 43 64 56 61 61 58 60 60 61 67 61 53 51 46 41 40 33 38 44 55 55 54 50 60 63 59 59 59 59 60 60
64 63 63 62 61 61 61 61 61 59 59 61 59 47 51 51 58 60 61 61 56 55 54 53 50 41 41 42 34 38 35 38 39 48 52 51 51 55 59 58 59 62 58 57 59
63 62 62 61 61 60 58 52 46 45 49 46 49 48 54 58 61 57 60 57 54 48 39 45 38 36 39 42 42 40 38 37 42 50 47 48 50 55 59 57 55 57 56 55 57
62 62 62 61 61 60 53 46 48 50 41 50 51 52 57 59 51 55 60 48 46 39 42 41 36 44 45 44 42 40 37 37 43 49 49 46 46 54 58 60 60 61 56 55 55
62 62 61 60 60 55 50 50 54 52 40 46 49 49 51 55 49 51 55 50 43 40 42 38 41 47 44 41 39 38 36 37 37 45 48 47 43 48 55 60 61 63 59 58 58
61 61 61 59 53 50 50 54 53 55 34 38 42 49 51 53 45 58 59 53 46 39 41 40 45 43 42 40 40 34 44 43 41 38 32 45 34 44 52 54 57 61 53 57 57
60 61 59 59 49 48 52 53 53 51 14 41 43 55 52 47 48 48 60 53 41 40 40 36 38 39 37 40 44 38 46 43 42 38 35 38 34 43 51 49 54 60 53 57 58
57 60 58 56 53 54 54 54 50 28 17 36 43 41 41 44 46 49 49 54 49 42 43 41 48 44 43 46 46 45 42 41 39 39 29 37 37 39 44 50 54 57 56 57 57
57 59 57 58 50 55 54 48 29 17 40 35 37 40 41 40 42 43 41 39 36 32 30 36 37 43 46 41 45 43 36 26 23 24 25 39 36 40 48 52 58 60 54 55 57
55 57 57 57 55 55 50 39 21 34 34 43 41 41 36 41 39 41 38 35 40 36 33 30 27 36 44 42 38 38 37 27 18 18 26 42 33 39 52 57 60 59 59 55 54
53 54 52 53 55 53 43 31 30 35 40 39 39 34 34 38 39 38 37 36 41 39 31 29 29 42 43 46 46 35 32 41 32 33 31 35 39 48 54 52 52 58 55 53 53
52 51 50 55 55 49 38 33 36 43 42 42 34 36 33 36 35 35 35 39 40 41 41 35 25 39 41 44 44 39 43 30 29 23 21 33 36 42 50 50 49 50 51 52 53
49 46 51 55 53 43 33 35 41 45 45 40 37 36 37 33 35 34 34 40 41 40 41 38 33 33 37 34 36 36 33 37 36 33 30 29 36 48 52 53 50 51 52 51 51
49 37 51 52 40 39 35 41 46 43 45 43 42 40 38 37 33 31 33 40 46 45 35 41 35 28 33 44 45 41 38 38 31 30 35 34 36 54 53 55 54 52 53 52 53
46 44 51 51 34 35 41 42 44 42 43 41 40 42 43 38 34 36 39 49 48 46 42 42 34 28 30 35 39 36 39 42 42 37 34 31 37 51 49 50 53 52 51 52 51
45 39 43 45 45 40 39 39 39 46 44 44 42 44 41 38 41 39 41 47 48 48 47 43 36 32 29 34 39 35 38 42 41 35 36 33 38 47 46 49 49 49 51 51 51
46 41 44 36 39 42 42 42 39 38 43 44 39 40 40 35 38 37 43 45 47 47 44 39 32 34 36 37 38 42 41 42 40 40 35 40 42 50 51 51 50 51 50 50 50
43 42 45 42 44 42 41 39 40 42 42 39 38 43 41 37 40 37 43 44 41 43 41 40 32 35 36 41 39 40 44 44 43 39 37 38 37 54 48 49 47 49 51 51 51
47 47 47 43 42 39 39 41 41 45 44 46 44 42 40 42 47 47 49 50 48 43 39 38 35 34 34 41 41 37 42 43 43 42 39 34 44 50 48 51 48 47 53 52 52

GFSSW_sfc_temp_021.txt.gz
Temp
65 65 64 64 64 64 64 64 64 64 64 65 65 65 65 65 65 62 55 62 63 72 71 64 63 62 61 56 59 57 45 42 46 47 53 58 57 63 66 61 63 63 65 68 70
65 65 65 64 64 64 64 64 64 64 64 64 64 65 64 64 61 57 66 70 72 73 62 58 56 58 52 52 55 50 45 47 52 53 53 58 59 61 62 61 60 61 67 66 68
65 65 64 64 64 64 64 64 63 63 63 63 64 64 64 62 54 54 70 72 72 72 64 60 58 56 49 51 50 50 47 55 55 58 60 57 57 61 58 56 62 62 62 65 63
65 65 64 64 65 64 64 63 63 63 63 63 63 63 63 58 41 58 71 72 73 68 62 58 54 48 46 46 52 45 52 55 57 60 58 55 58 57 58 60 65 65 66 64 67
65 65 64 64 64 64 63 63 63 63 63 63 63 63 57 48 49 63 70 68 67 64 58 55 50 48 44 46 48 45 49 55 57 58 58 59 57 55 58 63 66 66 65 65 65
65 64 64 64 64 63 63 63 63 63 62 62 63 62 52 41 61 63 63 63 63 60 56 56 52 53 48 47 46 49 50 51 55 55 57 55 57 56 57 62 62 63 64 65 64
65 65 63 63 63 63 63 63 63 63 62 63 63 59 49 48 61 61 64 59 61 60 56 57 57 53 53 47 52 50 44 48 50 53 53 56 52 53 59 61 60 60 61 64 65
64 64 63 63 63 63 63 63 62 62 62 62 62 54 44 61 60 60 60 59 61 61 60 61 61 54 53 55 50 43 41 36 47 52 54 54 44 54 61 60 58 59 58 60 62
63 64 64 63 62 62 62 62 61 61 61 62 53 48 43 63 55 59 60 57 58 59 59 66 60 52 53 45 43 43 35 36 42 53 52 51 47 55 60 58 56 56 57 60 60
62 63 63 62 61 61 61 61 60 59 58 60 59 47 50 50 56 58 58 59 54 54 53 53 51 44 44 42 33 34 32 34 37 45 48 46 47 53 56 56 55 56 59 57 58
59 61 62 61 61 60 58 53 48 46 48 46 49 48 53 57 60 56 59 56 53 48 39 44 39 36 41 39 39 37 37 37 40 47 43 42 44 49 53 54 57 52 55 55 56
57 59 62 62 61 60 54 48 47 50 41 49 50 51 56 58 50 54 59 48 45 38 40 38 33 41 43 41 40 38 37 37 41 46 44 42 42 48 51 52 56 58 57 58 54
58 57 60 61 60 56 52 50 53 51 39 45 48 48 49 54 49 50 54 48 41 37 37 35 39 46 43 39 37 36 34 37 37 42 44 41 40 46 52 55 56 59 61 61 57
58 56 58 61 53 53 50 53 53 53 26 37 41 47 50 52 44 56 58 52 45 39 40 39 46 42 40 37 39 33 41 41 39 35 29 40 29 40 45 50 53 57 58 56 54
56 56 57 58 51 48 51 52 52 48 14 40 43 55 52 46 48 46 57 53 43 40 39 36 36 38 37 39 42 38 44 40 39 35 32 35 30 34 47 47 51 52 56 54 55
55 55 55 53 52 53 54 54 51 29 16 36 42 41 42 45 46 48 48 54 50 43 43 39 44 42 40 44 44 45 40 38 39 35 27 34 32 35 41 46 49 52 56 56 54
55 55 53 57 49 54 55 49 31 20 38 35 37 40 39 39 41 43 40 40 37 32 31 36 37 42 43 39 44 42 36 27 25 25 24 35 33 37 44 48 53 55 56 55 54
55 54 54 56 54 56 52 38 18 33 32 42 39 39 34 39 40 41 39 35 41 37 33 29 26 37 42 39 36 36 35 27 20 19 23 38 30 38 49 54 57 57 54 52 53
54 51 51 52 55 55 44 30 28 34 39 38 41 35 35 40 40 38 37 37 40 39 31 29 27 39 41 44 42 35 31 39 31 32 27 31 36 45 48 49 51 54 54 50 52
47 47 49 54 56 50 39 31 34 42 42 41 32 37 34 36 35 35 35 37 38 41 44 37 24 36 39 44 42 37 42 30 30 21 19 27 31 37 41 47 53 48 51 50 51
46 41 50 55 54 43 33 35 38 44 44 39 36 36 38 35 36 34 34 38 40 39 43 40 34 29 36 34 33 35 33 34 34 29 22 23 29 42 46 51 49 48 49 50 50
45 35 50 53 40 39 35 38 45 41 44 42 42 42 38 38 35 32 31 37 43 40 36 40 34 28 32 41 44 41 37 36 28 24 29 27 31 49 46 50 51 47 49 49 51
42 43 50 50 32 34 40 41 42 41 42 42 40 42 44 39 34 34 36 45 45 41 36 40 33 26 30 34 38 34 38 40 38 35 29 27 34 51 52 50 52 49 50 49 48
43 34 43 45 44 40 38 39 38 45 43 44 42 44 41 38 40 35 37 46 46 46 49 45 35 31 27 31 35 31 35 37 36 29 32 34 39 46 48 48 48 47 49 48 48
43 39 41 35 38 41 42 42 39 38 44 45 40 40 39 36 37 34 39 43 45 48 45 39 31 33 34 35 35 35 37 37 33 36 32 39 39 42 47 47 49 48 48 47 47
42 41 44 41 42 41 41 38 40 41 41 38 38 41 41 38 39 34 39 40 41 43 41 40 30 33 32 37 36 34 36 37 38 40 40 42 38 49 51 49 47 47 48 47 48
48 48 44 43 41 40 40 41 41 45 45 47 42 40 41 43 45 46 43 45 48 43 39 36 34 34 32 38 36 32 39 39 41 43 43 35 44 48 48 49 51 49 51 49 49

GFSSW_sfc_temp_024.txt.gz
Temp
66 65 65 65 64 64 64 64 64 64 64 64 65 65 65 66 64 61 55 61 62 71 70 62 62 60 59 55 57 54 44 40 43 46 50 56 54 61 64 59 62 62 60 66 66
65 65 65 65 64 64 64 64 64 63 63 63 64 65 64 64 60 57 66 70 71 72 61 57 54 56 51 51 53 49 43 45 51 51 51 55 55 57 59 58 57 61 66 64 65
65 65 65 65 64 64 64 64 63 63 63 63 63 64 63 63 53 53 70 72 72 71 63 59 57 54 48 49 48 48 44 50 52 56 56 54 55 58 54 53 59 59 62 64 61
66 65 65 65 64 64 64 63 63 63 63 63 63 63 63 56 41 56 71 71 72 68 63 57 52 48 45 45 50 42 50 52 54 57 55 52 56 54 56 58 63 61 64 63 63
65 65 65 65 64 64 64 63 63 63 63 62 62 62 56 47 49 61 68 66 64 63 60 55 49 48 43 44 46 44 47 52 54 54 54 56 54 53 54 60 63 63 63 63 63
64 64 64 63 64 63 63 63 63 63 62 62 62 61 51 40 59 61 61 61 62 62 59 55 52 51 46 45 44 47 48 49 52 53 53 52 53 53 55 59 59 60 61 62 61
61 64 64 63 63 63 63 63 63 62 62 62 62 58 48 48 59 59 62 57 59 60 55 55 56 51 50 44 50 48 42 46 48 50 50 54 49 50 59 59 57 57 59 61 62
60 61 63 63 63 63 63 63 62 62 62 62 62 53 43 60 58 59 58 57 59 59 59 59 58 52 51 51 50 45 46 36 45 48 51 53 42 53 57 57 56 58 56 58 62
61 59 61 63 62 62 62 62 61 61 61 61 52 48 42 62 54 57 59 56 56 56 58 65 58 48 48 41 40 44 35 38 41 49 49 47 42 51 54 53 52 53 53 56 58
60 60 58 61 62 61 61 61 61 59 57 59 58 45 49 49 55 57 57 59 53 53 52 51 50 44 42 38 29 33 36 39 40 43 44 43 43 50 53 53 53 52 53 54 56
60 59 57 59 62 61 59 53 47 46 49 44 47 47 52 56 58 54 57 55 52 48 39 43 39 36 40 39 38 35 38 37 43 49 44 42 42 47 50 49 49 53 56 53 54
59 58 58 57 60 60 55 49 51 49 40 48 49 50 55 56 48 52 57 47 44 37 40 37 33 41 43 44 42 40 36 36 42 46 42 40 40 47 49 50 52 52 54 55 55
57 57 57 55 58 56 53 51 53 52 39 43 47 47 48 53 47 48 53 47 40 36 36 33 38 44 42 38 38 38 34 33 34 40 43 39 37 44 50 53 54 55 57 58 57
56 57 57 56 53 54 50 53 54 52 25 35 41 45 49 52 45 56 56 49 43 36 37 37 43 41 38 36 37 31 39 39 37 33 28 36 27 38 44 48 49 52 54 56 56
55 56 56 55 51 49 51 53 53 46 13 39 42 55 52 45 47 45 55 52 42 41 40 36 36 36 36 38 40 36 42 38 37 33 32 32 28 31 40 40 44 47 48 53 56
55 55 55 52 52 54 55 55 49 25 16 36 42 41 42 45 47 48 49 53 49 43 43 41 43 42 39 43 43 44 39 38 37 35 26 33 29 34 38 43 45 52 52 54 55
53 54 54 53 48 55 56 48 29 20 37 34 37 41 41 40 42 44 41 39 37 32 31 37 38 43 44 37 41 41 34 26 24 25 23 33 30 35 42 46 47 50 50 52 53
55 55 53 53 54 55 51 35 21 32 31 41 39 39 35 39 40 41 39 35 42 38 33 27 25 37 42 39 35 36 35 27 21 18 21 34 26 34 45 51 54 55 51 51 50
54 49 49 52 53 55 45 29 28 33 39 38 38 31 33 39 40 39 38 35 42 41 32 30 28 38 43 42 43 34 31 38 30 31 27 28 33 41 46 45 47 49 52 53 48
47 46 47 54 54 49 38 31 34 41 42 40 31 36 32 36 35 36 36 36 39 44 40 33 28 35 38 42 42 38 40 29 30 22 21 24 26 32 41 46 47 47 46 49 48
46 40 49 54 52 43 33 32 37 43 44 38 35 34 36 36 37 35 33 38 39 38 41 40 33 29 36 34 33 35 33 34 33 30 21 20 25 39 42 43 46 48 51 48 48
44 34 50 52 37 39 36 38 44 40 43 41 41 40 37 38 36 35 32 36 41 40 35 41 34 28 31 41 44 40 36 35 27 22 27 24 30 46 43 47 49 49 46 46 48
41 41 51 50 32 34 39 39 41 40 41 41 39 42 44 38 33 36 35 43 42 40 37 40 32 26 28 34 39 33 36 39 38 33 25 21 31 49 46 50 47 45 44 44 45
41 34 42 44 43 39 37 39 36 44 44 45 43 44 39 37 39 35 34 42 43 42 46 45 35 31 26 31 33 31 33 35 34 28 30 30 34 43 46 44 46 48 42 43 44
43 36 40 33 37 41 41 39 37 37 42 45 41 41 38 36 35 35 36 39 43 45 44 40 31 33 34 36 33 33 33 34 32 34 28 34 36 43 45 44 44 47 46 45 46
41 41 43 39 42 41 40 37 38 40 41 40 38 42 41 37 39 35 36 37 39 42 41 41 31 34 31 37 35 32 36 35 35 36 36 38 37 49 48 47 46 47 47 46 46
46 48 45 42 41 38 39 39 42 44 44 46 43 41 39 42 45 47 43 42 41 42 40 37 33 33 30 35 35 31 35 36 36 40 39 32 41 48 48 45 46 47 47 47 47

GFSSW_sfc_temp_027.txt.gz
Temp
66 66 66 65 65 64 64 64 64 64 64 64 64 65 65 65 65 61 55 63 64 71 71 66 65 63 63 60 61 59 50 46 49 49 56 63 62 67 69 68 69 71 72 73 70
65 66 66 66 65 64 64 64 64 63 63 63 64 64 64 64 61 57 67 70 71 72 64 61 58 60 56 56 57 55 47 49 54 55 57 60 61 63 65 63 65 69 73 72 70
66 66 65 66 65 65 64 64 63 63 63 63 63 63 63 63 56 56 69 72 72 70 65 62 60 58 53 55 54 52 48 53 56 59 60 58 58 64 61 59 64 66 69 71 70
62 65 66 65 65 65 64 64 63 63 63 63 63 63 62 58 42 59 71 71 72 68 65 59 57 52 49 49 53 48 52 53 56 59 57 55 59 58 59 62 68 69 68 68 70
63 62 64 65 64 64 64 64 63 63 63 62 62 62 58 49 49 63 68 66 66 65 60 57 53 51 48 48 50 48 50 54 56 55 55 57 55 56 57 63 66 67 67 67 69
63 62 61 63 64 63 64 63 63 63 63 62 62 61 52 41 60 61 62 62 62 62 60 59 55 54 50 49 49 51 50 51 53 54 55 54 55 55 60 63 63 63 65 67 67
62 61 60 61 63 63 64 63 63 63 62 62 62 58 49 48 60 60 62 59 61 64 57 58 59 55 52 47 53 51 46 49 50 52 52 56 50 50 60 63 63 64 65 67 68
61 61 61 59 61 63 63 63 62 62 62 62 62 54 44 60 59 59 60 59 61 62 60 59 58 55 53 54 51 46 46 40 49 52 52 54 44 55 61 59 59 61 64 64 69
60 60 60 59 59 62 62 62 62 61 62 61 53 49 42 61 54 58 60 57 58 59 60 64 58 51 50 44 41 43 36 38 44 52 51 49 45 55 58 57 56 58 59 60 63
59 59 60 59 58 60 61 61 61 59 58 59 57 45 49 49 55 56 58 59 55 54 53 53 50 43 44 40 31 35 36 40 40 48 47 45 45 52 55 55 56 57 58 59 60
58 58 58 59 57 58 59 53 47 46 50 44 46 46 51 56 59 54 57 55 53 49 40 46 41 36 40 41 42 39 37 38 43 49 44 44 45 49 54 54 53 55 57 59 59
57 57 57 58 57 57 56 48 49 51 40 48 48 49 54 56 49 52 57 48 46 39 42 40 35 44 48 45 43 41 38 38 44 47 44 42 41 48 50 51 54 56 57 57 61
57 57 56 57 56 54 52 52 53 55 40 43 46 47 48 53 47 48 53 47 42 37 38 35 40 44 42 40 39 38 36 38 39 42 44 40 39 47 52 54 55 56 58 59 60
57 57 56 56 51 53 50 53 53 55 26 36 41 45 48 52 44 55 55 49 43 38 38 37 44 41 38 37 39 33 41 40 38 35 30 40 28 43 49 51 54 54 55 57 58
56 55 56 56 47 47 51 53 53 49 13 39 41 55 51 45 47 46 55 52 41 40 39 36 38 36 37 39 40 37 42 39 38 34 33 35 29 38 43 43 48 52 54 55 58
54 55 55 51 50 52 53 53 50 30 14 36 42 41 41 45 47 48 49 53 50 44 43 39 44 42 40 43 43 45 39 39 38 35 27 34 32 36 42 46 48 53 56 55 57
54 54 53 53 45 54 53 47 29 19 36 33 37 41 42 39 42 44 41 39 36 32 31 38 39 44 45 39 42 41 34 27 25 25 25 36 31 37 46 49 51 51 53 56 56
54 54 53 53 54 50 49 36 21 32 32 42 40 40 36 40 41 42 39 36 42 39 33 31 26 39 43 40 36 36 35 28 21 22 26 34 29 37 48 53 55 55 56 56 55
54 50 49 51 52 48 41 29 28 33 38 38 39 34 34 38 38 40 38 37 42 42 32 30 29 39 41 42 43 34 30 39 31 32 27 33 36 44 48 47 50 51 53 52 54
47 45 43 51 51 45 34 33 33 40 41 40 32 35 31 34 34 35 35 38 39 45 45 36 26 35 38 43 43 38 41 29 30 22 22 28 29 34 41 46 46 48 50 52 53
45 40 47 52 49 40 32 33 37 43 44 39 35 34 35 35 35 35 33 38 40 38 42 37 32 31 36 33 35 35 33 34 33 31 25 24 31 41 43 46 45 47 50 49 50
43 35 49 52 35 35 35 38 43 39 43 41 41 39 36 36 34 36 33 36 41 39 36 40 34 26 30 41 43 41 37 35 28 27 30 28 32 48 45 46 47 47 50 48 48
40 41 49 47 32 34 39 38 41 40 40 40 39 42 42 37 32 35 35 42 41 40 36 39 32 25 28 34 40 33 36 36 34 33 28 25 32 49 47 48 48 47 49 47 46
40 35 40 43 42 38 36 36 37 43 41 44 42 44 40 38 41 35 35 41 42 42 46 45 35 31 28 32 35 31 34 35 32 28 31 31 35 43 46 47 49 47 49 48 46
42 36 39 33 36 40 41 40 35 36 41 44 40 42 40 36 37 36 37 38 40 43 43 40 31 34 35 36 35 33 33 33 31 33 29 36 36 42 45 47 47 47 49 48 46
41 40 41 39 41 41 40 35 37 38 39 39 37 41 42 37 38 33 36 36 37 38 38 42 32 34 32 37 37 32 36 35 34 35 36 37 36 47 47 48 47 47 46 47 48
45 47 44 41 40 40 37 37 38 42 42 45 43 42 40 43 45 45 46 45 44 39 39 38 34 33 30 38 36 32 36 35 36 38 38 32 40 47 46 47 47 46 44 47 49

GFSSW_sfc_temp_030.txt.gz
Temp
65 67 66 66 66 65 65 65 64 64 64 64 64 65 65 65 65 62 60 70 71 72 72 72 72 72 72 69 70 70 61 58 61 62 65 71 69 77 77 75 77 80 80 80 81
65 65 66 66 66 65 65 65 64 64 64 64 64 64 64 64 66 58 70 71 72 72 71 68 66 68 67 66 67 65 59 61 68 69 66 70 69 71 71 73 75 77 81 81 79
64 64 64 65 66 65 65 64 64 64 63 63 63 63 63 66 61 63 71 72 72 72 72 71 69 66 62 65 64 63 59 67 64 67 67 67 67 71 69 68 75 76 78 79 79
63 63 63 63 64 65 65 64 64 63 63 63 63 63 63 65 50 66 70 70 72 72 70 67 65 60 59 58 63 56 63 64 64 66 64 64 68 66 69 72 79 76 78 78 79
62 62 62 62 62 64 64 64 64 64 63 62 62 62 62 56 59 69 67 69 71 69 65 62 61 60 56 58 59 57 61 62 64 63 63 65 63 64 67 74 77 76 76 77 79
61 61 62 61 61 61 63 64 64 64 63 62 62 62 59 50 67 69 69 69 69 66 65 65 62 62 58 57 57 59 58 60 61 62 63 59 62 64 67 73 73 73 74 77 78
61 61 61 61 61 60 62 63 64 63 63 63 62 63 55 57 68 68 68 67 67 69 60 65 64 59 60 55 60 58 53 58 60 61 60 62 56 58 68 71 70 72 75 75 78
61 60 60 60 60 59 60 62 63 62 62 63 62 61 52 64 68 65 67 66 68 69 67 68 66 60 60 60 56 52 53 49 58 58 60 58 52 64 69 69 67 70 73 75 76
60 59 59 60 60 59 58 61 62 62 62 62 59 56 51 64 59 65 67 63 65 67 68 67 64 55 57 52 49 51 47 47 52 61 59 56 54 63 65 66 65 68 70 72 73
59 58 57 58 59 58 57 61 62 61 60 61 61 50 55 54 60 61 66 66 61 61 59 58 57 52 53 49 43 46 45 49 48 55 55 53 54 61 64 64 64 67 69 70 71
58 57 57 58 58 58 55 55 47 46 52 51 52 51 54 60 63 58 64 62 61 57 49 53 46 43 49 51 53 47 46 45 49 55 52 51 52 57 62 63 62 65 67 69 71
57 57 58 58 57 58 53 48 52 57 44 53 54 55 57 59 51 55 63 55 53 47 51 46 40 52 52 51 48 46 43 45 50 54 51 50 49 55 58 59 62 64 66 68 70
57 57 58 57 56 54 50 50 60 63 49 47 52 52 54 56 51 52 58 55 51 46 47 45 46 50 48 47 44 43 39 41 43 51 52 48 47 56 62 63 65 65 66 68 68
56 56 57 56 51 51 49 56 53 58 37 40 44 50 54 56 49 60 61 56 49 46 46 46 52 46 45 43 46 41 49 46 44 41 35 47 37 51 58 60 62 65 66 67 68
56 54 55 55 49 48 49 54 51 50 27 43 43 57 55 50 51 49 61 55 46 45 45 42 43 43 40 43 47 42 48 45 44 40 38 41 31 48 53 53 58 64 67 69 70
54 53 54 51 50 53 54 51 48 33 27 37 44 42 42 48 49 50 50 56 54 47 47 47 51 48 48 49 49 49 44 43 44 39 29 40 36 43 52 57 60 63 67 69 70
54 54 53 54 48 56 54 45 31 30 42 35 38 42 43 41 44 46 43 40 40 33 34 43 44 48 48 42 46 43 35 31 28 27 31 47 40 44 56 58 60 62 64 67 68
54 55 55 55 57 53 48 36 28 37 38 44 43 43 38 43 43 43 40 37 47 44 37 35 34 44 47 44 42 39 39 33 26 31 36 44 36 47 59 62 64 62 64 64 65
52 51 51 54 54 50 40 30 33 40 43 39 41 36 36 41 42 41 41 41 46 45 34 35 33 45 48 49 46 36 32 44 32 37 30 39 47 55 59 59 59 60 59 61 62
46 47 48 54 55 45 35 33 38 46 46 46 36 40 34 37 39 40 41 46 45 50 49 42 32 43 45 47 47 41 46 31 31 24 25 37 41 43 51 54 56 56 58 60 60
45 40 49 55 51 39 33 34 41 48 49 44 40 38 41 39 42 40 41 44 48 47 50 45 38 37 40 37 39 37 33 34 38 35 28 29 39 55 54 57 55 55 58 57 57
43 34 48 52 36 37 36 41 46 45 48 46 47 45 43 43 40 41 40 43 49 48 42 46 38 31 35 48 50 49 42 39 29 29 32 33 35 57 56 56 55 57 58 58 58
39 41 48 49 34 35 39 42 45 45 45 45 43 47 47 43 38 43 43 47 48 46 44 46 35 29 34 40 45 38 42 43 38 36 30 28 36 56 58 56 58 56 57 58 57
42 34 40 43 44 39 38 39 40 47 46 48 45 48 45 42 44 39 41 45 48 48 48 48 40 34 33 36 40 33 38 37 33 29 34 34 39 48 52 53 57 59 60 57 55
44 37 41 34 38 41 44 42 40 40 46 48 44 45 44 38 38 37 43 44 45 47 47 45 31 36 37 40 38 36 36 36 32 34 30 40 42 48 52 54 56 58 56 55 53
40 41 43 43 44 44 44 43 43 41 44 42 43 45 45 40 41 40 42 43 44 46 45 45 33 36 32 40 41 35 38 38 37 36 35 38 39 52 55 56 53 54 55 54 51
46 46 45 43 41 42 43 44 44 47 46 49 47 45 43 45 48 48 49 47 46 45 42 42 35 33 30 40 39 35 38 38 38 40 40 33 43 52 51 51 51 51 49 51 51

GFSSW_sfc_temp_033.txt.gz
Temp
64 65 65 66 66 66 66 65 65 65 64 64 64 64 65 64 65 66 61 72 75 73 71 76 75 75 76 72 75 75 63 59 63 67 70 79 74 81 83 79 82 85 85 84 86
63 64 64 64 65 65 66 65 65 64 64 64 64 64 64 64 66 62 72 73 72 73 71 70 69 72 69 69 70 66 60 63 74 75 73 76 74 77 75 75 78 81 85 85 84
62 62 63 63 64 64 65 65 65 64 64 63 63 64 64 65 60 64 74 73 73 73 75 75 74 70 65 69 67 66 60 70 73 73 73 72 73 76 72 70 78 78 82 84 83
62 62 62 63 63 63 63 64 65 64 64 63 63 63 63 67 50 70 71 72 72 73 72 71 69 63 62 60 68 61 67 70 71 71 68 66 73 71 73 73 82 84 84 82 81
62 62 62 62 62 62 62 63 64 64 64 63 63 63 63 59 62 73 68 70 73 70 66 67 65 65 60 64 66 61 64 69 69 69 68 68 66 68 70 77 80 81 81 79 80
62 61 61 61 61 61 61 62 63 64 63 63 63 62 61 51 72 73 73 72 74 71 64 66 64 69 63 63 61 65 65 65 67 66 67 63 65 67 70 76 76 77 77 79 80
62 60 61 60 60 61 61 61 62 63 63 63 63 64 58 59 72 72 71 72 73 71 64 67 67 63 63 58 64 62 56 61 63 65 63 66 58 61 70 74 73 75 77 78 80
61 60 60 59 59 60 60 61 60 61 63 63 63 64 54 68 73 68 71 70 72 74 71 71 69 63 60 63 60 55 58 51 64 64 66 62 52 69 74 73 71 73 76 77 79
60 60 59 59 58 59 59 59 59 60 63 63 61 60 55 65 62 69 71 66 68 70 70 70 65 57 59 53 50 54 50 54 58 65 62 59 56 68 71 70 69 72 74 76 78
59 58 58 58 58 58 58 58 59 59 60 63 63 53 59 57 63 67 71 70 64 63 62 61 59 50 49 47 45 51 51 54 54 61 59 56 57 64 69 68 68 70 72 73 75
58 57 57 57 57 57 56 52 50 48 51 51 53 55 58 63 67 62 68 65 63 60 51 56 49 46 54 57 58 56 51 51 57 61 56 55 56 61 66 67 66 68 69 71 73
57 57 57 57 57 58 54 45 48 52 42 56 58 58 62 64 54 59 68 57 53 47 53 47 42 55 58 56 53 52 49 49 55 58 55 54 54 60 63 64 66 66 67 69 73
58 58 56 56 56 56 52 49 54 52 45 50 57 56 56 60 55 54 61 59 52 49 48 46 51 54 53 50 48 49 46 46 45 52 55 53 50 58 66 67 68 68 69 70 71
58 57 54 55 51 56 52 53 54 50 35 40 46 53 56 58 50 63 63 59 53 48 49 48 56 50 49 47 50 44 54 50 47 44 41 50 39 53 61 63 66 68 69 70 71
56 56 55 53 50 50 54 53 51 47 28 45 46 62 58 53 54 53 64 57 49 51 50 45 47 47 44 47 52 45 51 48 47 44 40 44 37 49 58 56 61 65 69 72 74
56 54 54 50 50 56 57 51 48 31 28 38 44 44 45 51 51 53 53 58 58 50 50 51 55 51 50 52 52 51 47 45 45 40 30 42 44 47 55 60 65 69 71 71 73
54 54 54 53 50 60 55 45 31 28 45 35 39 43 44 43 45 46 44 43 42 34 34 44 46 50 53 46 49 47 39 34 30 28 31 51 44 46 58 62 63 64 68 69 70
53 54 55 57 60 58 48 35 28 37 40 47 43 44 38 43 44 46 43 38 47 46 40 34 35 47 49 46 44 42 41 34 29 34 39 50 39 50 63 65 66 67 68 68 68
53 52 50 55 58 55 41 30 33 43 45 42 42 37 38 44 44 44 44 42 47 47 38 38 36 50 51 52 49 41 33 46 35 39 33 41 49 58 62 63 65 65 65 64 66
46 46 47 55 57 47 37 35 36 49 49 48 38 42 35 39 41 42 40 49 46 52 54 45 34 47 49 51 50 45 49 32 32 25 28 40 44 46 55 59 62 62 61 63 64
44 42 48 55 54 40 34 36 42 51 52 47 44 41 41 40 43 41 42 48 53 51 53 47 42 39 43 40 42 40 36 38 40 37 31 31 40 59 56 58 59 60 62 62 62
43 34 49 57 38 39 36 39 48 48 51 49 52 49 45 46 45 45 45 48 54 53 44 49 41 33 38 50 52 50 41 41 31 33 34 33 35 58 58 60 59 60 62 63 63
40 40 51 49 35 36 40 42 47 46 48 48 47 50 51 48 42 47 48 51 53 50 47 48 37 31 34 43 49 42 45 46 41 37 30 28 37 58 57 58 60 60 62 64 62
42 33 41 44 45 42 39 39 40 49 50 51 50 52 49 46 49 45 44 48 51 51 48 51 42 35 34 37 42 33 40 42 35 30 35 36 40 50 54 55 56 59 61 63 63
47 39 44 36 43 42 44 42 42 43 50 52 48 50 48 42 43 42 46 47 49 50 49 47 32 38 40 42 40 38 39 40 33 34 30 38 39 47 51 54 57 59 60 60 59
40 41 45 45 48 46 44 40 44 45 48 46 47 49 49 45 45 42 44 45 46 48 46 46 35 37 33 43 44 40 45 42 39 38 37 36 35 47 52 56 55 56 58 57 58
46 47 44 45 46 47 45 47 47 50 49 52 51 49 46 48 50 50 52 52 51 44 43 41 36 35 32 42 42 38 38 38 39 41 39 34 44 53 51 53 53 50 51 53 55

GFSSW_sfc_temp_036.txt.gz
Temp
63 63 64 64 64 65 65 66 65 65 65 65 64 64 65 64 64 64 59 69 72 74 72 73 73 72 72 67 70 70 53 51 55 59 63 73 69 74 75 72 74 73 72 76 80
63 63 63 63 64 63 64 64 66 65 65 64 64 64 64 64 62 61 71 75 74 74 69 67 65 69 63 64 64 59 51 55 65 67 66 72 69 69 67 69 68 72 78 79 78
63 63 63 63 63 63 63 64 64 65 65 64 64 64 64 64 58 61 74 74 73 73 71 71 71 68 60 63 62 60 53 63 66 70 69 66 66 71 66 62 68 69 73 76 76
63 63 63 62 63 62 63 62 63 64 64 64 64 63 63 63 47 66 73 75 73 71 69 68 66 60 57 56 64 56 63 65 65 69 66 63 67 64 66 66 73 73 75 74 73
62 62 62 62 62 62 61 62 63 63 64 64 63 63 61 55 59 69 70 70 70 67 64 63 61 60 55 59 62 58 62 66 67 66 65 67 62 61 63 69 73 74 74 71 70
62 62 61 61 61 61 61 61 62 62 62 63 63 63 58 49 72 74 73 72 70 68 63 64 64 65 61 61 59 62 62 62 64 64 64 61 60 61 63 69 69 71 70 70 71
61 61 61 60 60 60 60 61 61 62 62 63 63 62 57 56 72 72 72 70 73 71 62 66 66 61 62 56 62 60 52 57 59 60 59 61 55 56 65 67 66 67 69 71 71
60 60 60 60 60 59 59 60 60 60 60 62 63 60 51 69 71 68 71 69 72 72 70 67 66 62 59 61 58 53 53 44 58 60 62 58 46 60 66 65 63 65 67 69 71
59 59 59 59 58 59 58 59 60 60 60 61 58 56 51 64 61 68 70 65 68 69 68 70 65 56 57 49 47 51 41 46 52 60 59 56 48 60 65 62 61 62 64 69 70
58 58 58 58 58 58 57 58 59 59 59 60 62 50 58 55 63 67 70 69 63 63 59 57 54 50 50 47 37 42 43 46 48 56 55 52 51 58 63 63 60 61 62 63 66
57 57 57 58 57 56 55 53 49 47 51 48 50 55 57 64 66 62 67 64 62 57 49 54 46 41 45 49 51 51 48 46 51 58 52 50 51 55 60 60 60 61 62 64 67
57 57 58 57 56 56 54 46 47 48 43 53 56 59 62 62 53 59 67 55 53 45 52 47 40 52 56 55 51 49 44 44 50 56 51 48 47 53 57 59 61 61 62 63 64
57 58 57 56 54 53 51 50 53 49 42 46 55 56 56 60 53 53 61 57 50 47 46 44 48 55 52 50 46 45 41 42 43 48 49 46 43 49 57 59 61 63 64 65 64
58 56 56 55 48 52 49 55 52 49 33 39 45 53 56 58 51 62 63 58 51 44 48 46 54 51 47 46 48 40 50 49 46 40 32 45 29 43 51 54 58 57 58 60 62
56 57 56 56 46 45 52 54 51 47 24 41 45 62 57 52 52 53 62 58 49 49 49 42 46 45 43 46 50 43 50 46 45 38 37 36 29 38 49 48 53 56 57 59 61
56 56 55 51 50 52 56 53 46 30 24 36 43 45 46 51 51 53 53 58 57 51 51 48 55 49 47 51 50 50 45 44 42 39 26 34 35 35 43 48 52 57 57 61 59
56 55 53 55 46 55 54 44 29 25 38 34 38 44 45 44 45 47 44 42 39 33 34 43 44 50 51 44 49 47 39 24 23 25 22 43 36 40 51 56 57 56 57 57 59
55 54 55 56 57 55 48 36 26 34 35 46 43 43 40 44 43 44 41 38 46 43 37 32 32 44 49 45 41 41 39 25 21 22 28 42 32 40 54 58 59 59 58 60 55
54 51 50 52 55 53 41 28 30 36 44 40 42 36 37 43 43 42 40 40 45 46 36 35 36 49 49 50 48 39 32 40 29 32 22 32 40 49 56 56 58 57 58 56 55
47 47 46 53 56 48 37 34 34 43 48 46 36 41 34 38 39 40 39 47 45 50 50 43 34 45 48 51 49 43 46 31 29 18 19 30 34 39 46 50 53 53 51 54 56
46 41 47 55 53 40 32 36 40 45 51 44 42 41 42 39 42 40 41 48 50 49 51 46 40 36 41 38 37 38 35 37 36 32 23 23 30 44 47 50 50 52 52 53 52
43 34 49 53 35 37 36 40 44 43 53 51 51 47 44 44 42 42 41 47 53 51 44 47 40 27 33 46 47 46 39 37 27 25 30 28 31 54 53 50 54 53 54 55 58
41 41 50 47 33 36 38 40 43 45 48 49 48 51 50 45 39 46 46 50 51 49 46 47 34 24 28 38 44 37 42 43 39 35 28 25 31 54 52 54 56 54 54 58 58
43 34 42 44 44 39 37 40 40 49 50 52 50 52 49 45 49 44 42 47 49 50 50 49 40 30 24 31 38 31 37 40 37 29 31 32 36 44 49 51 53 54 57 55 56
47 39 43 35 40 41 42 43 41 43 50 52 49 50 48 42 42 42 45 44 48 47 46 43 31 33 36 39 37 35 36 38 33 35 30 35 36 42 45 45 49 51 55 55 54
40 40 45 44 47 45 42 39 43 46 47 46 45 48 49 44 42 41 44 45 42 46 44 44 31 33 29 39 39 35 40 41 42 39 38 38 37 48 50 51 50 49 50 50 53
45 47 43 45 46 45 44 44 47 48 48 51 50 48 46 46 48 48 49 50 49 44 42 40 33 33 25 38 38 34 40 41 39 42 40 35 40 46 47 48 45 45 46 46 48

GFSSW_sfc_temp_039.txt.gz
Temp
64 64 64 64 64 64 64 64 65 66 65 65 65 65 65 64 64 61 56 63 67 72 72 69 68 66 65 60 62 61 46 43 48 52 55 66 62 70 71 68 68 68 67 72 76
64 64 64 63 63 63 63 63 64 64 65 65 65 64 64 64 59 56 67 72 74 74 66 63 61 63 55 57 58 53 46 48 57 59 58 64 61 65 64 64 61 67 70 74 75
63 63 64 63 63 63 63 62 62 63 63 65 64 64 64 63 54 56 72 73 74 74 68 66 64 62 54 55 54 53 46 56 60 64 63 61 62 64 61 57 64 65 67 69 71
63 63 63 63 62 62 63 62 62 63 63 63 64 64 63 59 42 62 73 74 74 71 66 63 60 54 52 51 57 49 56 59 62 64 62 58 62 59 58 60 66 66 69 70 69
62 62 62 62 61 61 62 62 62 62 63 63 63 63 59 51 54 67 71 74 71 66 61 59 54 55 50 52 55 51 55 61 62 61 61 62 57 57 58 63 67 67 67 66 68
61 61 60 61 61 61 61 61 62 62 61 61 62 63 53 44 67 69 67 66 66 63 60 60 57 59 54 53 52 56 56 56 59 58 59 58 57 56 58 64 63 65 65 63 66
59 60 60 60 60 60 60 61 60 61 61 61 62 60 53 52 67 68 70 66 67 65 59 62 62 57 56 52 57 55 49 53 54 56 55 59 51 52 60 61 61 60 61 66 65
60 58 59 59 58 59 59 59 59 59 60 60 61 58 47 67 67 67 66 65 68 67 66 67 64 60 57 56 54 49 47 39 52 56 57 56 44 55 60 57 58 61 63 63 66
59 58 58 59 58 58 58 58 59 59 60 60 56 53 47 66 60 65 65 62 64 67 65 67 60 54 56 48 45 45 35 40 46 57 56 52 44 57 60 59 55 57 61 63 65
58 58 56 58 58 57 57 57 58 58 57 58 57 47 53 53 61 64 65 65 60 59 58 56 53 46 46 44 34 37 37 39 42 52 52 49 47 53 58 56 55 55 56 57 60
57 57 58 58 57 57 53 48 44 43 49 47 48 50 56 61 65 60 64 62 59 53 44 52 44 40 41 44 45 47 45 41 46 53 47 46 46 50 55 54 57 59 56 58 62
57 58 58 57 57 56 50 43 44 45 39 52 52 54 60 62 52 57 64 53 49 43 47 44 40 50 53 51 49 44 41 39 45 50 46 45 44 50 52 54 57 57 54 56 61
58 58 57 56 56 51 46 46 50 51 38 45 50 52 54 58 51 52 59 54 47 44 45 39 46 53 50 47 46 43 37 37 39 44 44 41 38 43 50 53 56 59 61 61 61
57 57 57 56 49 48 45 50 51 49 32 38 44 51 56 56 48 59 61 55 51 45 46 46 50 49 46 44 45 36 46 45 43 36 28 40 25 35 46 50 52 51 52 58 60
57 57 57 56 47 45 50 49 51 45 21 39 44 60 55 49 50 51 60 57 45 45 45 40 45 45 42 44 47 41 47 43 41 34 31 32 26 33 41 44 48 51 52 53 55
57 56 56 50 49 51 52 50 46 29 21 36 44 45 43 48 49 51 53 56 55 48 48 45 52 47 45 48 47 48 42 39 37 33 20 30 29 29 39 45 48 48 54 55 54
56 56 53 53 45 53 50 43 27 23 35 34 38 44 43 43 44 45 44 41 37 33 33 43 44 48 49 41 44 44 33 18 22 24 20 35 29 33 46 51 52 53 54 53 57
55 54 51 53 51 52 44 33 19 33 33 42 43 44 38 43 42 43 41 34 41 39 30 27 25 41 46 41 37 37 35 20 17 18 23 36 28 37 50 56 54 58 56 58 55
54 46 48 48 52 47 40 24 28 33 39 38 40 35 35 42 41 41 40 37 41 41 31 28 32 47 48 48 45 36 26 37 25 26 17 28 35 45 51 50 50 50 52 53 49
45 44 46 50 50 45 35 31 32 39 44 44 33 38 33 38 36 36 38 43 44 46 44 40 32 43 47 50 47 40 42 28 23 12 16 24 28 35 41 44 49 49 49 49 50
41 40 47 50 49 40 29 33 34 45 47 44 40 39 39 38 38 38 37 45 47 45 48 45 39 35 43 37 35 36 37 38 31 27 20 20 27 41 44 44 45 47 49 49 51
39 32 46 48 34 37 35 39 38 40 47 46 46 42 40 41 39 40 36 42 49 49 40 46 38 28 31 41 44 40 36 33 21 22 24 24 29 50 51 50 50 53 56 58 55
36 36 49 47 32 34 39 39 40 44 48 48 44 46 46 41 35 43 41 47 51 48 45 44 31 19 27 33 39 35 39 39 35 32 23 25 30 48 50 51 53 53 53 55 55
37 29 37 42 42 36 37 36 37 48 48 49 47 49 46 43 44 40 40 45 48 48 51 47 35 27 22 29 34 27 34 37 34 28 29 31 35 43 46 49 51 51 50 52 55
42 34 39 31 38 40 41 41 41 42 49 51 48 48 46 41 42 40 42 41 45 47 44 40 25 29 34 36 32 33 34 36 33 35 30 35 37 43 46 47 48 50 48 51 50
39 39 41 36 44 41 41 40 42 43 45 43 43 45 45 42 40 41 42 40 38 40 39 40 27 28 26 36 36 32 37 37 37 38 37 38 36 48 51 51 48 46 47 47 47
45 46 42 40 40 40 38 43 43 44 47 47 47 44 41 43 44 43 45 45 45 39 38 37 30 24 19 34 34 31 37 39 40 42 41 36 42 49 47 47 45 43 44 45 46

GFSSW_sfc_temp_042.txt.gz
Temp
64 64 64 64 64 64 64 63 63 64 64 65 65 65 65 64 64 59 54 61 64 73 72 68 66 64 62 57 60 57 44 40 45 48 52 60 58 65 70 64 64 64 66 70 74
64 64 64 64 63 63 63 64 62 63 63 63 65 65 64 64 58 54 65 71 72 73 64 61 59 60 53 54 55 50 42 45 54 55 53 60 58 61 62 62 59 62 68 71 72
63 63 63 64 63 63 62 63 63 63 63 63 63 65 64 62 52 54 70 71 72 73 68 65 63 60 52 53 52 50 44 53 57 59 59 59 58 60 57 57 59 59 63 67 67
61 62 61 61 62 62 62 62 62 62 62 62 62 63 63 58 41 61 71 72 73 70 65 61 58 52 50 49 54 46 54 57 58 61 58 56 60 56 58 60 62 61 63 67 68
60 60 60 61 60 61 61 62 62 62 62 62 62 62 58 49 52 68 71 72 71 65 61 57 53 52 49 51 52 47 51 57 59 59 57 60 57 56 57 62 64 63 65 65 64
60 60 59 60 60 59 60 61 62 62 61 62 62 61 53 43 65 68 66 68 67 62 59 58 55 56 52 51 50 53 55 55 56 56 56 56 55 55 56 61 61 62 61 62 64
60 59 59 58 59 59 59 60 60 60 60 61 61 59 51 51 66 66 67 62 63 63 58 60 59 55 55 50 57 54 49 50 53 54 53 56 52 50 59 60 58 58 59 61 62
59 59 59 59 58 58 59 59 59 59 59 60 61 55 47 64 65 63 65 63 65 65 63 65 63 57 54 54 52 48 46 40 50 53 55 54 45 53 58 54 55 56 57 58 62
58 58 58 57 58 58 58 58 58 59 59 60 54 52 46 65 59 63 64 61 63 63 63 65 61 54 53 45 40 42 35 38 44 54 53 49 43 55 62 56 53 55 55 57 60
58 57 57 58 58 57 57 57 57 57 55 58 55 46 52 52 60 63 63 63 59 58 56 55 52 47 48 44 34 36 35 37 40 49 49 46 45 52 54 54 54 54 55 56 57
58 58 58 58 58 57 52 46 42 42 45 46 48 48 52 59 63 59 62 59 58 52 44 50 44 40 45 48 46 44 43 43 43 50 45 44 43 47 53 51 51 55 56 56 58
58 58 58 57 57 56 50 41 42 45 37 51 50 51 58 60 51 56 63 52 48 43 48 44 41 46 49 48 46 43 42 40 44 48 45 43 43 49 52 53 55 57 58 57 59
58 57 57 57 56 50 47 44 49 49 37 45 48 49 54 58 50 50 58 53 47 43 42 42 46 52 50 47 45 44 36 36 38 43 42 40 42 43 48 51 53 57 58 58 58
57 57 57 57 50 49 45 49 50 51 31 39 42 49 55 55 47 58 60 54 48 42 45 42 49 48 47 45 43 38 44 43 40 36 28 39 26 34 43 45 48 49 48 52 55
57 57 57 56 47 44 49 50 50 45 13 40 42 57 55 49 49 51 60 56 44 46 46 40 43 43 41 43 47 39 45 41 39 32 29 29 26 33 39 42 46 48 49 51 51
56 56 56 51 47 50 51 49 44 28 17 36 43 43 44 47 48 50 53 56 55 48 48 43 50 46 45 47 46 47 41 37 35 30 19 28 28 30 36 42 44 48 52 53 54
54 55 53 52 45 53 51 44 24 21 33 33 37 43 42 41 43 46 44 40 38 34 33 42 42 46 48 40 44 41 32 20 17 15 20 31 27 30 41 47 47 50 52 53 51
55 54 51 52 52 49 44 32 20 30 33 41 42 42 37 43 42 44 41 36 41 38 33 29 25 41 45 41 37 37 34 21 17 18 22 33 26 36 45 49 50 50 50 51 52
53 48 47 47 50 47 37 22 26 31 37 40 40 36 36 40 41 41 40 36 40 39 31 26 29 44 46 46 43 35 27 36 24 23 16 26 31 41 45 45 47 48 50 49 50
43 44 45 51 50 45 34 31 32 35 43 44 33 36 32 36 36 38 39 42 41 44 42 38 27 42 45 48 47 39 41 25 19 12 15 22 25 33 39 42 46 46 47 50 51
40 40 45 50 49 39 30 33 35 41 43 41 36 36 37 37 37 38 38 42 45 42 44 41 34 34 43 36 34 37 33 32 29 25 19 18 26 39 41 42 44 45 47 49 50
37 31 46 50 34 37 33 36 36 39 45 43 44 42 39 40 36 36 35 38 46 45 39 45 34 21 34 39 42 38 34 32 19 19 21 22 27 46 42 43 48 51 52 54 55
35 38 47 47 33 31 39 38 39 42 43 44 42 43 43 39 34 38 39 46 47 47 41 42 29 19 26 33 37 33 36 36 33 31 18 22 28 45 44 52 54 53 53 54 54
35 27 39 42 42 37 34 36 38 45 43 47 43 46 43 39 41 38 37 44 48 49 50 46 33 27 23 26 30 25 33 35 34 27 24 27 34 42 46 49 51 50 51 50 51
39 33 37 32 39 40 40 40 40 40 46 47 45 45 43 38 39 37 40 41 46 48 45 39 26 28 31 35 31 31 33 33 27 34 25 34 34 41 45 48 48 50 49 49 48
38 38 42 39 44 38 39 38 40 42 42 41 40 43 43 39 38 37 39 38 38 40 38 38 24 27 26 35 34 30 34 35 36 37 37 36 35 47 50 52 48 44 44 44 46
44 46 42 39 38 35 36 40 42 43 45 45 44 42 40 42 43 43 44 44 42 38 36 35 28 25 21 32 31 27 34 36 37 38 40 35 42 49 48 47 42 41 41 42 42

GFSSW_sfc_temp_045.txt.gz
Temp
64 64 64 64 64 63 63 63 64 64 64 64 63 65 65 65 63 58 53 60 64 71 72 66 65 63 61 56 58 54 42 39 45 47 50 56 56 62 65 62 63 63 62 67 70
63 63 63 63 62 63 62 62 63 64 63 63 63 62 65 64 57 52 63 69 71 72 64 60 57 59 52 53 54 49 40 44 52 53 51 56 56 57 59 58 59 61 66 67 68
62 62 62 62 61 61 62 62 62 62 63 63 63 62 64 62 51 52 69 69 72 72 66 63 62 58 51 51 50 48 43 51 55 57 57 55 56 58 54 55 55 56 62 65 64
62 61 61 61 61 61 61 61 61 63 63 62 63 62 62 58 41 61 71 71 72 70 65 60 57 52 48 47 52 45 52 54 57 59 56 53 58 53 56 58 60 60 62 65 64
61 61 60 60 60 60 60 60 60 62 62 62 62 62 57 49 50 66 70 71 69 65 60 56 52 51 48 49 50 47 50 55 57 57 55 57 54 54 54 61 60 62 63 62 62
60 60 59 60 59 58 59 60 60 61 61 61 61 61 53 43 63 67 66 67 66 61 58 57 54 55 51 50 49 52 53 54 55 55 55 54 53 53 53 59 59 59 60 60 61
60 59 59 59 59 59 59 59 59 60 60 60 61 56 50 50 63 65 65 65 65 63 57 59 58 55 53 49 55 52 47 48 51 53 52 54 50 48 57 59 57 60 56 58 60
59 59 59 58 58 58 58 59 58 59 59 60 60 53 47 63 65 62 64 61 61 61 61 62 62 57 53 53 51 47 45 39 49 53 54 53 44 53 56 53 53 54 58 56 58
59 58 58 58 58 58 57 58 58 58 59 60 54 49 46 65 57 62 62 60 60 59 61 66 59 52 51 45 39 40 34 37 44 52 51 48 41 53 58 55 53 54 57 55 57
59 59 58 58 58 58 57 57 57 56 55 56 54 45 50 50 58 61 62 62 58 56 54 55 52 45 45 42 32 35 35 35 38 46 47 44 42 51 54 51 50 51 54 54 56
58 58 58 58 57 57 52 45 42 40 44 41 45 47 51 59 63 58 61 59 57 51 45 50 44 41 44 45 43 42 40 38 41 48 43 43 42 47 51 49 48 52 54 55 57
57 58 57 57 57 56 49 43 44 44 36 46 48 52 54 58 49 54 62 52 50 44 45 45 41 47 49 49 46 45 40 36 42 46 43 41 41 48 51 52 54 55 56 57 59
58 57 57 57 57 50 44 44 49 47 37 44 47 48 50 57 49 49 57 53 48 43 44 41 45 50 47 45 42 41 36 35 37 42 40 38 38 42 48 49 50 53 55 57 57
57 57 57 57 49 48 45 50 48 49 22 35 39 47 50 54 46 57 60 53 48 41 45 45 48 47 46 43 43 37 45 42 39 36 28 38 26 35 42 44 46 49 49 50 52
56 55 56 56 46 44 48 50 50 45 5 39 42 53 54 48 48 49 57 54 43 43 44 39 43 43 42 45 47 40 44 41 38 31 28 29 26 34 39 43 45 47 48 50 52
56 56 54 50 48 51 51 50 44 22 17 35 42 41 43 47 47 49 52 56 54 47 47 41 48 46 44 45 47 47 40 35 32 29 19 27 27 31 37 39 43 47 50 50 50
55 55 51 51 43 52 50 44 21 13 34 33 36 43 41 42 43 46 44 42 38 33 33 40 41 46 47 40 43 40 33 19 17 15 20 29 27 33 40 44 45 46 47 48 49
55 53 51 49 51 51 44 31 18 30 31 41 42 42 37 42 43 44 39 37 42 40 33 29 28 40 43 40 37 35 33 22 19 17 21 30 25 35 41 45 45 47 46 48 49
53 45 45 48 50 48 39 25 26 30 34 38 40 35 35 39 41 40 40 38 40 39 31 27 29 42 45 44 42 34 25 34 24 21 17 26 31 40 43 44 45 46 48 48 49
41 42 43 49 49 44 34 30 31 34 37 42 33 36 32 34 36 35 38 42 40 42 41 36 28 41 43 46 44 38 39 26 19 12 15 22 24 31 36 39 43 45 45 47 48
39 35 44 48 46 36 29 32 34 41 45 40 34 34 35 34 38 36 37 41 44 41 42 39 34 35 42 35 34 35 30 30 29 24 18 17 27 37 38 40 42 44 47 46 48
36 27 45 46 31 35 34 36 37 40 44 41 42 41 37 37 37 38 36 39 46 44 38 40 32 31 35 38 40 38 34 31 20 19 25 25 25 42 40 41 45 50 54 55 55
33 34 45 43 32 34 37 38 40 41 41 41 40 42 41 37 33 37 38 45 45 44 40 41 28 19 25 33 36 32 35 34 30 26 15 18 26 43 42 48 50 52 53 53 53
35 29 35 40 42 37 35 37 37 42 42 44 42 44 41 38 39 36 37 42 46 47 50 45 31 27 21 26 30 25 32 33 30 20 23 25 29 41 44 46 49 52 50 49 51
36 34 39 30 37 40 40 41 39 37 44 45 42 43 41 36 37 35 38 40 46 48 42 39 26 27 31 35 30 31 33 31 26 32 22 30 32 40 45 48 50 49 47 47 47
39 38 39 35 38 36 38 37 38 40 40 40 39 42 42 37 36 35 38 37 38 42 40 38 25 27 25 34 32 29 33 33 33 34 34 36 35 47 51 51 50 45 44 43 43
43 44 41 37 35 34 36 42 42 42 44 44 43 40 39 40 41 43 43 43 42 38 35 35 28 25 21 30 31 27 32 33 35 36 40 33 41 47 48 49 46 41 41 41 41

GFSSW_sfc_temp_048.txt.gz
Temp
62 63 63 62 63 62 62 63 63 63 63 64 64 64 62 65 64 58 52 60 63 70 70 65 63 62 60 55 56 52 42 38 45 46 50 54 53 59 61 58 60 61 60 65 65
63 63 63 62 62 62 62 61 62 62 63 63 63 63 62 62 56 52 62 68 70 71 65 59 56 58 51 53 53 48 40 43 51 53 52 54 54 54 56 56 56 59 64 64 66
62 62 62 62 62 61 61 61 62 61 63 63 63 63 63 60 50 50 68 68 70 71 66 63 61 58 50 50 49 48 42 50 53 56 57 53 53 56 52 52 56 55 59 64 61
61 61 61 62 61 61 60 60 60 61 62 62 63 62 62 56 41 59 70 70 70 69 64 60 57 51 47 46 51 44 51 53 56 58 55 51 54 51 54 57 60 59 59 61 61
61 61 60 60 60 59 59 59 60 60 61 62 62 62 56 47 49 63 70 69 68 65 60 56 54 51 47 48 50 46 49 54 56 57 54 55 52 53 53 59 60 61 60 60 60
61 60 59 60 59 59 59 59 59 59 60 61 61 60 50 42 63 64 65 66 65 62 59 57 55 55 51 49 48 51 52 52 54 54 54 52 51 51 53 54 56 57 59 59 59
60 60 59 59 59 59 58 59 59 59 59 60 60 57 48 50 63 62 64 63 65 63 56 59 58 55 53 48 53 51 46 48 50 52 51 52 48 47 55 57 56 56 54 59 59
60 60 59 58 59 58 58 58 58 58 59 59 59 54 45 62 62 59 62 58 61 61 62 61 61 56 52 53 49 46 44 37 47 51 52 53 41 51 56 52 52 52 52 53 58
58 59 59 59 59 58 58 58 58 58 59 59 51 49 45 62 54 59 60 56 57 58 58 65 58 52 50 43 39 41 32 36 44 50 49 47 39 50 53 49 50 51 50 53 54
58 57 58 58 58 58 57 57 57 56 54 55 52 43 49 48 55 59 62 60 56 55 54 55 50 45 42 42 33 37 34 34 38 44 44 42 40 49 52 50 49 49 50 51 53
59 58 58 58 58 57 52 46 40 39 43 39 43 45 49 56 58 57 60 57 55 51 45 50 44 40 45 43 43 41 38 37 39 46 42 42 40 45 51 47 47 49 51 54 58
58 58 57 57 57 57 48 41 41 44 34 45 47 49 53 56 47 52 61 52 49 44 46 43 41 47 49 49 45 42 37 35 41 44 41 40 39 46 51 50 51 53 54 55 56
57 57 57 57 57 48 43 44 48 46 36 41 47 46 49 51 48 48 56 53 47 44 44 41 44 49 47 45 44 42 40 37 36 40 38 37 37 40 46 47 49 51 51 52 52
57 57 56 56 48 48 44 49 47 50 17 34 39 47 50 52 44 56 58 53 47 43 45 45 48 46 44 42 44 36 45 42 39 35 28 37 27 36 41 43 45 45 46 49 51
56 56 55 53 47 45 49 49 50 44 3 37 41 52 50 47 46 49 56 54 44 44 44 38 43 42 40 43 47 40 44 40 37 32 27 29 26 35 38 40 43 46 46 46 47
55 55 54 49 48 50 49 48 42 20 12 33 42 39 43 46 46 49 50 55 53 46 45 43 49 47 45 45 47 45 39 35 32 29 20 27 27 32 37 36 41 43 45 46 48
55 54 51 51 43 52 50 41 19 14 35 33 35 41 42 41 43 46 44 41 39 33 31 41 41 46 47 40 44 40 35 27 19 17 21 28 27 33 38 42 41 42 44 45 47
55 53 51 51 52 48 44 31 16 30 30 39 39 40 38 42 42 42 41 37 43 38 31 28 31 42 43 40 37 32 33 23 19 18 23 30 24 34 40 42 44 44 45 47 47
53 43 46 49 49 46 35 21 22 29 33 35 38 35 35 39 41 38 37 36 40 41 33 28 29 41 44 43 41 34 26 34 24 21 17 26 30 38 40 39 40 44 46 46 46
40 39 41 49 49 42 28 30 30 34 38 41 33 35 31 35 35 36 38 40 41 43 40 35 27 38 41 44 42 38 38 25 19 16 18 22 24 30 35 39 42 44 46 46 46
38 35 44 47 45 35 29 32 34 40 41 38 33 34 33 34 37 35 36 40 45 40 43 38 34 34 42 34 33 33 28 29 28 25 20 19 28 35 37 38 40 43 44 46 47
35 29 44 45 33 35 35 37 40 40 42 42 41 39 35 36 35 35 34 38 45 45 38 39 34 30 33 36 38 36 32 30 20 19 25 23 25 40 38 40 42 44 48 51 53
33 33 44 43 33 34 37 37 40 40 40 41 40 41 40 36 33 36 38 43 45 44 40 40 28 20 29 35 36 32 35 32 29 25 15 17 27 41 40 43 47 46 46 48 48
34 30 36 39 41 38 36 38 38 41 41 43 40 43 40 36 38 35 37 42 44 45 48 44 31 28 22 26 30 26 32 32 29 19 22 22 27 39 42 43 47 47 45 48 49
35 35 40 34 38 39 40 40 36 36 42 43 42 41 39 34 35 34 38 39 43 47 41 39 25 26 31 34 29 31 32 31 25 29 22 28 29 38 42 45 47 48 47 46 45
39 36 41 37 39 38 38 36 36 37 38 38 37 39 40 37 36 34 37 36 36 40 40 37 26 27 24 33 32 29 32 32 31 32 32 34 34 46 49 50 49 44 44 43 43
42 44 40 37 33 32 34 38 39 40 43 43 41 39 38 39 39 41 41 41 41 37 36 37 28 25 20 30 30 26 31 32 32 34 37 30 39 45 43 47 47 43 42 41 41

GFSSW_sfc_temp_051.txt.gz
Temp
62 62 63 63 63 63 63 63 62 62 62 64 63 64 64 62 61 60 53 60 64 69 70 65 64 63 63 59 60 57 49 44 49 50 55 60 60 66 67 66 68 70 69 69 70
62 62 62 62 62 62 63 61 62 61 61 63 63 63 63 62 55 53 63 68 70 71 64 59 56 59 55 55 56 54 46 47 54 56 56 59 61 62 64 61 65 67 69 67 69
62 62 63 62 61 62 62 61 61 61 60 61 62 63 63 61 51 52 67 68 70 70 66 64 62 59 52 54 53 51 47 53 56 58 60 58 59 63 61 59 64 64 66 66 67
62 62 61 61 61 61 60 60 61 61 60 60 62 62 63 55 41 60 68 70 70 68 63 60 58 53 49 48 53 48 53 55 58 59 58 57 61 59 60 62 67 66 67 68 67
62 61 60 60 60 60 60 60 60 60 60 60 61 61 56 48 50 62 67 68 68 65 60 58 54 54 50 51 51 50 52 56 58 58 58 59 56 58 58 62 64 64 64 66 68
60 60 60 59 60 60 60 59 59 59 59 60 60 58 50 40 62 61 63 64 65 62 59 59 56 58 54 52 52 53 54 55 56 57 57 55 55 56 58 61 61 61 63 65 66
60 60 60 59 59 59 59 59 59 59 59 59 60 55 46 47 62 61 61 62 65 62 58 59 62 58 54 49 55 52 48 52 54 54 55 56 51 49 59 61 60 62 61 63 64
59 58 58 58 59 59 59 59 58 58 59 59 59 52 43 61 62 60 59 60 64 65 63 61 62 57 55 55 52 48 49 42 51 53 55 56 45 54 59 57 57 59 59 58 61
59 59 58 57 59 58 58 58 58 58 59 59 51 47 43 61 54 60 59 56 58 59 58 62 59 54 53 46 42 44 36 39 46 52 52 52 45 54 56 56 56 57 58 57 59
58 58 59 58 58 58 57 57 57 55 54 55 52 41 48 47 55 59 61 58 56 55 55 55 52 46 45 43 35 38 37 40 42 48 48 46 44 51 55 54 53 55 57 57 57
58 57 57 57 58 57 53 46 40 39 43 39 42 42 49 54 57 55 61 56 55 53 44 49 43 39 44 45 45 44 41 40 44 49 46 44 43 48 53 52 52 54 56 58 61
58 57 57 56 57 57 48 40 41 45 35 44 45 47 50 49 47 52 60 49 49 43 43 44 40 48 50 48 45 43 40 40 44 47 46 43 42 49 53 52 53 54 55 56 58
57 57 57 56 56 48 43 44 49 46 36 41 46 47 46 51 48 47 54 52 47 43 39 37 43 52 49 46 43 42 39 39 41 44 43 40 41 44 50 51 52 52 52 55 55
56 57 56 55 47 47 43 50 49 49 18 34 40 45 49 52 45 57 58 53 46 42 41 39 46 46 46 44 46 38 45 43 41 39 34 40 33 41 44 47 47 49 50 51 52
56 56 55 54 46 44 47 51 50 41 8 37 41 52 50 45 46 49 57 52 43 43 44 38 42 42 41 42 47 40 46 41 39 35 35 35 33 40 44 44 45 48 49 50 52
56 55 54 48 48 47 48 47 41 19 11 32 41 39 41 45 46 50 51 54 51 45 45 43 50 47 42 43 45 45 40 37 35 34 28 32 32 37 40 43 46 48 50 50 51
56 55 51 50 41 49 48 39 20 20 32 33 34 36 41 39 43 46 42 41 38 33 32 37 40 46 46 38 44 43 38 28 25 24 27 31 30 37 43 46 47 49 50 51 51
55 53 51 51 47 47 45 27 17 30 31 37 35 41 38 40 41 43 40 36 42 39 33 31 30 42 45 41 37 38 38 29 24 24 27 31 28 38 44 47 49 50 50 49 50
52 43 44 47 49 45 37 21 20 28 34 35 39 35 36 39 40 38 38 37 40 41 34 30 31 44 44 44 44 36 31 36 25 25 24 30 34 42 44 45 47 47 48 50 51
39 39 41 48 47 40 28 30 32 35 37 40 33 36 32 36 36 36 37 40 39 43 42 36 28 40 42 46 43 39 39 29 25 21 23 28 29 35 39 43 45 47 47 49 50
37 35 43 46 44 38 30 33 35 42 41 38 34 33 36 34 36 36 36 41 44 42 43 39 35 35 42 36 34 35 32 31 31 28 25 24 32 40 41 44 43 47 48 49 50
34 30 44 44 33 34 35 37 42 40 42 41 40 39 35 35 35 34 35 39 45 46 39 40 35 31 33 38 41 38 34 32 25 23 24 25 30 44 44 45 45 47 49 50 51
33 33 43 42 31 34 39 39 41 39 39 40 38 40 39 36 34 36 37 43 45 44 40 41 31 24 30 36 38 35 35 34 31 28 22 23 32 43 42 45 47 47 49 49 50
34 29 35 38 39 36 37 35 36 41 40 41 39 41 38 36 38 35 36 42 44 44 48 44 33 30 25 29 31 28 32 33 30 23 25 25 31 40 43 44 47 48 48 48 48
34 34 40 29 35 36 38 37 35 35 40 42 40 40 39 34 34 33 36 38 42 46 41 40 28 29 33 35 31 32 33 32 27 30 26 31 30 40 43 44 49 51 47 46 45
37 37 41 37 38 38 39 35 35 36 37 37 37 38 38 36 36 33 36 35 36 39 38 37 29 28 26 34 33 30 34 33 33 34 33 34 34 47 49 48 49 47 44 43 43
42 44 39 37 32 31 34 37 38 38 40 41 40 37 37 37 38 40 40 41 41 38 36 37 29 26 22 31 31 27 32 33 33 34 37 31 39 45 44 45 47 44 43 41 41

GFSSW_sfc_temp_054.txt.gz
Temp
63 63 63 63 63 63 62 63 63 63 62 61 64 64 64 64 62 60 54 67 69 70 70 69 68 67 69 67 68 68 60 57 59 60 65 72 70 74 76 77 78 80 78 77 79
63 63 63 62 62 62 62 61 62 62 62 61 62 63 63 63 58 54 64 69 70 70 66 63 61 64 62 64 65 64 58 60 68 67 65 68 71 72 72 72 74 76 78 76 77
62 62 63 62 62 62 61 61 61 61 62 61 60 62 63 63 54 56 71 69 70 71 70 67 66 63 58 63 64 63 59 65 62 67 67 68 69 73 72 68 75 74 75 75 71
62 61 62 61 61 61 61 61 61 61 61 61 60 61 62 60 40 66 69 70 70 71 69 63 62 56 56 54 64 57 64 64 63 64 64 65 71 68 71 73 76 76 75 76 74
61 60 61 61 60 60 60 60 60 61 60 60 60 60 58 50 51 67 65 69 70 67 64 62 59 56 54 58 59 58 60 63 65 64 64 65 65 67 68 73 75 75 73 75 76
60 60 60 60 59 59 59 60 59 59 60 60 60 58 53 42 67 70 63 66 69 65 62 64 62 64 58 58 57 61 61 62 65 63 63 61 63 63 68 74 73 73 74 77 77
60 59 59 59 59 59 59 59 59 59 59 60 60 58 50 50 66 65 62 66 69 67 60 66 68 62 62 56 62 59 55 60 60 62 61 63 58 58 69 73 71 73 74 74 75
60 60 59 59 59 59 59 59 59 58 58 59 59 55 45 64 64 61 63 65 69 69 66 66 69 65 61 63 59 55 56 49 60 61 61 61 54 62 67 68 68 70 73 72 74
59 59 58 58 58 59 58 59 58 59 59 59 55 52 46 63 55 62 64 60 65 66 65 66 61 60 58 53 49 53 48 49 51 60 61 58 55 64 68 65 66 69 71 71 72
60 59 58 57 58 58 58 58 58 57 58 58 56 46 52 51 57 60 63 62 57 59 55 55 52 50 54 51 41 46 47 50 50 55 56 54 56 60 65 63 64 67 70 71 71
59 58 58 57 56 58 56 54 50 47 50 46 47 47 50 51 58 54 59 55 59 55 44 51 43 44 51 55 53 53 49 49 52 54 53 54 54 58 62 64 64 67 69 71 72
58 57 58 56 56 56 55 49 47 49 41 49 49 49 52 49 46 49 60 49 53 45 49 44 40 53 57 55 52 51 49 49 50 52 53 52 51 58 61 62 62 62 65 67 68
57 57 57 56 55 55 51 48 51 53 41 44 48 47 45 48 48 47 56 49 49 43 44 40 45 55 53 51 49 49 47 48 48 49 50 49 51 52 55 58 59 59 61 64 64
57 57 56 56 53 52 47 52 54 54 33 37 38 42 44 46 47 58 55 49 46 38 42 38 49 51 50 49 52 44 51 49 47 47 44 48 45 49 53 54 57 60 61 62 63
57 56 55 55 52 47 51 54 55 48 20 37 39 50 50 47 49 49 56 50 43 41 40 37 41 44 47 50 54 46 51 48 47 45 44 44 43 48 53 50 54 58 60 61 63
56 56 54 54 54 51 54 54 51 31 21 35 42 39 41 47 49 51 53 54 52 46 46 41 46 45 41 43 50 50 48 45 45 44 36 41 41 46 50 52 54 58 60 61 62
56 56 55 55 46 55 54 48 32 27 37 34 36 38 43 43 47 49 43 43 39 35 34 38 40 44 44 37 43 49 44 33 32 32 37 39 37 48 52 55 55 55 58 60 62
55 54 55 56 56 55 51 38 28 31 32 40 37 42 37 41 44 41 37 42 47 42 36 33 31 40 43 43 41 43 44 37 30 32 36 37 37 47 55 57 57 56 57 58 60
53 55 53 56 55 54 44 32 29 31 35 35 40 36 36 42 42 39 41 43 45 47 38 34 32 47 48 50 50 42 39 44 35 33 34 41 44 49 51 53 55 56 57 58 59
49 49 51 54 54 50 40 33 33 36 39 41 35 41 37 38 38 38 43 46 44 48 50 43 33 43 45 49 49 47 48 36 35 29 31 37 39 46 46 50 54 56 57 58 59
49 47 52 54 53 48 33 35 37 45 44 43 41 40 42 40 41 41 41 46 49 47 51 48 43 37 45 42 42 42 41 39 42 38 36 37 41 51 51 54 52 56 57 58 58
46 41 53 53 43 43 39 40 43 44 47 45 48 46 44 44 42 43 42 46 51 52 45 46 44 35 37 44 46 46 43 43 37 32 34 36 42 53 55 55 54 56 58 58 58
40 44 52 50 37 38 43 42 44 45 46 46 45 48 47 44 41 43 44 48 51 50 48 48 39 31 32 39 42 39 41 42 39 36 31 36 43 52 54 54 58 56 58 58 56
43 40 48 50 48 44 41 41 43 47 46 48 46 49 47 43 46 42 43 46 49 50 48 50 40 37 34 34 39 34 39 41 38 33 37 39 43 49 52 54 56 57 58 55 54
44 38 41 37 43 44 44 43 42 42 48 49 47 47 46 41 42 41 43 45 48 48 47 48 34 36 38 40 36 37 38 38 33 39 35 42 41 50 54 55 56 57 54 52 50
40 38 42 41 43 43 43 42 42 43 43 45 45 45 47 44 45 42 44 45 45 47 46 45 34 35 33 38 38 34 40 40 40 41 40 42 42 55 57 57 55 55 51 50 49
46 45 40 41 41 43 43 44 44 45 46 47 48 47 45 45 48 50 51 52 50 47 44 44 38 35 32 36 37 33 39 40 41 43 43 38 47 54 53 53 53 52 50 48 47

GFSSW_sfc_temp_057.txt.gz
Temp
63 64 64 63 63 62 62 62 62 62 62 63 63 62 64 63 63 61 53 64 71 72 70 71 68 68 72 69 73 73 59 58 61 65 70 79 75 80 83 80 81 85 83 81 84
63 63 63 62 63 62 62 62 62 62 62 62 61 61 63 63 62 59 65 68 72 72 67 66 61 65 63 65 67 64 59 60 70 72 70 76 74 78 74 76 78 80 82 82 83
63 62 62 62 62 61 62 61 61 62 62 62 61 61 60 64 56 60 71 69 70 72 68 71 69 64 60 65 65 64 60 67 71 69 69 72 72 79 74 72 78 78 82 81 79
62 61 61 61 61 61 61 61 61 61 61 61 61 61 59 62 43 70 72 71 70 72 70 65 66 58 57 56 65 60 66 71 69 68 65 67 75 73 75 77 83 82 80 80 79
62 61 60 61 60 60 60 60 60 60 60 60 60 60 58 51 55 71 66 71 70 68 66 64 62 60 55 60 62 59 66 69 68 65 66 70 70 71 73 79 79 80 78 79 80
61 61 60 60 60 59 59 60 60 60 60 58 59 58 55 44 70 72 62 65 66 64 66 67 64 66 61 59 60 64 64 65 68 64 65 63 67 70 72 79 77 77 77 80 80
61 60 60 59 59 59 59 59 60 60 59 59 59 60 52 52 70 67 60 59 67 63 64 70 70 64 64 57 65 62 58 61 64 65 62 65 60 62 72 76 74 75 77 78 80
61 60 60 59 58 59 58 60 59 59 59 59 60 57 46 66 70 66 60 56 65 68 70 71 69 67 61 63 60 56 58 49 61 62 64 62 54 66 72 72 72 75 76 77 79
60 59 59 58 57 58 59 59 59 59 59 60 56 53 47 66 59 65 63 58 64 62 69 70 64 61 60 53 49 53 47 51 56 65 62 58 57 67 70 69 70 73 75 75 77
59 58 58 58 57 58 58 58 59 57 59 61 58 47 55 53 61 60 65 63 58 60 58 55 53 49 52 51 41 46 48 55 54 57 60 58 57 66 68 69 68 71 73 74 74
59 58 58 57 56 57 57 58 51 49 53 48 49 50 51 54 57 56 62 59 57 57 47 49 44 41 51 57 58 57 53 54 58 58 56 56 58 63 66 66 66 69 71 73 74
58 57 57 57 57 56 59 52 50 51 42 52 52 52 55 48 42 49 61 54 50 47 52 45 37 51 58 58 57 54 52 52 55 56 55 57 55 60 63 65 67 68 69 71 73
58 57 57 56 56 58 55 50 54 56 41 46 51 49 47 46 42 49 55 52 49 49 47 44 46 49 49 52 52 53 50 51 50 52 56 53 51 55 58 61 63 64 66 69 69
57 57 57 56 52 56 51 56 57 57 34 38 41 45 44 46 42 52 54 48 47 46 46 42 51 46 47 50 54 47 57 54 50 48 44 54 46 52 54 56 60 63 65 66 67
57 57 56 57 55 50 53 58 58 52 23 38 38 49 47 43 45 46 54 50 42 39 43 39 44 43 47 51 56 51 56 52 50 48 47 48 46 51 55 52 56 60 62 64 66
56 56 56 58 59 56 59 58 51 32 24 34 41 39 42 47 47 47 47 53 53 42 43 41 45 45 49 47 54 56 51 50 49 46 37 48 48 46 50 54 56 60 62 63 65
56 56 56 59 53 59 58 50 32 28 37 34 36 43 48 46 45 43 41 41 39 33 33 35 36 43 45 41 47 51 46 33 32 33 37 45 42 51 58 59 59 59 61 63 64
55 54 58 60 62 59 52 39 30 34 32 41 39 45 38 44 44 44 44 42 50 46 36 34 31 36 41 41 39 43 47 39 32 34 39 42 39 51 59 61 60 60 61 61 63
54 61 57 60 59 56 44 34 31 32 36 36 45 38 39 46 44 41 45 45 48 50 37 35 33 40 42 44 46 40 39 48 40 41 39 43 48 52 56 57 58 59 60 61 62
54 55 56 59 59 53 42 33 34 39 42 45 39 44 40 42 43 44 47 50 47 51 54 45 33 43 44 48 48 47 51 38 38 31 33 40 43 47 47 51 56 58 59 61 62
55 52 56 59 57 53 35 37 40 48 47 45 45 44 45 45 47 46 46 48 52 50 54 52 45 38 47 44 44 44 43 44 44 41 38 38 43 54 52 55 55 57 59 60 61
51 43 57 59 47 50 44 44 44 48 51 48 51 50 48 49 46 46 46 50 55 55 49 50 46 36 39 47 50 50 48 48 38 36 39 39 42 57 59 59 57 57 59 61 60
43 51 58 56 40 44 46 46 48 49 49 49 48 51 52 49 44 48 48 51 54 53 50 52 42 32 34 42 46 42 47 48 44 39 34 38 42 58 59 57 59 58 60 60 59
49 40 52 58 54 49 46 45 46 50 50 51 50 52 50 48 51 46 46 49 52 53 49 53 45 40 36 36 43 36 43 45 39 33 40 42 45 50 54 56 58 59 60 59 57
50 40 43 40 49 48 49 48 46 46 52 53 50 50 49 45 46 45 48 48 51 48 51 51 36 38 42 43 38 40 40 41 33 41 37 46 47 52 55 57 58 59 58 56 55
41 38 44 42 48 48 46 47 46 47 48 48 48 50 51 48 49 45 48 50 48 50 50 49 36 38 35 42 41 37 42 43 42 43 44 46 45 57 59 59 57 57 55 54 54
51 49 40 42 47 46 45 47 47 49 49 51 52 51 49 49 52 55 56 56 54 50 48 46 40 37 35 39 39 35 41 43 44 46 46 39 49 57 55 55 55 56 54 53 53

GFSSW_sfc_temp_060.txt.gz
Temp
63 64 64 64 63 63 63 63 63 63 62 62 62 63 62 63 63 60 52 62 67 71 70 69 66 65 66 65 67 68 52 50 55 58 63 74 70 74 75 71 71 73 71 75 75
63 64 63 63 63 62 62 62 62 62 62 62 62 63 62 61 59 55 66 69 69 72 67 63 59 62 58 61 62 58 50 54 64 67 64 71 72 71 68 67 67 71 75 78 75
63 63 63 62 62 62 61 61 62 62 61 62 62 62 61 61 52 55 70 70 70 70 69 68 65 61 55 60 60 58 52 61 66 67 65 66 68 69 65 62 69 69 72 74 73
62 62 62 62 61 61 61 60 61 61 61 61 61 61 60 58 38 64 72 72 70 69 68 62 62 55 53 53 62 55 61 64 67 65 63 62 69 65 67 66 73 71 73 74 72
62 62 61 60 60 60 60 60 60 61 61 60 60 60 56 48 50 68 68 72 69 66 63 60 59 57 52 56 59 56 61 65 66 63 61 67 63 63 64 69 73 73 73 69 69
62 61 60 60 60 59 59 60 60 60 59 59 58 58 52 41 66 70 68 63 66 63 61 63 61 63 58 58 56 60 62 63 64 61 62 61 62 65 66 68 69 69 66 67 70
61 61 60 60 59 59 59 59 60 60 60 59 60 58 50 48 68 66 63 62 61 63 59 66 67 62 60 55 62 61 55 58 60 60 59 62 56 58 66 68 67 66 66 70 70
61 60 60 59 59 58 58 59 60 59 59 60 59 56 44 64 66 64 62 59 61 61 62 68 69 63 60 61 57 54 52 46 58 60 61 58 48 61 67 63 63 64 65 66 70
60 60 59 59 58 57 59 59 59 59 59 60 54 50 44 66 57 63 65 56 59 58 62 68 64 56 58 50 45 48 41 45 51 61 59 56 49 61 67 64 61 63 65 66 67
59 59 58 58 58 58 58 58 59 58 58 61 56 45 52 51 56 61 62 58 52 55 54 55 53 47 48 45 35 40 41 47 48 56 58 52 51 60 62 61 60 60 62 63 65
59 58 58 58 58 58 56 55 49 47 53 47 47 47 51 54 58 56 58 51 50 51 44 51 43 39 44 49 51 50 47 46 53 58 54 52 52 57 60 60 58 59 60 62 65
58 58 58 57 58 58 56 50 49 50 41 53 52 52 54 51 43 51 56 44 42 42 49 44 39 48 53 53 52 51 47 47 53 55 53 51 51 57 59 59 61 59 60 61 63
57 57 58 57 57 55 54 50 56 56 40 47 50 49 47 48 41 46 52 48 41 42 45 41 46 53 51 51 49 48 45 48 47 50 51 49 45 51 57 56 58 56 57 60 60
57 57 57 57 52 55 51 57 57 57 32 37 41 43 46 44 39 51 55 50 45 44 48 43 49 47 45 46 52 44 53 52 49 43 36 49 33 47 51 51 55 54 54 55 57
56 56 57 56 52 51 53 58 57 49 20 38 39 50 46 38 44 45 55 50 43 42 44 38 42 43 39 45 53 49 54 49 47 43 41 42 33 39 48 47 51 53 54 55 57
56 56 56 57 54 56 58 57 50 31 24 33 38 38 39 43 46 48 48 51 53 43 44 40 47 46 44 47 47 55 48 46 45 42 30 41 40 36 43 48 50 54 54 56 57
55 56 54 58 50 59 56 47 30 27 38 34 35 40 40 40 40 41 40 42 39 33 33 37 37 43 44 42 49 48 40 30 29 28 29 43 38 39 50 52 53 53 54 55 56
55 55 57 59 60 57 49 37 27 35 33 40 42 45 39 42 39 41 43 40 46 41 34 32 29 36 41 42 39 44 41 29 25 25 29 40 31 41 52 53 55 56 55 56 55
55 57 56 58 59 54 42 31 30 33 37 36 45 39 39 45 44 42 43 43 44 45 35 33 31 39 41 45 44 40 35 42 33 33 26 34 40 46 50 50 52 53 55 54 54
50 53 54 59 58 49 40 33 34 40 43 44 40 46 38 42 42 43 44 49 46 51 52 42 31 37 41 45 44 43 48 33 29 21 24 32 35 37 42 46 50 50 51 53 56
50 49 53 59 55 46 34 37 41 49 48 43 45 44 45 44 47 45 44 48 51 49 51 48 41 35 40 36 36 37 36 38 37 33 25 25 30 43 47 48 48 50 53 53 53
49 41 55 56 43 47 42 45 44 49 52 48 49 50 48 47 45 44 43 47 53 52 45 47 41 32 38 46 49 45 44 42 32 31 29 28 30 49 50 50 51 51 55 55 55
42 48 55 54 39 42 46 47 49 49 49 49 48 50 51 47 41 45 45 50 52 50 46 47 36 27 29 39 43 39 44 45 39 35 30 25 30 52 51 51 53 52 54 54 54
45 37 45 51 51 46 45 44 46 49 50 51 50 51 48 45 49 43 44 48 50 50 50 50 40 34 27 33 38 32 39 41 34 25 30 31 36 44 48 50 53 53 54 53 52
47 39 42 36 44 45 48 48 46 46 51 52 48 49 48 42 44 43 46 45 49 48 47 45 31 31 38 41 34 34 38 38 27 34 27 36 40 44 48 49 51 52 54 53 51
41 38 42 40 44 45 45 47 45 48 47 47 46 50 49 45 45 43 46 45 43 46 44 44 30 32 30 41 39 32 39 39 39 39 38 40 39 48 51 53 52 51 52 51 51
47 47 40 41 43 44 42 45 46 48 49 51 49 48 47 47 50 51 51 51 49 44 42 41 33 29 25 35 35 28 37 40 39 42 41 34 43 50 50 52 51 51 52 51 49

GFSSW_sfc_temp_063.txt.gz
Temp
64 64 65 64 63 63 63 63 63 63 63 63 63 63 63 63 63 56 51 59 63 71 71 67 64 63 63 60 63 61 47 46 51 54 58 66 67 68 71 68 69 66 67 68 72
63 63 63 63 63 62 62 62 62 62 62 62 62 62 63 62 56 52 61 67 69 70 63 60 56 59 54 57 59 55 46 48 58 63 62 66 67 68 65 64 64 64 68 71 71
63 63 63 62 62 62 62 61 61 62 62 61 61 61 61 60 49 51 67 68 70 70 65 65 62 58 52 55 55 55 47 56 61 64 64 64 67 67 63 58 62 63 64 67 67
63 63 62 62 61 61 61 61 61 61 61 61 61 61 60 55 38 60 69 71 71 69 63 60 58 51 50 50 58 51 58 59 62 63 63 62 68 62 62 61 66 65 68 67 66
63 62 62 61 61 60 60 59 61 60 60 60 60 59 55 45 46 64 68 70 69 65 59 57 54 52 48 52 56 52 57 61 63 59 60 64 63 60 60 64 68 70 69 66 66
62 62 61 61 61 60 60 59 60 59 59 58 59 59 50 38 62 65 63 66 66 61 58 58 57 58 52 53 52 57 58 59 61 59 58 59 60 62 62 66 65 68 65 62 65
62 61 60 60 60 60 59 59 59 59 58 60 60 57 48 46 62 61 63 61 61 61 57 59 61 58 56 54 59 56 52 56 56 57 56 60 56 57 61 62 61 59 59 66 65
61 61 60 59 59 59 59 59 59 59 59 60 59 53 43 61 59 59 59 60 61 59 60 63 63 61 53 57 54 52 50 43 54 56 58 58 46 57 62 55 60 57 58 60 65
60 60 59 59 59 59 59 59 59 59 59 60 52 47 41 63 55 59 57 57 58 57 56 63 58 55 53 45 42 45 37 39 49 56 56 54 47 58 62 58 59 57 58 61 62
58 59 59 58 59 58 59 59 58 57 56 59 55 43 49 48 54 57 57 59 53 52 51 51 51 43 44 41 35 37 38 41 43 51 54 51 49 56 59 58 57 57 58 59 62
58 57 58 58 58 58 54 49 43 42 48 44 45 46 50 52 56 54 56 54 51 46 43 49 42 38 43 46 47 45 43 43 47 55 52 51 51 55 57 54 54 56 58 59 62
58 57 57 58 58 58 52 46 46 45 36 49 51 51 49 50 43 49 55 46 42 36 45 43 38 45 49 49 47 46 42 42 48 54 53 50 48 53 54 55 56 57 57 57 59
57 57 57 58 58 52 48 47 51 51 38 45 49 45 44 47 44 45 50 46 38 36 43 40 44 50 48 46 44 43 40 41 42 47 47 46 43 47 53 56 57 56 54 55 56
57 57 57 57 50 49 46 53 53 53 31 35 39 42 46 45 40 51 49 47 38 39 42 42 47 47 45 44 46 38 49 48 45 40 34 47 32 41 49 49 53 52 51 51 54
56 56 56 56 46 46 50 54 52 48 20 38 39 50 47 40 43 42 52 46 36 43 42 38 41 41 42 44 47 44 50 47 44 40 38 40 32 38 44 44 48 51 51 50 52
56 56 56 51 51 55 55 52 49 28 22 33 38 38 37 42 44 48 47 49 51 44 43 40 48 46 43 46 46 48 47 42 41 38 27 38 35 35 38 47 46 48 51 53 53
55 56 53 54 45 56 54 44 26 22 39 34 35 41 41 40 41 44 41 41 38 31 32 37 38 43 46 43 45 46 37 25 25 22 24 38 36 40 46 47 49 49 50 52 53
55 55 54 55 53 55 44 34 21 32 32 41 41 43 37 40 39 42 42 38 42 38 34 30 31 38 42 40 40 42 38 26 21 21 25 37 32 40 48 50 53 54 52 52 52
54 47 48 51 54 49 39 25 30 29 38 37 41 37 38 42 41 41 40 39 40 40 32 31 30 40 42 44 43 39 33 41 30 28 22 29 37 45 47 47 49 50 51 51 51
43 43 46 53 52 44 33 31 33 38 42 43 36 42 36 38 40 38 39 45 42 45 45 37 29 38 41 43 45 41 46 33 26 22 22 25 30 35 40 43 48 49 48 49 52
42 39 48 53 48 42 30 30 40 46 45 42 41 42 42 43 42 40 39 44 48 46 49 45 37 34 40 36 37 38 36 36 35 30 24 22 29 42 46 48 47 48 49 50 50
39 35 49 50 35 39 33 41 46 47 47 45 48 47 44 44 40 40 38 42 50 50 44 46 39 31 35 43 46 42 39 39 28 27 26 25 29 46 47 49 49 49 52 52 51
39 37 48 47 37 37 40 44 46 46 46 45 44 46 48 46 38 41 41 48 49 46 43 45 34 26 27 36 40 36 39 43 39 32 24 22 29 45 44 47 50 50 51 51 50
38 32 38 46 44 43 39 40 41 47 46 48 46 46 44 41 44 39 39 46 48 46 50 48 38 33 25 30 35 31 38 40 36 28 32 29 33 39 43 46 48 50 51 50 49
36 35 41 33 40 37 41 45 42 41 46 48 45 46 44 39 40 38 41 41 46 48 45 43 29 31 36 38 33 34 37 37 29 34 27 35 38 44 45 47 49 50 50 49 49
33 33 35 38 40 36 42 43 42 46 43 42 41 46 44 40 39 38 42 40 39 41 40 41 27 30 28 38 36 32 37 38 37 37 36 36 37 47 49 51 50 50 50 49 49
37 38 38 35 40 38 39 41 43 45 46 47 44 43 42 43 45 44 45 45 44 41 38 37 31 27 24 34 34 29 35 36 37 38 39 32 40 46 47 49 49 48 49 49 48

GFSSW_sfc_temp_066.txt.gz
Temp
64 64 64 64 63 62 63 63 63 62 63 63 63 63 63 63 61 58 50 57 63 69 70 63 62 61 62 59 59 58 48 45 48 51 56 61 59 67 69 65 63 63 63 69 71
64 64 64 63 62 62 62 62 62 62 62 62 62 62 62 61 55 50 61 66 68 69 60 57 53 57 55 56 58 52 46 49 58 59 52 57 59 61 62 60 59 61 67 69 69
63 64 63 63 62 61 62 61 60 61 60 61 62 62 61 59 48 48 66 67 68 69 63 61 58 56 50 53 55 53 47 55 58 61 56 58 60 64 62 56 59 60 62 65 65
63 63 63 62 62 62 61 61 60 61 60 61 61 61 60 54 34 57 68 69 70 67 62 57 54 50 49 48 57 50 57 59 60 57 54 55 64 63 61 59 66 64 65 63 64
63 62 62 62 61 62 61 60 59 59 60 59 60 60 55 44 44 63 66 66 66 63 58 54 50 54 47 51 55 50 56 59 61 58 57 60 57 62 62 64 63 65 65 63 63
61 61 61 61 60 60 60 59 59 59 60 59 59 59 49 37 58 61 62 63 64 61 57 56 52 55 51 52 52 56 56 59 57 58 58 56 57 62 61 62 62 66 63 62 63
61 61 60 60 60 60 60 60 59 59 59 60 60 57 47 44 58 60 60 59 63 62 56 58 57 55 53 50 57 55 51 53 55 57 57 59 53 55 63 63 59 57 60 66 65
60 60 60 60 59 59 59 59 59 59 59 60 60 52 41 59 57 59 59 58 62 60 60 62 58 57 50 55 51 49 49 42 54 55 58 57 46 57 62 58 59 54 53 56 61
59 59 59 59 59 59 59 59 59 59 59 60 51 46 40 61 54 58 59 55 58 57 57 61 56 50 50 45 41 43 37 39 47 55 55 54 47 58 61 56 58 58 56 57 59
59 58 58 59 58 58 59 59 58 56 56 58 54 41 48 47 53 55 58 58 52 52 50 50 49 42 45 41 34 39 38 39 44 51 51 50 49 56 57 54 56 57 58 58 59
59 57 58 58 58 58 54 48 44 41 45 42 43 44 48 52 54 52 56 53 49 45 41 47 42 37 42 45 45 45 42 42 45 53 49 48 48 54 57 50 52 53 56 58 59
58 58 57 58 58 58 50 45 46 47 37 47 48 48 49 48 42 47 55 44 41 37 43 42 37 45 47 48 46 45 41 40 46 52 51 49 49 53 55 52 54 55 55 57 55
57 57 57 57 57 51 46 47 51 51 38 42 46 44 44 46 44 43 50 47 39 36 36 39 41 49 47 44 43 41 41 40 41 46 46 44 41 46 51 51 55 55 54 55 57
57 57 56 57 49 47 45 52 52 50 31 34 39 43 46 46 40 51 51 47 40 36 36 43 47 45 43 42 43 37 47 46 44 40 33 45 30 40 47 48 51 51 51 52 53
56 56 56 56 45 47 51 52 50 47 21 37 40 50 46 40 42 42 51 46 39 39 38 38 42 42 41 43 46 42 48 45 42 38 36 35 32 38 43 42 46 47 49 49 51
56 56 56 50 47 53 55 50 49 25 22 33 39 39 39 42 41 43 46 48 48 42 43 41 46 43 42 44 45 46 43 41 40 36 26 35 33 33 38 44 49 46 48 49 50
55 56 54 52 44 55 53 45 24 24 37 35 36 41 40 36 39 42 37 36 37 32 33 38 39 43 44 40 43 42 36 26 28 28 24 36 33 39 43 46 48 47 47 48 49
55 55 53 53 51 52 45 32 20 32 31 42 41 41 36 40 40 41 39 36 41 39 34 32 31 39 42 40 40 39 36 25 21 23 25 35 29 39 45 47 50 53 51 50 49
54 45 46 49 52 47 39 22 24 25 36 36 40 35 35 40 40 41 38 36 40 39 31 29 30 40 43 45 42 38 31 39 27 25 21 29 35 43 44 44 47 48 49 48 49
41 42 44 51 50 42 31 30 30 38 40 40 35 39 34 37 38 36 37 42 40 42 41 35 29 39 41 45 44 41 44 31 24 20 20 25 27 33 37 42 46 47 47 48 50
41 40 46 51 47 37 25 27 36 44 43 40 38 39 38 40 39 36 36 42 44 42 42 39 34 34 40 37 37 37 36 34 34 28 24 22 27 37 43 48 48 49 49 49 49
37 33 47 48 36 35 32 39 45 45 45 42 42 43 40 39 38 36 36 39 47 47 40 42 36 31 34 42 45 42 39 39 27 25 23 24 28 43 46 47 50 49 50 50 50
36 35 47 45 36 32 39 42 43 43 43 43 42 44 44 40 36 38 39 45 47 45 42 44 31 23 29 36 40 37 37 39 35 29 20 21 29 44 44 47 50 49 50 51 49
36 28 37 45 44 41 37 39 40 45 44 46 44 45 42 40 42 37 37 44 46 45 50 47 36 30 24 30 33 32 36 38 34 24 28 27 33 40 43 46 47 49 51 50 49
34 31 37 28 35 38 38 42 43 41 43 45 43 43 41 36 37 36 39 40 45 47 43 41 27 29 34 36 32 34 35 36 31 37 30 36 37 42 44 46 49 50 49 47 47
31 29 33 31 37 33 41 40 39 43 42 40 39 42 41 38 38 37 39 37 37 40 38 38 27 28 28 36 35 33 36 37 36 37 36 36 37 47 48 45 47 48 48 48 48
34 36 36 33 38 38 37 38 41 44 44 45 42 40 40 41 42 42 43 43 42 40 37 36 30 26 22 32 31 27 34 36 37 38 39 33 41 44 45 47 47 46 48 48 48

GFSSW_sfc_temp_069.txt.gz
Temp
63 64 64 64 64 63 63 63 62 62 62 63 62 63 63 62 61 57 50 57 60 69 68 61 60 62 61 56 60 59 47 46 47 50 53 57 55 62 65 61 60 60 61 66 67
63 64 64 63 63 63 62 62 62 61 62 62 62 62 62 61 54 50 61 66 67 69 59 55 52 57 54 53 56 53 48 49 57 57 53 54 56 59 59 60 57 60 65 67 67
63 63 63 62 62 63 63 62 62 60 60 61 61 61 61 58 47 48 65 67 68 69 62 57 56 54 53 52 53 53 48 55 57 58 55 55 57 60 58 57 59 60 62 64 64
62 62 62 62 62 62 62 61 60 60 59 60 61 61 60 53 34 56 67 68 68 67 61 54 53 48 47 47 53 48 54 58 57 55 55 54 57 53 56 60 63 62 63 63 63
61 62 62 61 61 61 61 60 60 59 59 59 60 60 54 42 43 59 66 65 65 61 56 54 49 47 48 47 51 48 55 59 56 54 54 57 53 52 53 60 64 62 63 61 62
61 61 61 61 60 60 60 60 60 60 59 59 59 59 48 35 56 58 61 61 60 59 56 56 50 51 47 48 49 53 55 53 55 52 55 52 53 53 56 61 61 61 61 61 62
60 60 59 60 60 60 60 60 60 59 59 60 59 56 45 43 56 57 59 58 60 59 55 58 55 52 49 46 53 53 48 52 53 54 52 54 47 47 57 61 59 57 57 60 60
60 59 59 59 59 59 59 59 59 59 59 60 60 50 39 57 55 56 59 57 60 62 61 60 59 53 48 50 49 47 47 41 51 54 54 53 42 52 59 59 58 58 56 57 60
60 59 58 59 59 59 59 59 59 59 59 59 49 44 39 60 52 55 58 52 54 57 59 62 56 48 48 41 38 43 37 41 46 55 55 52 47 57 59 60 59 57 57 57 56
59 58 58 58 58 59 59 58 58 56 55 56 53 40 47 46 51 55 58 55 51 51 51 51 49 42 41 39 33 37 36 42 44 50 53 49 48 56 58 57 56 56 56 56 57
59 58 57 57 58 58 53 47 43 40 45 40 42 42 47 50 54 52 56 52 49 46 41 46 39 37 41 41 41 43 41 41 45 53 50 48 49 53 55 53 50 51 53 55 58
58 57 58 57 57 58 49 42 44 44 37 46 46 46 48 47 42 48 54 43 40 35 43 42 34 44 46 46 44 43 40 41 46 51 50 48 47 53 56 53 54 52 51 54 56
57 57 57 57 57 50 45 45 49 48 37 42 45 43 43 46 44 44 49 45 38 34 37 37 42 47 46 43 41 39 38 40 42 46 46 46 42 47 50 48 52 55 52 53 54
57 57 57 56 49 46 43 51 50 49 31 34 39 42 46 46 41 50 49 46 39 35 38 41 47 44 42 41 41 35 45 45 43 41 34 45 30 40 44 47 49 52 51 51 53
56 56 56 56 44 46 50 50 49 45 14 38 39 50 46 40 42 42 51 47 36 36 36 37 42 41 40 41 45 39 46 44 42 38 37 37 32 36 39 40 49 51 48 49 50
56 56 56 49 46 52 54 51 48 24 14 33 41 39 38 41 40 44 45 48 47 39 41 41 44 43 41 44 46 46 42 41 38 36 26 35 33 32 37 41 43 48 46 48 48
56 55 54 51 43 54 53 46 23 23 36 33 35 38 37 36 39 41 40 38 35 32 32 40 39 43 43 40 42 42 36 26 25 26 24 34 33 41 43 44 46 48 45 46 47
55 53 53 51 49 52 47 30 20 33 32 42 39 40 36 40 38 39 36 35 40 38 33 32 30 39 41 39 37 36 37 25 22 23 25 33 28 37 45 46 47 49 48 46 46
53 44 45 48 50 48 37 20 23 24 34 36 38 35 36 41 39 40 38 37 40 41 33 30 31 42 44 43 41 36 34 36 26 23 21 29 33 42 43 44 41 44 46 46 47
41 41 43 49 49 46 29 28 25 37 39 40 32 38 33 37 37 34 37 42 41 43 41 35 30 39 41 46 42 38 40 30 23 18 19 25 27 34 37 41 42 43 44 46 48
40 39 45 49 46 38 24 26 35 42 42 38 36 36 35 34 36 34 34 40 42 41 41 37 33 34 40 37 39 38 36 33 33 28 23 22 28 38 40 43 43 47 48 46 47
37 31 46 47 32 32 31 37 44 42 42 41 40 40 37 37 35 33 35 37 44 44 38 39 34 31 34 41 46 43 40 35 25 24 21 23 27 41 40 44 47 47 49 49 49
36 35 45 44 28 30 37 40 42 41 41 41 40 43 42 38 34 36 37 44 45 44 40 41 33 28 30 36 41 37 40 38 33 27 20 21 29 42 38 42 47 46 48 50 50
34 29 36 40 39 35 33 37 38 43 43 44 42 43 40 38 39 35 36 43 45 45 50 47 34 29 24 28 33 33 37 36 32 24 25 26 32 39 40 42 45 47 48 50 49
32 29 32 26 35 38 36 39 38 38 42 43 40 41 39 35 35 34 37 38 44 47 42 41 31 30 34 35 32 32 35 37 28 37 30 38 34 43 45 44 46 48 48 47 47
30 29 31 28 34 36 39 37 38 39 40 39 38 40 39 36 36 36 38 36 37 38 36 37 26 29 28 35 34 32 35 36 36 36 36 37 36 47 48 48 47 49 48 47 47
33 34 32 32 30 33 33 37 38 41 45 44 41 39 38 40 40 39 41 42 40 39 35 34 29 25 22 31 32 28 33 34 35 37 39 33 44 44 43 46 46 45 47 47 47

GFSSW_sfc_temp_072.txt.gz
Temp
63 64 64 63 63 63 64 64 63 62 62 61 61 62 62 62 61 56 51 57 59 67 67 60 58 58 62 54 59 56 47 43 45 49 52 55 54 60 62 58 59 60 59 63 66
63 63 64 63 62 63 63 63 62 62 61 60 61 61 61 60 52 50 60 66 67 68 58 55 50 54 51 51 56 50 47 47 54 55 53 54 55 54 56 56 58 60 63 64 66
63 63 63 62 62 62 62 62 62 61 60 59 60 61 61 57 45 47 65 66 67 68 63 57 55 53 48 49 49 51 47 53 56 56 57 55 54 55 53 54 54 55 61 63 65
62 62 62 62 61 61 61 61 61 60 60 60 60 60 60 52 33 53 67 68 67 65 61 56 54 47 45 45 50 45 51 56 57 57 56 53 57 52 50 55 59 60 63 61 63
62 61 61 61 61 61 61 61 60 60 59 60 60 60 53 41 42 56 65 65 63 60 56 53 51 46 43 47 49 44 51 57 58 55 53 56 53 51 53 57 59 62 62 60 61
61 60 60 60 60 60 60 60 60 60 59 59 60 59 47 35 54 56 60 60 60 57 56 55 54 51 46 47 47 50 52 56 53 53 54 52 52 53 56 56 57 60 60 60 60
61 59 59 59 60 60 60 60 60 59 59 60 59 55 44 42 55 55 59 58 59 57 53 57 55 51 48 45 51 51 46 49 50 51 51 53 48 48 57 58 55 55 59 60 60
60 60 58 58 59 59 59 59 59 59 59 60 59 49 38 55 53 55 55 55 59 57 57 59 57 52 48 48 47 46 46 39 48 51 51 52 41 51 58 52 53 55 58 60 60
59 59 59 58 58 58 59 59 59 58 59 59 49 43 38 59 51 53 53 52 54 54 59 62 55 48 50 41 37 42 35 37 43 53 49 49 44 55 55 52 53 56 56 58 58
59 58 58 57 57 58 58 59 59 55 55 55 52 39 46 44 50 52 54 53 49 49 51 51 48 41 40 37 32 35 32 34 39 47 48 44 44 52 53 51 53 57 55 55 56
58 58 58 57 57 58 52 46 42 41 43 39 40 41 45 49 51 50 54 49 48 45 40 46 37 35 39 39 39 39 38 37 42 50 48 45 46 51 50 50 53 58 53 55 56
58 57 57 57 57 57 48 41 42 44 36 45 45 45 47 46 41 48 54 41 39 38 39 41 34 42 44 44 42 41 37 35 44 50 48 47 46 51 52 51 54 58 57 55 53
57 57 57 56 57 49 44 44 48 48 37 41 44 42 42 44 42 44 49 44 37 35 36 38 39 47 44 41 40 36 36 36 38 45 47 45 41 44 52 55 55 54 52 52 53
57 57 56 56 48 45 42 49 49 48 30 34 39 42 45 44 39 50 48 44 38 35 37 40 44 44 42 40 41 33 43 43 42 39 33 46 30 41 50 52 54 58 50 51 51
57 56 56 56 43 46 50 49 48 44 19 37 39 50 45 40 41 42 50 45 36 37 37 37 38 40 40 41 44 39 44 42 41 37 35 36 33 37 41 44 52 57 51 49 50
56 56 55 48 46 51 53 52 47 22 15 33 40 39 39 41 41 43 45 47 46 38 38 39 47 44 41 43 44 45 41 42 39 36 28 35 34 33 37 42 44 51 51 53 50
56 55 54 50 43 54 53 46 21 20 36 32 33 38 37 35 37 39 38 37 35 31 31 38 39 43 44 40 43 41 35 25 25 24 25 33 33 40 44 45 47 49 48 48 47
55 53 53 51 51 53 47 31 19 30 30 41 40 38 35 37 38 39 37 34 40 34 33 32 30 39 40 39 36 39 38 24 21 22 24 32 28 38 46 47 47 49 49 45 44
52 43 45 47 52 50 38 17 23 25 33 35 39 36 36 39 39 39 37 36 38 40 32 31 32 42 43 42 40 35 34 35 24 21 20 28 33 42 45 45 44 44 44 43 44
41 40 42 50 51 46 28 28 25 35 38 40 30 35 32 37 36 35 37 42 38 41 42 35 31 39 43 44 41 38 40 31 23 17 18 23 26 32 39 43 44 42 41 42 44
40 38 44 51 50 37 22 27 34 41 41 37 34 35 33 34 34 32 32 38 41 39 40 37 34 34 41 36 34 37 32 32 32 27 23 20 28 37 40 42 42 43 43 43 45
37 31 44 46 36 30 30 36 44 40 41 39 38 37 35 35 34 34 33 36 42 42 36 38 34 31 35 41 41 39 36 33 24 22 20 22 27 41 40 41 43 43 46 46 46
34 34 43 43 27 29 36 39 41 40 40 39 38 41 40 36 32 34 35 42 45 43 39 40 30 27 29 35 38 36 39 36 32 27 19 22 29 42 39 40 42 43 45 46 47
34 29 35 37 36 32 32 35 37 42 42 42 40 41 39 36 38 34 35 41 44 43 49 45 32 29 24 28 33 33 38 40 33 31 27 27 31 37 40 40 42 44 45 45 46
31 28 31 26 32 33 34 37 37 37 41 42 39 39 37 33 33 32 35 37 42 46 40 40 30 30 32 33 31 31 35 38 34 36 32 34 35 44 44 43 43 44 46 45 45
30 28 29 27 31 31 36 33 35 37 38 38 37 39 38 35 34 34 36 34 35 37 36 37 28 32 30 35 33 31 34 35 37 38 38 38 36 46 46 43 45 46 46 46 45
31 32 31 30 29 31 33 33 37 38 41 42 39 37 37 38 39 39 39 40 38 38 34 33 29 26 23 31 31 27 32 33 35 39 39 33 42 43 44 45 47 45 46 47 47

GFSSW_sfc_temp_075.txt.gz
Temp
63 64 64 63 63 63 63 63 63 63 63 62 61 61 62 61 60 57 51 58 61 67 67 61 61 62 61 57 58 58 48 47 50 51 54 58 59 61 64 63 65 65 64 67 70
63 63 63 63 63 63 63 63 62 62 62 61 60 60 61 60 53 49 60 65 64 67 61 56 53 58 55 55 56 52 48 50 56 58 54 56 57 57 60 60 60 62 67 67 68
62 62 63 63 62 62 62 62 62 61 61 60 59 60 60 58 47 48 65 67 64 66 63 59 56 55 51 53 53 52 49 55 58 58 59 57 56 58 57 57 57 57 61 65 66
62 61 62 62 61 61 61 61 61 61 61 60 59 59 59 53 35 54 65 68 66 63 61 56 53 50 48 47 53 49 54 58 58 58 57 54 57 55 55 60 61 61 64 65 65
62 61 61 61 61 61 60 61 61 61 60 60 60 60 54 43 44 58 64 63 62 58 56 53 50 50 46 51 51 50 54 57 56 56 54 57 53 53 55 59 61 63 64 64 64
61 61 59 60 60 60 60 60 60 60 60 60 60 59 48 37 55 57 59 58 59 54 55 55 51 53 50 50 50 52 55 54 55 53 54 54 53 57 57 61 61 62 61 64 64
60 60 60 59 59 60 60 60 59 59 60 60 59 55 45 44 55 55 58 56 57 56 52 57 56 53 52 47 53 54 48 49 52 51 50 55 51 51 60 60 59 60 61 62 64
60 59 59 59 59 59 59 60 59 58 59 60 59 50 40 56 55 56 56 56 56 58 57 58 57 53 50 53 50 48 47 42 49 52 50 51 45 55 60 57 57 59 61 61 64
59 59 59 58 58 58 58 59 59 58 59 59 49 45 40 59 52 54 54 52 55 56 56 61 54 49 49 43 41 43 38 39 43 53 49 48 45 56 58 57 55 58 60 61 62
59 58 58 58 57 58 58 58 59 55 54 55 52 41 46 44 50 53 54 53 49 50 51 51 46 42 41 40 33 35 37 40 42 47 49 46 46 53 55 55 57 57 59 59 61
58 57 57 57 57 57 52 46 42 40 44 39 40 41 45 49 52 49 53 50 49 45 38 45 37 36 41 43 44 41 41 42 44 49 47 45 46 50 53 52 54 58 57 59 61
58 57 57 57 57 57 47 41 42 44 35 44 45 44 47 47 41 47 54 42 39 37 43 39 34 42 45 46 43 43 39 40 46 49 48 45 45 51 51 52 54 56 56 58 60
57 57 57 57 56 49 43 43 48 47 36 41 44 42 43 45 41 43 48 43 36 35 39 38 39 44 44 43 41 40 39 38 41 45 48 46 43 45 51 52 53 55 57 59 59
57 57 56 56 49 44 42 49 48 48 26 35 39 42 45 44 39 50 50 45 36 35 39 41 43 40 42 41 43 37 44 44 42 40 34 46 34 42 48 49 51 54 58 59 58
57 56 56 56 43 44 50 48 48 44 14 37 39 50 45 41 41 43 50 46 36 37 38 37 39 38 39 42 45 41 45 43 42 39 40 39 37 41 46 45 49 53 57 60 58
56 56 55 48 45 51 52 52 45 23 15 33 39 38 38 40 42 43 45 48 46 40 40 39 46 44 44 44 46 45 42 42 39 39 31 38 38 38 41 46 51 56 59 61 58
56 55 52 49 43 53 52 45 23 20 35 33 33 37 36 35 38 39 39 36 32 31 32 38 39 43 45 42 44 43 38 29 27 28 28 36 34 42 47 48 51 53 56 59 55
54 54 52 50 52 53 47 31 19 31 32 42 39 36 34 36 37 39 36 32 38 36 35 32 30 40 43 41 39 40 38 28 23 24 28 34 30 41 49 50 51 52 54 53 51
53 43 44 47 52 50 39 18 22 24 33 37 39 34 35 38 38 38 36 36 37 37 32 32 32 42 43 43 42 38 32 38 27 26 26 32 36 44 47 49 49 49 49 49 49
41 40 42 51 52 45 30 28 25 35 38 39 33 37 32 36 36 36 36 41 37 40 42 37 31 40 42 44 43 40 42 32 27 21 22 27 30 36 43 47 48 48 48 48 47
40 38 43 51 50 39 22 28 34 40 40 36 36 36 33 33 34 32 33 39 42 40 43 40 37 35 42 37 36 37 34 34 34 31 27 24 32 40 43 46 44 46 47 47 47
37 31 43 49 36 32 29 34 43 39 40 40 38 37 35 35 33 32 34 37 43 43 38 40 38 32 34 42 42 40 37 35 28 25 24 27 31 46 45 43 44 45 47 47 48
34 34 42 46 26 28 34 38 40 39 39 39 38 40 39 36 32 34 36 42 43 42 39 40 31 28 31 38 38 36 38 36 33 29 22 27 32 44 44 46 47 47 47 48 48
33 28 34 36 34 31 32 33 35 41 40 41 39 40 38 36 37 35 35 41 44 43 48 44 33 30 25 29 33 32 35 36 34 29 28 30 34 43 44 44 48 48 48 48 48
31 28 30 25 31 31 33 35 35 35 40 41 38 38 35 32 33 32 36 38 43 46 42 40 28 28 34 35 33 33 35 36 32 36 32 35 35 43 47 47 48 49 47 46 47
30 29 28 27 30 29 34 32 34 36 36 36 36 38 36 34 33 33 35 35 36 38 37 37 27 30 28 34 33 32 34 35 37 38 38 39 38 49 48 47 47 47 46 46 47
30 32 31 29 29 29 28 31 37 36 40 40 37 36 36 37 37 37 39 39 38 38 34 34 30 28 24 31 32 28 34 34 35 38 39 34 42 46 45 46 48 48 46 48 49

GFSSW_sfc_temp_078.txt.gz
Temp
63 63 64 64 63 63 63 63 63 63 63 62 62 62 61 61 61 61 57 63 65 67 67 67 68 66 66 63 67 68 56 54 58 60 61 63 65 67 71 71 71 73 71 72 76
63 62 63 63 63 63 62 63 62 62 62 61 61 60 61 60 59 56 66 66 65 66 64 62 61 61 60 61 63 60 55 58 68 69 62 61 64 62 68 69 69 71 73 70 70
63 62 62 63 62 62 62 62 62 61 61 61 60 60 59 60 53 56 64 65 67 65 62 62 63 60 54 62 60 61 56 66 67 70 65 62 62 63 67 63 66 65 70 67 68
62 63 61 62 62 61 61 61 61 61 61 61 60 60 60 58 40 60 65 66 68 65 58 56 58 55 55 54 62 56 63 64 64 65 64 62 64 62 63 65 68 70 72 66 66
62 61 62 61 61 61 61 61 61 61 60 60 60 60 58 50 52 64 63 65 66 61 55 54 54 58 53 58 59 57 61 64 66 62 63 63 60 61 63 68 69 72 72 67 67
62 60 61 61 60 60 60 60 60 60 60 60 60 59 54 44 63 65 64 62 60 56 55 55 52 63 59 58 56 60 59 63 60 59 60 60 59 61 64 68 70 70 71 70 69
61 60 60 59 60 60 60 60 59 59 60 60 59 60 51 50 64 64 62 60 56 55 53 57 54 57 62 56 62 60 51 56 57 58 58 60 55 57 69 68 69 71 73 72 72
61 60 59 59 59 59 59 59 59 59 59 60 59 57 49 62 66 62 63 57 58 58 56 58 55 57 58 60 58 55 57 44 57 57 55 58 50 64 71 67 67 70 72 72 73
60 59 59 59 59 58 58 59 59 59 59 59 56 52 47 63 57 60 62 55 54 56 58 61 54 52 55 52 48 51 47 50 50 59 53 55 52 64 68 67 66 69 70 70 71
59 59 58 58 57 58 58 59 59 58 58 59 57 47 53 49 56 57 60 57 52 50 50 50 46 45 51 49 40 44 47 48 49 52 54 53 55 57 59 61 67 70 71 70 68
59 58 58 57 57 58 57 57 51 48 51 46 46 46 49 55 57 54 57 53 51 47 39 44 38 38 48 54 55 52 48 45 51 52 53 52 53 57 62 63 65 68 70 71 69
58 57 58 57 57 56 56 51 50 52 43 49 49 49 51 52 46 50 57 46 44 37 43 39 35 45 52 53 52 52 49 49 52 55 54 53 52 59 61 61 62 64 70 71 70
57 57 57 57 56 55 53 51 56 55 45 44 48 47 48 50 45 44 50 45 38 38 37 38 40 48 50 48 49 50 49 49 49 52 54 52 50 54 59 60 63 65 68 71 71
57 57 56 56 51 54 51 55 56 56 36 36 42 46 48 48 42 47 49 46 38 37 40 42 44 43 47 47 52 43 53 52 49 49 43 54 45 53 57 55 59 64 67 68 70
57 56 56 56 53 51 54 57 56 53 27 37 41 53 49 44 45 42 52 48 37 38 42 38 39 38 43 48 53 48 52 51 51 50 47 46 43 53 55 53 57 62 66 68 70
56 56 55 54 54 54 57 57 54 33 25 33 41 41 42 44 45 46 47 48 49 43 42 41 47 42 49 50 52 53 50 49 48 45 37 47 45 50 52 55 60 64 65 66 69
55 55 55 56 51 56 56 52 33 30 39 33 34 40 39 38 41 41 40 41 39 33 32 39 39 45 48 46 51 52 48 34 31 32 36 45 43 50 58 59 60 62 64 68 69
54 55 54 56 55 55 54 41 31 35 34 42 37 37 34 39 38 39 39 36 44 40 36 34 30 39 49 47 45 48 49 39 30 32 39 42 40 51 59 59 59 61 64 66 69
53 54 53 53 55 54 46 33 33 35 40 40 37 34 34 37 40 41 40 39 42 42 36 35 33 43 47 48 49 43 41 46 38 36 38 44 48 56 59 60 60 59 59 61 64
53 52 50 53 54 49 39 34 35 40 43 43 37 40 38 39 38 37 41 45 40 43 46 42 33 41 44 47 49 48 50 39 38 30 31 38 42 49 54 56 58 58 58 60 61
52 48 49 52 52 43 36 36 40 45 46 41 40 39 39 37 41 40 41 42 44 43 46 46 43 36 45 42 44 44 43 44 45 40 37 37 44 57 55 55 55 58 57 57 58
49 40 48 50 39 38 42 42 45 45 46 45 45 45 44 43 42 42 41 44 48 48 42 46 44 34 36 46 48 47 45 48 38 35 38 39 44 58 57 57 55 59 57 56 56
47 43 49 47 37 41 44 44 46 45 45 44 45 47 48 44 40 43 44 48 50 48 46 48 41 32 32 41 45 42 46 46 44 40 34 37 45 54 56 56 57 59 59 57 57
47 38 44 44 46 42 42 41 42 47 47 48 46 49 47 44 46 42 43 47 49 50 49 50 44 40 36 38 44 37 42 44 41 34 40 41 46 52 54 55 57 60 61 60 58
46 40 41 37 42 42 43 42 41 41 47 48 46 45 45 42 43 42 44 46 49 49 48 49 37 38 41 41 39 39 40 42 35 41 36 45 47 52 56 60 60 59 59 59 58
44 41 41 41 39 41 41 40 40 41 43 43 43 44 46 43 44 42 46 46 46 48 47 46 37 38 36 41 40 37 43 43 44 44 44 46 45 57 59 59 57 59 59 56 58
40 42 46 36 39 42 40 39 39 41 44 46 44 45 44 43 47 49 50 49 50 48 46 44 41 37 34 38 39 35 42 43 44 47 46 40 48 55 53 54 55 57 59 59 60

GFSSW_sfc_temp_081.txt.gz
Temp
64 63 63 64 63 63 63 63 63 62 62 63 62 62 62 62 61 64 58 67 67 68 68 69 70 68 71 66 63 64 49 51 60 60 65 69 68 70 75 75 75 77 75 74 75
63 63 63 63 63 63 62 62 62 62 62 62 61 61 61 60 61 58 68 67 68 67 64 65 62 64 62 63 61 55 50 55 69 70 66 68 69 68 70 72 72 74 77 73 73
63 63 63 62 62 62 62 62 62 62 61 61 61 61 60 63 53 55 65 65 66 67 65 64 66 62 57 65 60 57 50 66 71 74 69 67 66 68 70 67 70 68 72 67 70
63 61 62 62 61 61 61 61 62 61 61 61 61 60 60 62 39 62 65 66 66 66 61 60 59 56 54 57 64 56 62 66 68 68 64 67 70 65 67 68 73 74 74 67 67
62 61 61 61 61 61 61 61 61 61 61 61 61 60 60 53 54 68 65 67 68 60 54 55 55 57 54 59 63 58 64 68 67 68 68 70 67 65 66 71 73 76 75 67 67
62 61 60 60 60 60 60 61 60 60 60 60 60 59 58 47 66 68 66 65 62 58 54 55 54 62 60 61 60 62 64 65 64 66 66 64 64 68 67 72 72 73 74 71 68
61 61 60 59 60 60 60 60 60 60 60 61 60 63 55 54 67 67 65 63 59 55 54 54 53 50 62 59 64 63 56 60 61 62 61 66 60 61 68 70 70 73 75 74 74
61 60 60 59 59 59 59 59 59 59 59 60 59 61 52 65 69 65 66 61 58 54 52 54 54 51 61 65 59 55 57 48 57 62 60 61 53 65 72 70 68 71 74 73 74
60 59 59 59 58 59 58 59 59 59 59 60 58 56 50 64 59 63 65 57 57 54 54 56 51 49 59 54 48 51 46 50 53 62 57 56 55 64 69 69 67 69 73 74 73
60 59 59 58 58 58 58 58 59 59 60 63 61 49 56 52 58 60 64 60 54 50 48 46 45 41 50 50 40 46 50 53 51 55 57 54 56 61 62 65 65 70 71 74 72
59 58 58 58 58 57 57 58 52 49 54 50 50 50 52 58 61 56 60 55 54 43 39 43 37 35 50 56 58 57 54 53 59 60 55 55 56 61 65 64 64 67 70 73 74
58 58 58 58 57 57 59 54 54 56 46 52 52 52 55 56 49 52 60 47 47 35 43 39 35 44 55 58 54 55 49 48 54 57 56 57 56 62 65 64 66 69 70 72 75
57 57 57 57 56 55 57 55 61 59 48 47 51 50 51 53 47 47 52 47 42 36 38 37 40 49 51 52 50 52 51 51 51 54 57 57 54 57 63 66 68 70 72 75 74
57 57 57 56 51 59 54 59 61 60 36 38 45 48 51 52 40 48 51 46 41 36 39 43 44 47 48 50 55 48 58 56 52 48 42 55 45 57 60 61 64 66 68 70 74
57 56 56 55 57 53 57 61 61 56 28 39 44 56 53 45 46 41 50 47 38 39 39 37 39 42 45 50 56 51 58 55 54 51 51 50 46 55 61 58 61 65 68 71 73
56 56 56 56 58 59 62 60 56 33 25 34 44 44 45 47 47 47 45 48 49 42 45 42 48 45 49 55 56 55 53 53 53 50 37 48 48 52 57 59 63 67 69 70 72
55 56 56 61 52 60 61 53 33 31 41 34 36 43 43 42 44 40 39 40 38 33 33 38 39 44 49 47 53 53 47 35 33 33 36 51 47 52 61 63 63 64 68 72 73
56 56 55 60 59 60 56 42 30 38 35 41 40 41 39 44 42 43 42 41 45 40 35 33 30 41 51 49 46 50 50 39 31 33 39 48 41 52 63 65 64 65 67 69 72
54 59 58 55 58 57 46 34 34 37 44 39 39 35 37 40 43 44 43 43 46 47 39 36 33 44 48 52 52 47 43 50 42 44 41 46 52 60 63 63 64 64 64 65 67
57 55 53 56 56 53 40 35 38 46 48 47 38 43 39 42 42 41 44 49 44 47 51 46 33 40 48 51 52 49 55 41 40 31 32 41 45 51 56 58 61 62 63 65 67
56 47 51 55 56 46 36 41 45 49 49 43 44 41 47 44 45 43 46 46 47 46 49 49 45 37 47 39 43 46 44 47 48 43 37 38 45 62 57 59 59 61 61 61 63
54 40 50 54 40 42 46 47 47 48 50 48 49 50 47 47 46 46 44 47 50 49 45 50 46 34 39 50 52 51 50 50 39 38 42 41 45 63 61 61 61 62 61 62 62
51 44 48 48 38 44 48 47 50 48 49 48 48 50 52 48 44 47 47 51 52 50 46 51 42 31 34 44 49 45 50 50 50 42 38 38 45 61 62 60 61 61 63 63 62
52 38 45 44 50 46 46 46 45 50 50 51 50 52 50 47 50 46 46 49 53 52 50 51 46 42 36 40 47 41 46 49 44 35 41 43 48 55 57 58 60 62 65 65 62
52 49 49 38 46 48 48 48 46 44 51 52 49 50 49 45 46 45 48 48 51 50 51 51 39 40 43 45 42 42 44 46 38 42 38 46 48 55 59 61 64 65 63 62 63
49 48 48 48 47 48 44 46 46 45 47 47 47 49 51 47 47 45 49 50 48 51 51 52 39 40 37 45 43 39 45 46 46 47 46 47 46 58 62 63 62 62 61 61 62
50 50 52 43 47 47 47 47 45 47 48 50 49 50 47 46 50 52 54 54 54 51 49 48 44 39 36 42 42 36 43 46 47 50 48 42 50 58 57 58 59 59 60 60 62

GFSSW_sfc_temp_084.txt.gz
Temp
64 63 64 64 63 63 63 63 63 63 62 62 62 62 62 62 61 60 55 64 66 70 67 65 66 65 66 62 61 62 47 47 53 59 58 68 64 68 72 68 70 70 64 68 73
63 62 63 63 63 63 62 62 62 62 62 62 62 62 62 61 59 57 67 69 68 68 61 57 59 62 56 59 57 52 47 50 62 65 61 64 65 65 65 66 67 68 69 72 71
63 63 62 63 62 62 62 62 62 62 62 62 61 61 61 61 53 54 65 66 67 67 63 58 59 58 53 58 56 52 48 56 59 64 63 64 63 65 63 62 64 63 64 65 68
63 63 62 62 62 62 61 62 61 61 61 61 61 61 61 59 38 60 65 66 67 66 61 55 55 51 50 50 59 50 55 59 59 60 61 62 66 61 63 63 69 70 69 66 67
62 62 61 61 61 61 61 61 61 61 61 61 61 61 57 51 52 67 67 68 66 62 56 51 51 51 49 53 57 53 57 60 61 56 61 63 62 61 61 67 70 72 69 64 66
62 61 61 60 60 60 60 60 61 61 60 61 61 60 54 44 66 68 66 65 61 59 55 54 51 55 53 56 55 59 59 60 60 56 55 60 61 62 63 67 68 70 68 65 66
62 61 60 60 60 60 60 60 60 60 60 60 61 60 53 52 67 67 66 60 58 53 51 56 53 48 51 53 62 62 54 58 53 54 54 61 54 55 64 66 65 67 67 67 66
61 61 60 60 59 59 60 59 59 60 60 60 61 58 48 65 66 65 66 59 59 55 50 54 55 50 49 56 59 52 53 45 55 54 55 57 47 60 64 62 62 63 66 67 68
61 60 59 59 59 59 59 59 59 60 60 60 56 55 48 63 59 63 64 57 57 54 52 55 52 47 49 43 45 47 41 45 49 58 56 54 48 62 65 63 60 59 62 67 67
60 59 59 59 59 58 58 58 59 58 59 62 60 48 52 51 58 60 63 60 53 51 46 45 44 38 43 43 34 40 42 46 46 50 52 50 49 57 56 57 59 60 63 64 65
59 58 58 58 58 58 56 54 49 48 54 49 49 50 54 58 62 57 60 56 52 45 36 40 35 34 42 49 51 49 48 46 51 55 51 50 51 54 57 56 55 58 61 64 66
58 58 58 58 58 57 56 49 52 54 45 53 53 53 56 56 48 53 58 47 46 34 36 38 34 42 50 53 53 52 47 45 49 55 53 50 50 55 60 57 59 61 62 64 67
58 57 57 57 57 55 53 56 60 60 44 48 52 51 51 53 46 46 50 48 40 35 38 36 39 45 47 46 47 50 47 43 44 50 52 50 46 51 57 59 61 62 63 66 68
57 57 57 56 51 56 53 60 60 59 35 39 45 48 52 52 39 49 52 46 42 36 40 39 44 41 44 45 50 43 54 53 50 44 37 49 33 48 54 54 58 58 59 61 67
57 57 57 56 52 52 56 60 60 53 23 40 44 58 54 45 42 43 50 47 40 39 39 36 41 42 44 48 53 47 54 52 50 44 44 41 34 43 54 51 55 58 58 60 62
56 56 56 55 55 58 61 60 54 33 23 34 45 45 45 48 45 45 44 46 47 41 44 41 48 44 43 52 53 53 49 50 48 44 28 42 40 40 46 51 53 58 60 61 62
55 55 55 61 51 60 59 50 32 29 41 35 36 44 45 42 41 40 40 40 36 31 32 38 38 45 48 45 50 48 43 28 25 23 26 44 38 42 51 55 56 53 55 59 62
55 56 55 59 59 59 53 40 30 37 35 42 41 43 39 44 42 45 43 39 44 41 34 32 29 40 48 45 42 44 43 30 24 24 29 42 32 43 54 57 57 58 56 58 59
55 55 55 54 58 56 45 32 33 36 42 40 40 37 38 42 43 44 43 40 42 44 35 33 32 44 47 48 47 42 35 44 35 35 29 36 42 48 55 53 55 55 56 54 55
53 53 50 56 57 51 39 35 36 46 49 46 36 40 37 40 41 40 42 47 44 47 48 43 30 40 45 48 49 46 48 35 32 23 24 32 36 40 46 49 52 51 50 53 54
50 46 49 55 54 44 35 40 45 50 51 45 44 43 43 41 43 41 43 45 47 45 47 46 39 36 44 39 39 41 39 42 41 34 26 25 33 49 49 51 50 51 52 50 51
50 38 50 54 39 41 41 47 47 48 51 49 48 49 46 46 43 44 44 44 49 48 42 46 41 31 36 46 49 47 42 43 29 30 31 30 33 53 51 52 53 52 55 52 53
47 43 49 49 35 40 46 47 50 47 48 48 48 50 50 46 41 45 45 50 50 47 44 46 38 30 31 39 44 40 45 46 43 35 29 25 34 53 50 51 53 51 52 54 54
48 36 41 43 46 42 44 44 44 49 50 51 50 51 48 45 47 44 43 48 50 50 50 47 42 35 26 32 39 35 42 44 38 28 32 33 37 43 48 50 52 53 51 53 54
47 42 45 35 41 45 47 48 45 43 49 51 47 49 47 42 44 43 46 45 48 49 46 45 34 32 37 42 38 37 40 42 34 38 29 38 42 48 49 50 52 54 55 54 53
44 43 44 45 48 46 44 44 46 45 47 46 46 48 48 44 43 42 46 44 43 46 43 46 32 34 31 43 41 35 40 41 42 43 42 42 41 52 54 55 54 53 54 54 55
46 48 44 44 43 43 43 46 47 48 47 50 49 47 45 45 47 47 49 50 48 45 43 42 37 31 27 37 38 30 39 41 42 45 44 37 45 51 49 52 51 51 53 54 55

GFSSW_sfc_temp_087.txt.gz
Temp
64 64 63 63 63 63 63 63 63 63 63 62 62 62 62 62 61 58 51 58 63 70 68 62 61 60 61 57 59 61 48 44 46 51 54 62 61 65 68 65 66 64 63 69 70
63 64 63 63 63 63 62 62 62 62 62 62 62 62 62 61 55 52 62 69 66 68 60 56 54 56 51 54 54 50 46 47 56 54 55 61 61 63 64 63 61 63 66 69 69
64 63 63 63 62 62 62 62 62 62 62 62 62 62 61 60 49 49 65 67 67 67 61 58 56 51 48 52 52 50 46 55 55 57 57 61 59 63 61 57 59 58 63 66 65
63 63 62 62 62 62 61 61 62 62 61 61 61 61 61 55 36 55 66 66 66 65 58 54 52 46 45 46 54 48 54 55 57 57 57 59 62 58 59 60 66 65 65 65 65
63 63 62 62 61 61 61 61 61 61 61 61 61 61 55 46 48 64 68 67 65 59 54 50 47 46 45 47 52 49 51 54 58 58 57 60 57 58 57 64 66 67 66 65 65
62 62 61 61 61 60 60 61 61 60 61 61 61 60 50 39 60 63 63 62 58 57 53 52 48 51 48 50 48 53 55 56 58 55 56 53 55 57 59 62 65 64 63 63 65
62 61 61 60 60 60 60 60 60 60 60 60 61 58 48 46 61 62 65 59 56 54 50 54 52 47 47 49 56 55 50 54 52 55 54 55 50 51 61 62 62 62 61 63 67
62 61 60 60 60 59 60 60 59 59 60 60 61 53 43 62 58 61 62 56 56 54 51 52 52 49 46 51 51 49 49 42 50 52 54 51 41 58 62 58 59 59 59 60 64
61 60 60 59 59 59 59 59 59 60 60 60 52 47 43 63 58 59 59 55 54 53 52 54 52 45 47 42 41 45 39 41 44 53 52 50 42 55 59 58 56 57 59 61 61
60 60 59 59 59 59 59 58 58 58 57 59 57 45 50 50 55 58 61 58 52 50 47 44 43 37 40 40 34 37 40 44 43 48 50 47 47 51 56 56 56 57 57 60 62
60 59 59 58 59 59 54 49 44 42 48 44 46 47 51 55 58 55 57 54 51 45 36 38 36 33 36 39 42 46 45 44 48 52 48 47 48 51 54 53 51 52 54 56 61
59 58 58 58 58 58 54 45 49 48 42 52 52 52 55 54 46 50 54 45 44 34 36 37 33 41 45 45 46 48 44 43 49 52 49 46 46 52 53 53 55 55 56 57 59
58 58 57 57 57 51 48 51 55 53 41 47 51 49 49 52 43 44 48 46 40 35 35 34 38 46 45 45 46 44 43 40 45 47 48 47 44 49 53 54 55 56 56 58 59
57 58 57 57 50 51 50 55 55 53 32 38 44 47 50 46 39 49 50 45 41 35 38 36 44 44 43 43 44 39 48 45 45 43 34 47 34 45 50 50 52 52 53 56 58
57 57 57 57 50 50 54 55 54 47 12 40 44 56 51 44 42 43 50 46 38 39 39 36 39 40 41 44 48 43 49 45 45 43 41 41 35 42 48 46 50 51 52 55 57
57 56 56 52 52 56 55 53 48 27 18 32 42 43 43 44 43 45 45 46 47 42 43 39 45 42 42 47 48 48 48 47 44 38 27 38 34 35 40 50 49 50 53 56 58
55 55 54 58 49 55 54 44 30 19 38 35 33 44 42 38 40 41 40 38 36 27 30 37 37 42 46 42 46 44 37 28 27 24 26 39 35 38 46 50 52 53 52 54 55
55 55 54 56 53 53 46 33 20 35 32 41 40 40 35 42 42 41 38 36 40 38 34 27 25 39 44 41 40 41 41 26 22 22 27 39 31 40 50 52 53 55 55 55 51
55 48 48 49 54 49 41 22 25 31 39 36 38 32 33 39 40 40 36 36 39 41 30 28 32 44 46 45 44 39 30 42 31 30 24 31 38 47 48 48 48 49 52 50 52
45 49 46 53 51 44 36 32 31 41 45 43 33 37 31 35 35 35 37 42 40 44 43 37 31 41 44 46 47 44 45 32 27 23 23 28 31 36 42 45 48 47 46 50 52
46 43 48 53 49 41 31 32 41 48 47 44 38 37 37 36 38 36 36 41 43 42 42 41 35 34 43 36 38 40 37 39 38 32 26 24 30 42 45 47 46 46 48 48 50
46 36 48 51 37 37 32 42 47 45 47 44 43 43 41 40 37 37 38 40 44 44 38 42 35 32 33 43 45 43 41 39 27 29 27 27 30 47 47 48 50 49 51 48 50
43 40 48 47 31 31 40 44 46 44 44 44 43 46 48 43 39 41 40 46 46 44 39 42 31 23 30 36 41 38 41 42 39 33 27 25 31 49 46 49 49 49 50 51 50
40 34 40 42 40 34 38 39 40 46 46 48 45 46 43 41 43 40 39 46 47 46 50 46 37 30 23 30 36 32 40 42 36 26 30 30 35 40 45 48 50 50 48 49 50
41 35 40 33 33 36 40 42 40 39 45 47 43 44 42 37 39 42 42 41 45 48 45 42 30 29 35 39 35 35 37 39 30 36 29 38 38 46 44 44 47 51 52 52 50
39 37 39 36 40 36 40 39 41 42 43 42 41 45 43 38 37 39 41 38 39 40 40 42 30 31 29 39 38 33 37 38 38 39 38 39 38 48 48 51 49 50 51 51 52
42 43 41 39 37 35 36 41 46 44 44 46 44 42 40 41 41 41 42 45 46 42 39 39 34 28 23 35 35 29 36 38 38 41 40 34 44 44 45 48 48 48 49 49 51

GFSSW_sfc_temp_090.txt.gz
Temp
64 64 64 64 63 63 63 63 63 63 62 62 62 62 62 62 61 56 49 56 60 68 69 60 60 58 57 54 57 59 46 44 45 48 54 59 60 64 67 63 63 63 65 70 70
63 64 64 63 63 63 62 62 62 62 62 62 62 62 62 61 54 50 60 67 68 67 58 53 51 54 48 52 52 49 46 48 54 51 53 55 58 62 60 59 60 62 66 70 71
64 63 63 63 62 62 62 62 62 62 62 62 62 62 61 59 47 48 66 67 67 64 58 55 54 51 45 52 49 51 47 53 54 55 56 55 58 61 58 54 60 61 65 66 66
63 63 63 62 62 62 61 61 61 62 61 61 61 61 61 53 35 54 67 67 67 60 54 53 50 45 42 45 51 47 52 54 56 55 56 53 57 56 58 58 65 64 66 65 64
63 62 62 62 61 61 61 61 61 62 61 61 61 61 54 44 45 62 68 65 63 59 53 49 45 46 41 43 49 47 51 52 54 57 55 56 53 51 57 60 64 65 65 64 64
62 62 62 61 61 61 60 60 61 61 60 60 61 60 48 37 57 61 61 61 58 54 52 50 47 51 43 43 45 50 53 53 53 55 56 54 53 54 56 61 61 63 61 63 65
62 62 61 61 60 60 60 60 60 60 60 60 61 57 46 44 57 58 62 57 56 54 50 49 52 46 48 45 51 51 47 51 51 52 52 55 51 49 55 59 59 59 59 61 63
62 61 61 60 60 60 60 60 59 59 60 60 60 51 40 59 56 59 58 55 55 54 52 52 50 47 46 49 46 47 47 40 49 50 51 53 44 53 58 52 56 57 57 58 61
61 60 60 59 59 59 60 59 59 60 60 60 50 46 40 62 57 57 56 54 53 51 51 54 48 44 46 41 38 44 36 39 43 51 49 48 43 54 56 52 53 55 56 57 58
60 60 59 59 59 59 59 59 58 57 56 58 55 41 49 48 53 56 57 57 50 48 46 45 43 38 38 37 31 36 38 42 40 46 48 45 45 50 55 52 53 53 55 56 57
60 59 58 58 59 59 54 47 44 42 46 43 44 45 49 54 56 52 54 51 50 45 36 40 36 32 35 40 39 44 42 40 45 48 47 45 46 49 52 51 50 52 53 56 59
59 58 58 58 58 58 51 43 46 47 40 50 50 50 53 52 45 49 53 44 43 34 37 36 33 40 40 42 43 44 42 42 48 50 48 45 45 51 51 52 54 53 52 55 57
59 58 57 57 57 51 46 49 53 51 38 45 49 48 48 50 42 42 47 45 37 34 35 35 39 45 42 41 42 43 42 43 42 46 47 44 41 47 50 54 56 54 55 56 57
58 58 57 57 50 51 47 54 53 51 25 36 42 46 50 47 38 49 50 44 38 34 37 38 44 43 40 42 45 39 48 49 44 40 34 45 32 41 49 49 52 55 50 53 55
57 57 57 56 48 47 51 53 52 46 11 39 41 54 50 43 42 42 49 45 38 38 40 35 41 41 40 42 47 42 49 48 45 40 36 38 33 42 45 46 49 50 53 52 54
57 57 56 52 51 52 53 52 46 23 12 29 41 42 41 44 44 45 45 46 45 40 41 39 44 42 40 45 47 48 45 44 43 38 30 38 36 39 39 45 51 49 51 53 54
56 56 53 55 47 52 51 43 24 17 36 30 32 41 41 37 40 40 40 38 36 29 30 37 37 43 45 42 46 45 38 29 28 27 27 40 37 41 47 49 51 51 51 52 53
55 55 54 56 52 52 45 31 18 32 31 39 38 39 33 40 39 39 38 35 41 37 33 27 28 39 45 40 38 39 38 29 24 22 26 37 30 39 48 51 52 52 50 51 52
55 47 47 48 52 48 40 19 24 30 37 35 36 30 32 38 37 38 34 35 38 39 30 26 29 44 44 44 43 39 32 40 30 28 25 31 38 46 47 47 49 51 51 47 49
46 45 44 51 49 43 31 30 30 40 42 41 31 35 29 33 33 34 34 40 39 42 40 35 26 38 42 44 45 42 43 31 27 22 22 27 30 35 39 44 45 45 44 46 48
46 41 45 50 47 38 24 29 38 45 46 41 36 34 34 34 35 33 34 40 42 41 42 39 34 33 40 35 35 39 36 36 34 30 25 23 29 40 44 45 45 44 45 44 46
43 36 47 48 36 35 30 39 46 43 45 43 41 40 38 38 35 36 35 37 42 42 37 39 34 28 32 41 43 41 36 37 25 26 24 25 30 45 44 46 46 45 48 46 48
39 40 47 45 32 30 36 42 44 42 42 42 41 44 43 39 36 38 37 44 45 43 37 40 30 28 29 36 40 36 39 41 37 31 24 22 30 47 42 43 47 46 46 49 49
39 35 40 42 41 33 35 37 38 45 44 45 43 45 42 39 42 37 37 43 45 44 49 45 34 29 22 29 34 31 36 39 35 24 30 29 36 42 45 45 46 45 47 48 49
40 33 40 33 33 35 37 40 38 38 43 45 41 42 40 35 37 38 39 39 44 47 42 40 29 27 34 37 34 34 36 36 30 34 29 36 36 42 45 45 47 49 49 50 50
38 34 36 33 37 34 37 37 38 40 41 39 40 43 41 37 36 36 39 36 38 39 38 40 28 29 28 37 36 33 36 36 36 36 36 38 37 49 48 46 46 48 49 49 49
41 41 39 36 34 34 35 38 41 42 42 45 43 40 39 40 42 40 40 43 44 40 37 37 32 27 23 33 33 28 35 36 35 38 38 33 43 46 44 46 46 46 47 48 49

GFSSW_sfc_temp_093.txt.gz
Temp
63 64 64 64 63 63 64 63 63 62 62 62 62 62 62 61 61 54 47 55 58 67 66 58 57 56 55 51 54 55 44 41 43 46 52 60 59 63 65 63 63 64 65 69 68
63 64 63 63 63 63 62 62 62 62 62 62 62 62 62 61 52 48 59 66 67 66 57 51 48 52 46 47 50 46 42 45 51 51 52 56 58 61 60 58 58 61 67 69 67
64 64 63 64 62 62 62 62 62 61 61 61 61 61 61 58 45 47 65 67 67 62 57 54 51 49 44 47 46 47 43 51 55 56 55 57 56 60 57 55 60 61 63 64 65
64 63 63 63 62 62 61 61 61 61 61 61 61 61 61 52 34 52 66 67 68 59 54 50 49 42 41 41 47 42 50 52 55 55 54 53 55 54 56 58 64 66 67 65 64
63 63 62 62 61 61 62 61 61 61 60 60 61 61 53 43 43 59 67 64 61 57 51 48 44 43 39 40 45 45 49 53 52 52 54 54 51 51 54 59 62 65 66 65 64
63 62 62 61 61 60 61 60 60 61 60 60 60 60 47 36 55 57 59 59 56 53 52 50 46 47 42 42 42 47 50 52 53 51 55 52 51 53 55 58 60 62 62 64 64
62 62 61 61 60 60 60 60 60 60 59 60 60 56 45 43 55 57 59 55 54 53 50 50 50 46 45 41 48 48 43 49 48 50 51 54 49 49 53 57 57 58 60 61 63
61 62 61 60 59 59 60 60 59 59 59 60 60 50 40 57 55 56 55 53 54 53 52 51 51 47 44 46 44 42 44 38 49 48 50 50 44 50 53 51 53 53 56 59 61
60 61 60 60 59 59 59 59 59 59 59 59 49 44 39 60 53 55 54 52 52 51 51 54 49 43 43 36 37 39 34 38 42 48 47 47 45 50 53 51 51 52 53 57 58
59 59 60 59 58 59 59 58 57 56 56 57 54 40 47 46 52 55 54 54 49 47 46 44 42 35 35 36 29 34 35 39 41 45 45 44 45 50 51 51 48 51 52 54 56
59 59 59 58 58 58 53 47 43 41 44 42 43 43 47 52 54 50 52 49 49 44 36 40 34 31 34 38 37 41 37 36 41 47 43 42 43 48 50 49 46 48 51 53 57
58 58 58 58 58 57 50 43 45 46 38 48 48 48 51 51 43 48 52 43 42 34 37 36 32 38 41 39 38 41 38 38 44 46 46 43 41 48 50 47 47 48 50 53 56
57 56 58 58 57 51 46 47 52 50 37 44 48 46 47 48 41 43 47 43 38 34 35 34 38 42 38 36 37 38 40 41 41 45 45 43 39 42 48 50 51 51 51 53 55
56 56 58 57 49 48 45 52 51 50 22 35 41 45 48 46 38 48 48 42 36 34 37 39 43 39 36 38 42 36 46 45 42 39 35 43 31 41 47 48 50 50 49 51 54
56 56 57 57 47 45 51 51 50 44 10 38 40 52 48 43 43 43 48 44 37 39 39 36 39 36 36 40 44 40 48 44 42 38 37 38 34 40 44 45 48 48 49 51 52
55 56 57 52 48 50 51 51 45 21 12 28 40 40 40 43 43 45 44 45 46 42 43 40 45 42 40 44 46 48 44 41 39 37 28 36 35 38 38 44 49 53 49 51 53
55 56 53 53 44 51 50 42 24 14 35 30 32 39 38 37 40 39 39 39 36 32 31 37 37 44 44 41 46 44 39 29 27 27 28 38 34 38 46 49 48 51 50 51 52
55 56 54 54 50 50 44 31 14 30 27 38 37 37 31 38 38 39 36 33 39 36 29 30 24 39 43 39 39 37 37 29 24 22 25 37 32 39 47 49 49 51 50 50 50
54 48 47 47 50 48 37 19 22 28 35 34 35 30 31 36 36 37 33 33 37 38 32 27 30 43 45 44 42 38 34 39 30 29 25 30 35 46 48 48 48 49 50 50 50
47 45 44 49 49 43 30 29 28 38 40 39 31 33 28 31 32 33 33 37 38 40 38 33 28 38 43 46 45 39 44 32 30 26 22 25 29 34 41 45 48 47 47 47 48
48 40 45 49 47 38 25 28 35 43 43 38 34 32 33 32 33 31 33 38 40 40 40 36 32 32 39 35 35 40 35 34 33 28 24 23 29 38 43 45 43 43 46 46 47
44 35 46 47 36 34 29 35 44 41 43 41 40 38 36 35 34 32 32 35 42 41 35 37 33 24 30 39 41 39 35 34 25 26 22 25 30 42 41 42 45 45 49 48 49
40 40 47 46 27 28 34 40 42 40 40 40 39 42 41 37 33 35 35 43 44 41 36 38 29 19 26 33 39 35 37 37 33 30 23 22 30 44 42 44 44 43 45 48 48
40 34 40 42 41 33 34 36 37 43 42 43 42 42 40 37 39 35 35 41 44 43 48 44 32 29 22 28 33 31 34 36 33 22 27 27 33 39 41 42 44 45 46 48 48
40 33 38 32 35 36 35 38 36 37 41 43 39 41 39 34 35 34 37 37 42 45 41 39 29 26 32 34 33 33 33 34 27 33 29 35 35 41 43 44 45 46 47 47 48
37 34 35 32 35 33 33 36 37 38 39 38 38 41 39 36 37 35 37 34 35 39 37 38 27 28 28 35 33 32 34 34 34 34 35 35 35 48 49 45 45 46 47 47 48
39 40 39 35 32 32 33 36 40 41 42 43 42 39 38 39 39 39 39 41 39 38 36 35 31 27 23 30 32 26 32 33 33 35 36 31 39 41 42 45 45 46 47 47 47

GFSSW_sfc_temp_096.txt.gz
Temp
64 64 64 64 64 63 63 63 63 63 62 62 62 62 62 61 60 52 46 54 56 66 65 56 55 54 53 49 52 53 43 41 45 44 47 58 59 61 64 61 63 65 63 67 66
62 64 64 64 64 63 63 62 62 62 61 61 61 62 61 61 50 46 57 65 67 67 55 50 47 49 44 45 48 47 42 44 51 54 51 58 57 60 58 58 59 61 66 66 66
62 63 64 64 64 62 62 62 62 62 61 61 61 61 61 57 44 45 64 67 67 63 56 53 49 47 41 45 44 44 41 49 54 54 54 53 56 58 56 55 60 61 62 64 64
62 62 63 63 63 62 62 61 61 61 61 61 61 61 60 50 33 51 66 67 67 58 54 49 46 40 39 38 44 39 47 50 53 55 55 50 54 52 55 57 62 69 66 64 64
62 61 61 62 62 61 61 61 61 61 60 60 60 60 52 41 42 58 66 63 59 56 50 47 42 41 37 39 42 40 44 50 53 53 52 54 52 50 53 57 62 65 65 64 65
61 61 60 61 61 61 61 60 60 60 60 60 60 59 46 35 53 56 57 57 56 52 50 49 44 45 41 40 40 43 45 48 52 53 51 50 51 51 54 56 59 63 63 64 65
61 61 59 59 60 60 60 60 60 59 59 59 60 55 43 42 53 54 57 54 53 51 48 51 50 45 43 39 46 45 40 45 48 51 47 48 47 48 52 56 56 60 64 63 64
61 60 59 59 59 59 59 60 59 58 59 59 59 49 38 55 53 54 54 52 52 53 51 52 51 46 45 45 41 39 42 35 46 49 49 43 40 48 51 52 51 55 58 62 63
61 60 59 58 58 59 59 59 59 58 59 59 48 43 38 58 51 54 54 51 50 51 51 53 49 43 43 37 34 36 28 33 41 49 45 41 39 48 51 51 49 50 54 58 60
61 59 57 57 58 58 58 58 57 56 55 56 53 39 45 45 50 53 53 53 48 46 46 43 39 37 37 34 26 28 31 34 38 44 45 40 35 44 49 49 48 48 51 54 56
60 58 56 56 57 58 54 48 43 41 43 41 42 42 46 51 52 49 51 48 47 43 35 39 32 30 33 37 37 35 35 35 40 46 42 40 39 43 49 47 48 48 49 53 56
59 57 56 56 57 58 50 42 45 46 37 46 46 46 49 50 43 48 52 41 40 34 37 35 31 39 39 40 38 37 35 38 41 45 43 41 40 43 47 47 48 49 49 52 54
58 56 55 55 57 51 46 46 50 48 37 42 46 45 45 48 42 43 46 42 37 34 33 32 36 42 37 37 36 36 37 38 38 42 45 42 38 41 44 50 48 50 51 50 53
58 56 55 55 49 47 45 51 51 49 21 34 39 44 47 46 38 49 49 42 36 34 36 36 42 39 35 37 42 33 43 42 40 37 33 42 30 38 42 45 47 47 48 51 52
57 56 55 55 48 45 50 50 49 44 10 37 39 51 47 41 41 42 48 43 36 38 37 35 37 36 35 39 42 37 45 43 41 38 37 37 33 38 41 41 44 47 48 51 52
56 55 54 51 49 49 50 50 45 21 11 27 39 39 39 42 43 45 43 45 45 40 42 37 37 38 40 43 44 46 42 39 38 36 28 35 34 36 40 44 46 48 49 50 52
56 55 52 53 45 49 49 42 24 13 34 29 32 38 37 36 39 40 39 39 34 30 30 37 39 44 42 40 44 42 35 25 25 26 25 36 33 40 46 49 46 49 49 49 50
55 54 52 53 51 49 44 32 14 29 26 36 36 36 31 37 37 38 36 33 37 33 26 22 27 38 44 40 38 37 36 26 23 24 26 36 31 38 47 48 47 46 47 47 48
54 48 47 48 50 47 37 20 21 27 34 34 34 30 31 35 34 35 32 32 35 37 28 26 31 43 43 44 42 38 29 37 28 28 24 30 36 45 47 47 47 46 47 46 47
47 46 45 50 48 42 31 28 28 36 38 38 30 31 27 31 32 32 32 36 37 39 36 32 31 40 44 46 44 41 41 29 27 22 21 25 28 33 40 44 47 46 45 46 47
47 41 46 49 47 38 27 27 34 41 41 37 32 30 31 30 31 29 31 37 39 39 38 34 31 33 37 35 35 36 35 33 32 28 25 23 29 38 40 42 45 42 44 44 45
43 34 46 48 36 37 31 33 43 39 41 39 38 37 34 33 32 30 30 33 41 40 35 36 31 27 29 38 40 38 34 33 26 26 22 24 29 40 37 39 44 43 45 44 45
39 39 47 46 29 31 32 38 40 39 39 39 37 40 39 35 32 33 34 42 42 40 35 37 28 19 26 33 37 34 35 34 32 28 22 21 29 43 38 42 44 43 47 47 48
40 34 39 42 41 31 32 34 36 41 41 41 39 40 38 35 36 33 33 41 43 41 47 43 31 28 21 28 31 31 34 34 31 22 26 26 30 37 41 42 44 45 45 45 47
39 33 37 32 35 36 33 36 35 35 40 40 38 39 38 31 32 32 35 37 42 44 39 38 28 25 31 33 33 33 34 32 26 30 26 31 32 38 41 41 43 45 46 46 48
36 33 35 32 36 37 36 34 35 37 38 36 36 38 37 35 35 34 35 32 33 39 35 36 26 28 28 33 33 32 32 32 33 33 33 32 33 42 42 43 44 44 45 45 46
38 39 37 38 31 35 31 35 38 40 39 41 41 38 37 37 38 39 36 39 38 35 34 33 30 26 22 29 30 26 31 32 32 33 34 30 37 39 40 42 42 44 45 45 46

GFSSW_sfc_temp_099.txt.gz
Temp
64 63 62 64 64 64 63 63 63 63 63 62 62 62 62 61 60 54 48 56 58 66 64 59 57 55 56 52 55 56 43 41 46 48 49 58 57 65 69 63 65 65 64 66 67
64 63 62 62 63 64 63 63 62 62 62 61 61 62 61 61 52 47 58 65 66 66 57 53 50 51 48 49 51 47 41 44 54 55 52 56 57 61 62 61 62 62 64 65 65
64 63 62 62 61 63 63 62 62 62 62 61 61 61 61 57 46 47 64 66 67 63 57 54 52 49 44 48 47 47 40 50 52 56 56 54 55 57 58 59 64 61 61 63 62
65 63 62 61 61 62 62 62 62 62 62 60 61 61 60 52 36 53 66 67 66 59 56 51 48 43 40 40 47 41 48 49 51 55 55 53 56 53 57 61 61 67 64 63 63
64 64 62 61 61 60 60 61 62 61 61 60 60 60 53 43 44 58 65 63 59 56 51 48 44 42 38 40 43 41 45 49 52 53 54 55 53 53 54 60 62 64 65 62 62
63 64 61 60 59 59 59 61 61 60 60 59 60 59 48 37 54 57 57 57 57 54 51 49 45 46 41 40 40 45 46 46 49 51 53 49 52 50 57 58 58 61 63 65 64
63 62 61 59 59 59 59 60 60 60 60 59 60 55 44 43 55 55 57 55 55 53 49 51 51 44 44 39 46 45 40 44 46 49 49 50 47 48 54 56 55 57 65 64 65
62 62 60 59 58 58 58 59 60 59 59 59 59 49 39 55 54 55 55 53 54 54 52 52 52 46 41 45 41 38 40 34 44 48 50 49 40 49 51 54 53 56 66 63 64
61 61 61 58 56 56 56 58 59 59 59 59 48 44 39 58 52 54 54 51 51 51 51 54 49 40 40 36 34 37 30 34 40 50 44 45 39 49 50 52 52 53 59 64 64
60 59 60 57 56 55 56 57 57 56 55 55 52 40 46 45 51 53 53 53 48 47 45 44 40 36 36 34 25 30 31 36 38 44 45 39 38 43 49 50 51 51 53 63 62
59 59 58 57 56 55 53 49 44 42 44 40 41 42 46 51 53 50 52 48 47 43 35 39 32 29 32 36 37 34 36 37 42 46 43 41 40 43 46 47 49 51 52 55 61
58 58 57 57 56 55 50 44 46 47 37 44 45 45 49 50 42 47 52 41 39 34 38 34 31 37 41 40 37 32 35 37 43 46 45 42 41 44 45 46 49 51 53 54 55
58 58 57 56 55 51 46 47 52 48 37 42 46 45 45 48 42 43 47 42 37 33 34 31 36 40 37 37 35 32 35 37 38 42 44 42 39 42 47 47 50 53 54 55 56
57 57 56 55 49 47 45 52 51 48 22 34 39 44 46 46 39 49 50 43 37 33 35 34 38 38 35 35 37 32 42 44 40 39 33 42 31 39 43 44 47 53 53 54 56
57 57 55 55 46 44 50 51 48 44 11 37 39 51 46 42 43 44 50 42 36 36 35 35 37 34 35 38 42 38 44 42 41 39 38 37 34 39 42 42 47 52 54 55 56
56 57 55 50 48 49 51 49 45 22 11 27 39 39 40 42 43 46 43 44 45 37 36 35 40 40 40 43 43 46 41 40 40 38 30 37 38 39 41 43 47 53 55 56 56
56 56 53 52 45 50 50 42 24 14 33 30 32 38 37 37 40 40 40 39 34 30 30 35 36 43 43 40 44 42 37 28 27 27 29 37 37 40 47 48 49 52 53 55 56
56 54 52 51 50 50 44 32 15 29 27 36 35 36 33 37 37 37 35 32 37 34 30 29 30 38 44 40 38 38 37 28 23 25 28 37 33 40 48 50 49 50 50 51 53
55 48 47 48 50 48 36 19 22 27 34 33 35 32 32 35 35 35 33 32 35 36 30 32 32 43 43 44 42 38 32 39 30 31 29 32 39 46 48 48 49 48 49 48 50
47 46 45 49 50 43 29 28 27 35 37 37 32 31 28 32 32 32 32 36 36 39 37 35 32 39 43 44 45 42 43 32 30 24 23 30 32 35 41 44 47 46 46 47 49
46 39 45 49 49 36 23 27 33 39 40 36 32 31 30 30 31 30 31 37 38 38 39 35 34 35 40 36 35 38 36 34 33 30 29 26 32 42 41 43 46 46 47 48 49
43 34 46 48 34 32 31 32 42 38 40 38 38 36 33 33 31 30 31 34 41 39 35 37 33 29 32 39 41 39 35 34 28 28 25 29 33 44 43 44 46 47 48 49 51
38 39 46 46 31 32 33 36 39 38 37 38 37 39 38 34 31 33 34 41 42 40 35 38 29 22 28 34 38 36 37 35 33 31 25 27 33 44 44 45 47 48 50 50 50
40 33 39 42 40 31 31 33 34 40 39 40 38 40 37 34 36 32 33 40 42 41 46 42 31 28 22 29 33 33 35 35 32 26 29 30 35 40 42 43 45 46 48 49 49
40 35 39 32 35 31 31 35 34 34 39 40 37 38 35 31 31 32 35 37 41 43 39 38 28 26 31 34 34 35 35 35 27 33 29 33 34 40 41 42 44 46 46 47 48
37 36 37 35 41 33 37 32 34 35 37 34 36 38 36 34 33 33 35 33 33 39 35 36 27 28 28 33 34 33 34 34 35 35 35 35 36 42 43 43 44 44 44 45 46
40 38 37 39 38 36 36 34 37 39 39 40 39 37 36 36 37 37 36 37 37 35 34 33 30 28 24 30 32 28 33 34 34 35 36 33 37 39 39 41 42 42 43 44 45

GFSSW_sfc_temp_102.txt.gz
Temp
65 66 65 64 63 64 64 64 63 63 63 63 62 62 62 62 60 60 55 63 64 66 65 65 64 63 63 60 61 61 48 46 52 54 58 69 64 70 74 70 74 73 73 69 64
65 66 65 63 63 63 64 63 63 62 62 62 62 62 62 61 59 56 64 65 67 66 63 59 56 58 56 56 57 52 47 49 60 62 61 66 64 66 64 66 69 71 73 69 65
64 65 65 63 62 62 63 63 62 62 62 62 61 61 61 61 53 56 64 66 67 66 64 61 59 55 51 55 54 53 46 56 58 61 64 60 63 67 61 57 68 70 71 67 62
63 65 64 63 62 62 62 61 61 62 62 62 60 61 60 58 42 62 66 68 67 66 61 57 54 49 47 46 55 46 53 55 56 59 58 56 63 60 63 64 73 69 69 65 65
63 63 63 63 62 61 59 59 60 60 61 61 60 60 58 50 53 66 65 66 65 62 58 54 50 49 45 48 50 48 52 55 56 56 57 59 57 56 60 67 69 67 66 66 64
62 62 62 63 61 59 58 58 59 60 60 60 60 59 54 44 64 65 64 63 62 59 56 55 51 53 48 47 46 52 52 53 54 54 56 54 56 57 61 59 64 65 65 66 64
62 62 61 62 60 59 59 58 58 58 59 60 60 59 51 52 64 65 62 62 62 60 55 58 57 50 48 44 52 50 44 50 51 53 52 58 51 51 59 60 62 64 63 62 65
61 60 61 61 59 58 58 57 56 58 58 60 60 57 48 61 65 61 63 60 61 60 58 58 57 51 45 49 44 43 44 38 50 52 53 52 44 59 58 58 58 61 62 62 63
60 60 60 61 58 57 55 54 56 58 59 59 55 52 47 62 56 63 63 57 58 57 56 58 54 44 39 35 34 41 35 37 44 54 52 48 46 55 54 54 56 60 59 58 62
60 59 59 59 57 56 55 55 57 57 58 59 57 46 53 51 57 59 61 58 54 52 50 48 44 36 36 33 30 34 36 41 40 49 50 45 44 52 54 52 54 58 57 59 58
59 59 57 58 57 56 54 50 48 46 50 48 49 48 51 57 58 55 57 54 53 48 39 44 33 31 34 40 42 36 40 41 46 52 48 47 47 49 53 52 51 55 55 57 59
59 58 58 57 56 56 51 46 51 52 44 50 50 50 54 55 47 51 57 47 44 38 43 35 31 40 43 42 41 33 38 41 47 50 51 46 47 51 53 50 52 54 55 57 57
58 58 58 57 56 52 48 50 56 56 45 46 51 50 51 53 46 47 52 45 40 36 37 32 36 38 38 38 37 35 37 43 43 46 50 48 43 46 52 52 55 56 57 57 57
57 57 56 55 50 48 46 54 57 56 37 41 44 49 51 51 44 51 51 45 38 34 36 34 38 36 36 38 40 35 44 47 45 45 38 46 35 45 47 48 51 52 55 57 57
57 57 56 55 48 45 50 57 56 54 27 41 44 56 51 46 46 46 51 42 35 35 34 35 36 34 34 39 44 43 48 47 46 44 44 42 40 40 43 43 48 51 56 58 60
56 56 54 51 50 50 55 56 54 34 26 34 45 44 44 45 45 48 44 45 44 35 38 36 43 41 43 48 46 48 43 44 46 43 34 39 39 37 39 41 45 53 57 58 58
56 56 53 55 46 50 55 52 33 29 38 36 39 43 44 43 44 44 42 42 38 33 32 35 38 43 46 43 47 46 39 31 31 32 31 43 41 38 47 50 47 50 53 61 61
55 54 52 52 51 52 54 42 29 35 35 42 42 43 42 43 43 44 43 42 46 40 35 34 31 38 45 44 43 45 44 36 28 31 34 43 33 38 51 55 52 49 54 58 59
54 49 49 48 50 52 48 32 33 36 42 41 42 41 40 43 42 44 42 42 44 44 38 38 33 42 46 48 48 44 39 44 38 40 38 39 43 50 55 55 55 55 57 57 58
47 46 45 49 50 51 42 34 36 41 43 43 40 42 39 41 41 42 42 45 43 46 47 42 33 40 43 50 50 48 48 40 40 33 30 37 41 41 48 50 55 55 56 58 60
46 40 45 50 50 47 35 37 40 45 45 44 42 41 41 41 41 40 40 44 46 46 49 45 44 37 44 42 40 45 44 42 43 41 39 36 39 50 49 51 53 56 56 58 59
44 35 46 48 39 43 40 39 44 44 47 46 47 45 44 43 41 41 40 43 49 47 44 46 44 35 39 46 47 46 43 43 40 36 37 44 40 53 53 54 56 57 58 60 61
40 40 47 48 34 38 40 40 44 44 45 46 45 47 47 43 40 42 42 49 49 47 45 47 41 36 38 44 47 44 44 45 43 42 34 41 40 53 56 55 56 56 59 61 61
42 34 40 44 46 42 38 40 41 47 46 47 46 48 46 43 45 41 42 47 49 48 46 49 42 38 36 36 41 39 43 45 41 38 42 43 42 48 51 52 55 55 57 59 60
44 38 42 34 39 41 40 42 41 41 46 48 46 47 45 42 42 41 44 46 49 48 48 48 37 36 40 41 41 42 42 43 36 41 40 42 44 45 49 50 51 54 55 55 56
41 42 45 42 45 40 40 42 43 42 44 44 45 46 47 44 44 42 44 45 44 50 46 47 37 38 37 42 43 40 42 42 42 42 43 44 42 49 51 53 51 51 52 52 53
48 49 50 41 41 39 42 43 44 46 45 47 48 47 45 45 48 48 49 48 47 46 44 43 42 39 34 39 40 38 40 42 42 44 43 41 42 48 48 48 49 50 51 51 52

GFSSW_sfc_temp_105.txt.gz
Temp
64 65 66 66 64 64 64 64 63 63 63 63 62 62 62 62 61 63 58 65 67 67 66 68 68 66 67 62 65 65 47 47 53 55 60 71 69 75 76 71 73 76 77 73 70
63 64 65 66 64 64 63 64 63 63 62 62 62 62 62 61 62 60 67 66 67 67 66 63 61 62 59 60 61 53 47 50 61 64 63 68 69 71 69 68 67 70 76 74 68
63 64 63 65 65 63 62 63 62 62 62 62 61 61 61 62 56 60 66 66 67 67 66 64 63 59 55 59 58 55 47 57 61 65 65 65 66 70 64 60 63 67 74 66 68
63 63 63 63 64 63 62 61 61 62 61 62 61 61 60 61 44 64 66 68 68 68 64 60 58 53 51 50 58 49 56 58 59 62 60 59 63 62 63 65 74 73 70 71 67
63 63 63 61 62 62 60 60 60 60 61 61 61 60 59 52 55 68 66 67 67 64 60 57 54 54 48 53 55 51 54 58 59 59 59 61 57 58 62 68 66 68 68 70 67
62 62 62 61 62 60 59 59 59 60 60 60 60 59 55 45 68 70 68 66 65 62 60 59 55 57 51 51 50 54 55 55 57 57 58 55 57 59 63 69 65 67 68 70 67
62 61 61 61 61 59 59 59 58 58 59 60 60 60 53 54 68 69 66 65 66 63 57 61 60 53 54 48 55 52 46 51 52 54 54 58 50 53 65 67 63 67 69 68 66
61 61 60 60 59 59 59 58 57 58 59 59 60 58 50 65 69 64 67 63 65 65 61 62 60 54 50 51 48 42 44 38 50 53 54 53 42 58 65 63 62 65 66 66 66
61 60 60 60 60 58 57 57 56 58 58 60 56 54 49 62 58 65 67 59 61 61 60 61 56 49 46 37 34 40 34 39 44 55 53 50 45 59 64 60 60 62 65 67 65
60 60 59 58 59 57 56 57 58 59 59 61 60 49 55 53 60 62 66 62 57 56 52 51 47 40 38 32 29 32 35 41 41 49 52 48 47 55 59 58 58 60 63 65 64
59 59 58 58 57 56 54 53 49 47 52 50 52 52 54 60 62 58 62 57 56 51 42 47 35 32 38 40 39 39 40 39 44 52 48 49 48 53 59 57 57 58 59 62 61
58 58 58 56 56 56 52 47 53 55 44 53 53 54 58 59 50 54 60 48 46 37 44 36 31 43 40 41 38 35 37 39 46 50 50 50 49 55 57 57 58 58 59 60 59
58 57 58 57 56 52 50 50 59 58 49 48 53 53 54 55 49 50 53 49 43 37 36 33 38 39 37 40 38 39 38 40 33 49 53 51 47 50 55 56 58 58 60 61 58
57 57 56 56 50 51 46 53 59 59 39 42 47 52 53 52 45 57 54 48 39 34 36 35 41 37 36 38 43 38 48 38 39 44 37 52 36 45 48 50 55 59 60 58 57
57 57 55 56 50 48 49 58 58 54 29 45 47 59 55 46 51 49 55 43 35 36 35 36 37 36 36 42 46 42 51 45 46 45 44 40 36 40 47 45 50 54 57 57 57
56 56 54 53 51 50 54 59 54 37 28 36 49 46 45 49 50 51 46 46 43 37 38 38 44 41 43 49 49 47 45 38 40 40 36 41 40 37 38 41 46 52 56 57 56
56 56 52 55 46 51 55 53 35 33 42 38 41 47 49 47 48 48 45 39 37 33 34 37 40 46 48 43 44 36 36 32 31 30 32 44 41 36 41 44 45 46 52 55 57
54 54 54 52 51 51 55 43 32 39 39 46 46 47 44 47 48 48 47 38 43 42 39 35 31 37 48 43 38 35 42 34 26 29 34 44 30 34 46 48 45 47 54 56 59
53 50 48 48 50 50 48 35 34 40 46 44 45 45 44 47 46 48 47 44 47 48 37 35 33 47 50 51 50 46 39 46 41 46 37 36 36 45 54 50 48 49 55 55 59
48 47 44 49 50 50 45 37 40 46 47 49 43 47 43 45 46 47 47 49 46 51 49 43 33 45 49 53 53 48 50 41 42 34 30 33 32 34 46 50 52 52 55 57 60
47 41 45 50 50 48 38 41 45 49 49 47 46 46 47 45 47 46 46 49 50 49 53 47 43 40 49 45 41 46 45 47 46 44 39 35 37 51 50 54 55 55 57 58 60
46 36 47 49 40 46 46 43 45 48 51 50 51 50 48 47 46 46 44 47 53 52 47 50 46 37 41 50 51 49 47 48 40 40 45 44 38 56 56 56 58 58 59 60 61
41 40 48 49 37 44 45 45 47 48 49 50 49 51 52 48 44 47 47 52 53 50 47 49 44 36 40 47 51 47 50 50 48 46 39 41 38 57 58 57 58 57 59 60 61
46 35 40 48 52 47 42 43 44 50 50 51 50 53 50 48 50 45 47 51 52 52 47 51 46 42 37 37 43 42 46 49 44 39 44 42 43 50 52 53 55 57 59 59 59
53 41 46 37 43 47 43 47 44 45 51 52 50 51 49 46 47 46 49 51 53 51 52 53 39 39 44 45 43 44 44 47 39 47 41 45 43 47 51 52 54 56 57 56 57
51 47 49 46 48 46 43 45 46 46 48 48 48 50 52 47 47 46 49 50 48 54 51 52 40 41 41 46 46 42 46 47 46 47 47 47 42 52 54 55 54 54 54 54 55
56 57 56 44 47 45 47 47 47 50 49 51 52 52 48 48 53 54 55 54 52 50 49 49 45 42 36 44 44 40 42 45 45 46 46 44 45 51 50 50 51 52 53 53 53

GFSSW_sfc_temp_108.txt.gz
Temp
64 64 65 65 65 65 63 63 64 64 63 63 63 62 62 62 61 60 56 64 66 68 67 67 66 65 65 59 61 62 44 41 46 49 53 64 62 70 75 69 71 68 67 68 65
63 64 64 63 64 64 63 62 64 63 63 62 62 62 62 61 59 58 69 68 67 67 63 62 59 62 55 56 56 50 43 44 54 56 56 62 62 65 65 65 64 65 71 65 63
63 63 63 63 63 64 63 62 63 63 62 62 62 62 61 61 55 57 68 68 67 67 66 64 62 58 51 54 54 51 43 52 55 59 60 58 58 64 58 57 65 59 63 64 63
63 63 63 62 62 63 63 62 62 61 62 62 61 61 61 61 44 61 67 67 67 68 64 60 57 51 48 47 55 46 53 55 56 58 57 55 58 55 59 58 67 65 66 64 62
62 63 62 62 62 62 61 61 62 62 61 61 61 61 58 53 55 66 68 67 67 64 60 57 52 51 45 49 52 48 51 55 56 57 56 58 54 54 56 62 66 66 66 63 63
62 62 62 61 61 61 60 61 61 60 61 61 61 60 56 46 67 68 68 65 65 61 59 58 54 55 48 48 46 50 51 51 53 53 55 52 52 55 57 62 63 65 62 63 62
61 61 61 61 61 61 61 61 60 60 60 61 61 60 53 53 68 68 67 64 65 62 56 60 59 52 51 45 52 49 42 46 48 50 49 54 46 48 57 61 61 62 64 65 62
61 61 61 60 60 59 60 59 58 58 60 60 60 58 50 65 67 65 66 63 65 64 60 61 60 52 48 49 45 40 40 32 45 49 50 48 36 50 57 57 57 60 61 62 63
60 61 60 60 59 58 58 57 58 59 59 60 56 54 49 62 58 64 65 59 61 60 60 62 57 47 47 36 33 37 27 34 40 50 49 45 38 50 57 57 57 56 58 60 61
59 60 59 58 58 58 57 57 59 59 60 61 60 48 55 53 59 63 65 62 56 55 51 49 46 38 38 33 21 27 31 34 34 46 48 43 42 49 54 56 56 54 56 57 59
59 59 58 56 58 57 55 51 47 47 53 48 51 52 55 59 62 57 62 57 55 50 39 45 32 28 34 38 38 36 34 33 40 49 44 42 40 42 51 50 49 51 52 54 57
58 58 57 54 57 56 52 47 52 54 42 51 55 55 58 60 50 55 60 48 45 36 41 36 30 40 43 41 38 35 32 33 41 45 45 39 39 48 52 52 52 52 52 54 56
58 57 58 57 56 52 48 50 58 58 47 47 53 53 54 56 49 51 53 49 40 36 36 33 38 42 38 36 35 35 34 35 33 39 45 40 35 44 52 54 54 54 54 54 54
57 57 56 56 51 49 48 53 57 57 36 40 46 52 54 53 45 58 55 46 39 35 36 35 41 38 37 36 39 32 45 41 35 33 29 39 25 43 46 46 50 50 53 54 53
57 55 55 57 49 47 49 53 57 51 26 45 47 59 55 46 49 48 54 43 36 37 35 35 37 37 35 40 45 38 44 39 37 34 36 39 32 35 45 44 47 52 53 53 55
56 55 54 52 51 50 52 56 51 33 20 34 48 46 45 47 49 48 45 47 45 37 37 37 45 41 42 46 47 47 39 37 34 33 29 35 34 33 35 37 45 50 52 54 54
56 55 53 55 45 51 53 49 33 27 42 36 39 47 46 46 48 48 41 39 37 32 31 38 39 44 46 41 43 37 33 28 28 28 28 37 34 33 40 42 44 45 49 52 53
54 54 51 51 50 51 50 40 27 39 37 48 47 47 42 48 47 49 41 39 44 41 34 31 26 38 47 40 35 36 36 30 24 26 29 40 29 34 42 45 47 48 49 52 51
56 51 48 48 51 51 44 33 30 36 46 44 45 41 42 47 45 47 43 43 44 45 34 34 32 46 46 48 47 41 33 42 33 38 30 33 34 41 42 42 47 47 50 48 49
50 46 45 50 51 49 40 37 37 47 49 49 40 45 41 44 43 44 43 46 45 48 45 42 33 45 48 51 50 45 48 34 33 28 25 30 29 31 35 37 47 48 48 47 51
49 40 46 50 51 44 36 38 45 50 49 45 45 44 45 43 44 43 43 46 48 47 48 44 40 39 47 41 39 42 39 42 40 38 30 26 29 44 40 42 44 50 53 54 54
47 35 47 51 40 43 40 43 45 48 52 50 49 48 46 46 43 42 41 44 51 49 43 46 41 32 36 45 47 45 42 42 28 31 32 31 31 50 50 52 53 52 54 54 54
41 40 50 48 36 40 45 46 48 48 49 49 48 50 50 45 40 44 45 50 51 47 42 45 37 27 31 39 44 42 45 44 43 36 32 27 30 53 49 49 51 51 52 53 54
46 35 41 46 47 43 41 44 44 49 50 51 50 52 49 46 48 43 45 49 50 49 48 46 39 33 24 30 37 34 42 44 37 30 34 33 37 42 44 45 48 49 50 51 52
50 40 45 36 41 44 43 46 45 44 50 51 48 49 47 42 44 43 46 47 50 51 47 46 33 33 38 42 38 39 40 42 36 40 31 37 37 40 42 44 46 49 50 50 51
47 44 46 44 47 44 41 43 45 46 46 47 46 50 48 42 43 41 45 43 42 48 44 47 33 33 31 43 42 36 41 41 41 43 40 39 37 45 45 47 47 47 49 48 48
52 53 48 44 44 42 43 46 47 48 48 50 49 48 45 45 48 48 48 48 44 43 43 42 37 32 26 38 38 31 37 40 40 41 40 35 40 46 44 47 46 46 48 47 47

GFSSW_sfc_temp_111.txt.gz
Temp
63 63 64 64 64 64 65 64 64 63 64 63 63 63 62 62 61 57 52 59 63 68 67 62 62 61 59 53 55 55 41 40 39 43 47 57 55 63 66 63 64 65 67 66 63
63 63 63 64 64 64 64 64 63 64 63 63 62 62 62 61 55 53 64 69 69 68 61 57 54 57 49 49 50 45 37 41 49 50 49 54 54 55 56 56 59 60 62 63 61
63 63 63 64 63 62 63 62 63 64 63 62 62 62 62 60 50 51 69 69 68 67 63 62 58 55 46 47 46 46 40 48 51 54 55 53 53 57 51 49 56 56 57 59 59
62 63 63 63 63 63 62 62 64 63 63 62 62 62 61 55 39 56 68 68 68 66 62 58 53 46 42 41 48 41 49 51 52 54 53 51 54 52 52 53 60 61 62 61 59
62 62 62 62 62 62 62 61 63 62 62 62 62 61 55 47 48 65 68 67 65 62 57 53 48 45 39 42 45 40 46 50 51 51 51 54 50 50 52 56 60 62 64 60 60
62 62 62 61 61 61 61 61 62 61 62 61 62 60 50 42 60 64 64 63 63 59 55 54 50 50 43 42 40 44 45 46 48 48 50 48 48 50 54 55 58 61 60 61 59
61 61 61 61 61 60 61 61 60 61 61 62 61 58 50 48 61 62 64 60 61 59 53 55 54 48 45 40 46 44 38 42 44 46 45 50 42 44 52 55 55 58 60 60 60
60 60 61 60 60 58 61 60 60 60 61 61 61 53 44 61 59 62 61 59 61 60 57 57 56 49 43 44 42 37 36 28 41 45 46 45 33 47 51 51 52 53 57 59 60
60 60 60 60 60 58 59 58 58 60 60 61 51 47 43 62 56 59 60 57 56 57 57 61 53 43 43 33 31 32 22 28 35 46 44 42 36 47 52 51 51 52 55 57 57
59 59 59 57 58 58 57 57 59 58 58 59 58 43 51 50 56 59 60 59 54 51 49 47 41 33 34 32 20 20 26 31 31 41 43 41 39 46 49 48 49 51 52 53 55
59 58 57 59 58 57 55 52 47 46 49 43 46 49 53 56 60 55 59 54 52 46 35 41 31 27 30 34 35 33 30 29 35 42 39 38 40 44 48 46 43 46 51 51 53
58 58 56 58 58 57 52 46 48 48 39 50 52 53 57 57 48 52 58 45 42 32 37 34 29 37 40 40 37 32 31 31 37 42 41 38 38 44 48 45 46 45 48 49 50
57 57 55 56 56 52 48 48 55 53 40 45 51 52 52 54 48 46 51 45 39 36 35 31 35 41 38 35 33 33 31 32 29 38 41 37 33 39 46 46 46 48 50 50 52
57 57 57 56 50 49 47 53 53 52 32 39 44 50 52 50 44 54 52 46 40 35 37 34 42 38 37 35 37 29 40 38 34 32 20 36 23 34 39 43 48 47 47 49 51
56 57 57 57 47 46 49 52 51 47 17 43 45 57 53 45 48 46 53 43 37 37 36 36 37 36 35 37 41 35 43 38 35 32 32 35 28 35 40 40 41 44 46 48 50
56 56 56 51 50 49 52 51 48 30 14 31 45 43 43 45 48 47 45 47 46 37 38 36 45 39 41 45 45 46 39 37 35 33 25 34 31 32 34 37 41 47 46 49 51
56 56 54 54 44 49 50 45 27 17 38 33 36 44 43 41 43 43 40 38 36 31 27 36 37 41 45 40 43 38 32 27 24 24 26 33 31 32 37 43 44 44 47 48 53
54 53 51 50 50 49 46 33 19 34 33 45 44 43 37 44 44 45 40 38 43 41 31 31 24 37 46 41 35 34 34 29 23 24 28 36 28 31 40 46 48 48 48 50 49
54 46 47 48 50 46 37 23 24 32 42 41 42 35 36 43 41 42 38 38 40 40 30 33 30 44 45 47 44 38 34 39 32 34 27 30 33 39 40 42 45 46 46 46 48
45 43 45 48 47 43 32 32 32 43 45 45 34 39 33 38 37 42 37 42 41 45 42 38 31 44 48 49 48 42 46 33 31 25 24 28 29 30 33 37 42 43 45 46 50
43 40 46 48 46 37 27 31 41 48 46 41 38 39 39 38 40 37 37 41 44 44 43 41 39 37 44 40 37 37 37 39 37 35 27 25 28 34 35 41 44 42 45 48 51
42 35 45 47 33 34 31 39 45 45 47 45 44 43 40 41 38 37 36 39 47 45 40 43 37 27 34 44 46 41 39 39 27 29 30 28 29 47 41 44 50 49 51 52 52
38 40 45 44 27 30 38 42 45 44 45 45 44 46 45 40 36 39 40 47 47 44 39 41 32 23 29 36 40 37 42 40 39 32 26 24 30 48 47 47 48 47 49 51 51
40 33 37 38 38 33 35 39 39 45 45 47 46 46 43 41 43 38 40 46 47 46 49 45 36 30 23 30 35 33 39 40 34 24 28 28 31 36 40 42 44 44 46 47 48
42 33 37 27 35 36 36 40 40 39 45 46 44 44 41 36 38 38 41 43 47 50 45 42 31 29 35 39 37 36 37 37 31 35 26 32 33 35 37 38 41 44 46 46 46
42 35 38 35 40 36 37 37 40 42 42 41 41 43 42 37 37 35 39 38 37 44 42 42 31 32 30 39 37 34 37 39 38 38 36 36 34 41 41 42 43 43 45 44 44
49 44 41 38 36 34 35 39 42 43 44 45 43 41 39 41 43 43 42 44 41 38 38 38 33 28 25 34 34 29 34 35 36 37 38 32 37 42 40 43 42 41 43 42 42

GFSSW_sfc_temp_114.txt.gz
Temp
64 64 64 64 64 64 64 64 64 65 64 64 63 63 63 62 61 56 50 58 61 68 68 60 60 58 57 51 53 52 38 34 38 41 44 52 50 55 59 54 57 60 58 60 63
63 64 63 63 64 64 63 63 64 64 63 63 63 63 62 61 54 51 62 69 69 68 59 55 52 54 47 47 49 43 36 39 46 47 45 50 50 52 52 51 52 55 63 61 60
60 63 63 63 64 63 63 62 64 63 64 63 63 63 62 59 49 49 69 69 69 67 61 59 56 53 44 45 44 43 37 46 49 51 52 50 49 53 49 46 51 51 56 60 58
59 61 63 62 62 62 62 61 62 63 63 63 62 62 61 54 38 54 69 69 69 64 60 56 52 44 40 39 44 39 47 48 49 51 49 47 51 48 50 50 56 56 59 60 60
60 61 62 62 62 61 62 61 62 64 63 63 62 62 55 46 47 62 68 67 64 61 55 52 47 43 37 39 43 38 42 46 48 48 48 50 46 46 48 53 56 58 59 57 58
58 60 61 61 61 61 61 61 62 63 62 62 62 60 50 41 58 62 62 61 61 57 53 52 48 48 41 40 38 41 42 43 45 45 46 45 46 46 49 51 55 57 56 56 57
58 60 61 61 61 59 61 61 61 61 62 62 61 58 50 48 58 60 62 58 59 57 51 53 52 47 43 38 44 42 36 40 42 44 43 47 40 42 49 52 51 53 56 57 57
59 59 60 60 60 58 61 60 59 58 62 62 61 52 44 59 57 60 59 56 59 59 56 55 54 47 42 42 41 36 34 27 39 43 45 43 32 44 49 46 48 49 53 56 56
59 60 59 59 58 58 59 60 60 61 62 61 52 48 41 62 55 56 57 54 55 55 55 60 52 42 41 31 26 30 22 25 33 43 42 40 33 44 49 46 47 50 48 51 55
59 58 58 58 56 58 59 59 60 59 58 58 57 44 49 48 54 57 57 57 52 49 48 46 38 30 31 24 17 20 20 27 28 37 40 36 35 43 48 46 45 48 49 47 51
58 57 58 59 57 57 57 53 46 44 48 43 44 46 50 54 58 53 57 53 51 44 33 38 29 26 27 32 32 30 28 27 33 40 37 36 36 41 46 45 41 43 44 46 48
58 56 58 58 57 56 53 47 45 48 39 49 50 51 54 55 47 51 56 44 41 31 36 32 29 35 38 37 34 32 30 30 35 40 38 36 35 42 45 44 44 43 42 44 47
58 55 58 58 57 52 48 47 52 51 39 45 49 50 50 53 47 46 52 44 38 36 35 32 34 42 38 36 33 33 30 30 28 37 38 35 31 36 42 44 45 45 44 46 47
57 55 57 57 51 49 46 51 51 50 27 37 43 48 51 50 42 52 53 46 40 36 37 35 40 37 36 35 37 29 38 36 34 32 22 35 19 32 38 39 42 42 43 45 47
57 57 57 55 46 47 49 50 50 46 15 42 44 56 51 45 45 46 51 45 38 38 36 33 35 35 33 36 40 34 41 38 37 34 31 29 21 32 41 36 38 41 43 44 47
57 57 56 50 47 48 51 50 47 27 15 31 44 42 41 45 46 46 45 47 46 39 39 36 43 39 39 43 44 44 38 37 36 32 23 31 28 31 34 36 39 41 44 45 48
55 55 52 52 42 49 49 44 26 18 37 33 35 41 40 40 43 43 40 37 35 30 24 36 37 40 43 38 43 39 32 26 23 23 22 34 30 31 35 39 44 44 46 48 50
54 53 51 50 47 47 44 32 19 33 32 42 41 41 36 41 41 43 38 35 39 39 31 30 24 37 44 40 34 34 33 28 22 23 27 35 28 31 39 45 47 47 47 48 48
54 45 45 47 48 45 37 22 24 32 39 39 40 33 34 41 41 42 36 36 38 39 29 30 28 45 45 47 42 39 34 38 32 33 26 30 33 37 39 40 44 44 46 45 47
42 42 42 47 46 42 32 31 32 41 43 42 32 37 31 36 35 36 35 39 39 43 41 39 31 43 47 47 45 42 44 31 30 25 20 27 29 28 32 34 39 41 43 45 47
42 37 44 47 45 37 27 29 39 46 45 40 36 36 36 35 36 35 34 40 42 41 43 39 36 36 42 38 36 38 36 38 37 33 25 24 28 34 33 36 39 43 45 47 49
40 31 45 45 34 31 31 37 45 44 46 43 42 41 37 38 35 34 35 38 44 43 37 39 35 27 35 41 42 39 37 36 28 29 30 29 28 42 41 43 44 47 49 49 49
36 35 44 43 28 29 37 41 43 43 43 43 42 43 43 38 34 37 38 46 46 42 38 40 31 23 29 36 40 35 39 38 35 31 26 26 28 45 42 44 45 45 46 47 47
36 29 35 37 36 32 33 37 38 44 44 45 43 44 41 39 41 36 38 45 45 44 49 44 34 29 21 30 33 32 36 37 31 22 26 25 31 34 38 40 41 42 42 43 44
37 32 35 28 35 35 35 38 38 38 43 45 42 41 38 34 36 36 39 41 45 47 42 41 31 28 34 37 35 33 34 34 30 30 26 30 31 34 36 37 38 41 43 43 42
37 38 36 33 37 36 37 35 38 40 40 40 39 42 40 35 35 33 37 36 35 42 39 40 30 31 30 38 36 33 36 37 36 35 34 33 31 39 38 40 40 40 42 41 40
46 43 39 37 33 32 34 39 41 42 42 43 41 39 38 40 40 41 40 40 40 37 37 36 32 27 25 32 33 29 34 33 33 35 36 31 37 39 38 42 40 39 40 39 40

GFSSW_sfc_temp_117.txt.gz
Temp
62 63 63 64 64 64 63 64 63 64 65 64 64 63 63 62 61 55 50 57 59 69 67 59 58 56 55 51 52 51 37 32 36 39 42 49 47 54 56 51 54 55 55 59 61
59 62 63 63 63 64 63 63 64 62 64 63 63 63 62 61 53 51 61 69 69 69 58 54 51 53 46 46 47 42 34 37 44 44 43 48 47 48 49 49 50 53 60 60 61
58 59 61 62 62 63 63 62 63 64 63 63 63 63 62 58 49 48 68 69 69 65 60 57 54 51 44 44 43 41 36 44 47 49 49 48 47 50 46 44 49 50 54 57 57
58 60 61 62 61 62 62 61 62 63 63 63 63 62 61 53 38 53 69 69 69 63 59 54 50 43 39 37 42 37 44 45 46 47 46 45 49 46 48 48 55 55 56 57 56
58 60 60 62 61 61 61 61 62 64 63 63 63 62 55 47 45 60 68 67 62 59 54 50 45 41 36 37 41 36 40 44 45 46 46 47 44 44 46 50 53 55 56 54 55
55 58 60 61 61 61 60 61 61 62 63 63 62 61 50 40 57 61 61 60 59 55 51 50 46 46 40 38 36 39 40 41 43 44 44 43 44 44 46 49 52 53 53 54 54
58 59 60 60 60 60 60 61 61 62 63 63 61 57 48 46 56 59 61 56 57 55 50 52 51 46 41 37 42 40 35 38 40 42 42 45 37 40 47 48 48 51 52 54 53
59 60 60 60 59 60 61 61 60 61 62 62 61 52 43 58 55 59 58 55 58 57 54 54 53 46 41 41 39 34 32 27 37 41 43 41 31 42 47 43 45 47 50 52 52
59 60 59 59 58 58 59 59 59 59 62 61 52 48 41 61 54 54 56 53 53 54 54 59 51 40 40 30 25 29 21 24 31 42 40 38 31 41 46 46 45 47 48 48 50
59 58 58 58 58 59 60 60 60 59 58 58 56 44 47 46 52 55 55 55 50 48 46 44 37 29 28 23 17 19 18 25 26 36 38 35 34 41 45 44 43 45 47 44 46
57 57 58 58 57 58 57 54 47 46 49 43 43 45 48 53 56 52 55 52 49 43 33 37 26 25 27 30 31 29 26 27 32 39 35 34 35 39 45 43 41 41 44 44 44
58 59 58 57 59 56 53 45 45 48 39 48 49 50 53 53 46 49 54 43 40 30 35 33 28 34 36 35 32 29 30 30 34 39 36 35 34 40 43 43 44 41 42 41 42
58 58 58 56 56 52 48 46 50 48 39 44 49 49 49 51 45 46 51 46 39 36 36 32 33 41 37 36 34 33 31 31 29 35 36 33 29 34 41 41 41 42 42 42 44
57 58 58 58 52 48 45 49 49 49 28 36 43 47 50 48 41 51 53 46 40 36 37 35 38 36 34 33 35 30 38 37 33 31 25 36 23 30 36 38 39 38 39 42 43
57 57 56 55 45 45 47 49 49 45 16 40 42 54 49 44 44 45 50 43 35 36 36 30 33 36 34 35 38 32 42 38 35 33 32 30 26 29 37 35 39 40 42 44 43
57 56 55 49 46 46 48 48 46 26 13 30 42 41 41 45 45 46 45 48 45 39 39 37 43 39 38 41 43 44 39 37 36 33 22 31 27 27 32 35 38 41 42 44 46
55 55 51 51 42 48 48 44 25 19 36 32 34 40 39 41 43 42 40 38 35 30 26 37 37 39 41 36 43 39 32 22 19 17 21 33 29 31 36 39 42 43 46 48 49
55 52 51 49 45 45 43 33 20 32 32 41 39 39 34 40 41 41 40 36 38 38 33 29 26 35 41 38 35 35 33 28 21 23 23 35 27 31 39 42 45 47 47 49 48
53 44 43 46 47 45 38 22 24 32 38 37 38 32 33 39 40 40 35 34 38 37 30 27 29 42 43 45 42 37 34 38 31 33 23 29 33 37 39 37 42 43 45 45 47
42 41 42 46 45 42 32 30 31 39 41 40 32 35 30 33 33 34 33 39 39 42 40 35 30 40 45 46 43 41 43 31 30 24 21 26 29 28 32 33 36 38 41 44 45
40 37 45 45 44 37 27 29 37 45 44 39 35 33 34 33 34 33 34 40 42 41 39 36 33 34 40 36 35 35 34 36 36 32 24 23 27 37 34 35 36 39 42 44 46
38 32 45 44 34 30 31 36 44 42 44 42 40 39 35 36 34 33 34 38 43 41 35 38 33 26 33 39 40 38 35 34 25 30 28 28 28 44 42 42 43 45 46 46 45
35 35 43 42 28 29 36 40 41 41 41 41 40 41 41 36 32 36 37 45 44 41 36 38 29 22 29 34 37 34 36 35 34 33 26 25 29 44 43 43 42 42 41 42 43
36 30 36 37 35 31 32 36 38 43 42 43 41 42 39 36 38 35 37 43 44 43 49 44 32 29 21 30 32 31 33 34 30 21 26 26 32 35 36 38 38 38 39 39 40
36 32 35 28 34 32 32 36 37 37 41 42 39 39 36 32 34 33 36 39 43 45 40 39 30 27 33 34 34 34 33 33 26 29 26 30 29 34 36 37 38 40 40 41 39
36 34 34 32 34 33 35 34 36 39 38 38 37 39 37 33 34 32 35 34 34 40 37 38 31 30 30 34 34 33 35 35 33 32 31 31 32 38 37 38 39 38 39 38 38
40 40 38 35 32 31 32 36 38 39 41 41 39 37 36 38 39 40 40 39 38 34 35 35 31 27 25 30 31 28 32 34 33 34 34 29 35 37 36 39 39 39 40 37 36